[[{"header":{"parameterUnit":"m.s-1","parameterCategory":1,"la1":30.6,"la2":28.766,"lo1":-90.7593,"lo2":-88.6598,"dy":0.0162,"dx":0.0183,"nx":116,"ny":114,"refTime":"2024-07-01T18:00:00:Z","depth":0,"parameterNumber":2,"parameterNumberName":"U-component_of_WINDS"},"data":[0.0,0.0,0.0,0.0,0.0,0.0,0.0,0.0,0.0,0.0,0.0,0.0,0.0,0.0,0.0,0.0,0.0,0.0,0.0,0.0,0.0,0.0,0.0,0.0,0.0,0.0,0.0,0.0,0.0,0.0,0.0,0.0,0.0,0.0,0.0,0.0,0.0,0.0,0.0,0.0,0.0,0.0,0.0,0.0,0.0,0.0,0.0,0.0,0.0,0.0,0.0,0.0,0.0,0.0,0.0,0.0,0.0,0.0,0.0,0.0,0.0,0.0,0.0,0.0,0.0,0.0,0.0,0.0,0.0,0.0,0.0,0.0,0.0,0.0,0.0,0.0,0.0,0.0,0.0,0.0,0.0,0.0,0.0,0.0,0.0,0.0,0.0,0.0,0.0,0.0,0.0,0.0,0.0,0.0,0.0,0.0,0.0,0.0,0.0,0.0,0.0,0.0,0.0,0.0,0.0,0.0,0.0,0.0,0.0,0.0,0.0,0.0,0.0,0.0,0.0,0.0,0.0,0.0,0.0,0.0,0.0,0.0,0.0,0.0,0.0,0.0,0.0,0.0,0.0,0.0,0.0,0.0,0.0,0.0,0.0,0.0,0.0,0.0,0.0,0.0,0.0,0.0,0.0,0.0,0.0,0.0,0.0,0.0,0.0,0.0,0.0,0.0,0.0,0.0,0.0,0.0,0.0,0.0,0.0,0.0,0.0,0.0,0.0,0.0,0.0,0.0,0.0,0.0,0.0,0.0,0.0,0.0,0.0,0.0,0.0,0.0,0.0,0.0,0.0,0.0,0.0,0.0,0.0,0.0,0.0,0.0,0.0,0.0,0.0,0.0,0.0,0.0,0.0,0.0,0.0,0.0,0.0,0.0,0.0,0.0,0.0,0.0,0.0,0.0,0.0,0.0,0.0,0.0,0.0,0.0,0.0,0.0,0.0,0.0,0.0,0.0,0.0,0.0,0.0,0.0,0.0,0.0,0.0,0.0,0.0,0.0,0.0,0.0,0.0,0.0,0.0,0.0,0.0,0.0,0.0,0.0,0.0,0.0,0.0,0.0,0.0,0.0,0.0,0.0,0.0,0.0,0.0,0.0,0.0,0.0,0.0,0.0,0.0,0.0,0.0,0.0,0.0,0.0,0.0,0.0,0.0,0.0,0.0,0.0,0.0,0.0,0.0,0.0,0.0,0.0,0.0,0.0,0.0,0.0,0.0,0.0,0.0,0.0,0.0,0.0,0.0,0.0,0.0,0.0,0.0,0.0,0.0,0.0,0.0,0.0,0.0,0.0,0.0,0.0,0.0,0.0,0.0,0.0,0.0,0.0,0.0,0.0,0.0,0.0,0.0,0.0,0.0,0.0,0.0,0.0,0.0,0.0,0.0,0.0,0.0,0.0,0.0,0.0,0.0,0.0,0.0,0.0,0.0,0.0,0.0,0.0,0.0,0.0,0.0,0.0,0.0,0.0,0.0,0.0,0.0,0.0,0.0,0.0,0.0,0.0,0.0,0.0,0.0,0.0,0.0,0.0,0.0,0.0,0.0,0.0,0.0,0.0,0.0,0.0,0.0,0.0,0.0,0.0,0.0,0.0,0.0,0.0,0.0,0.0,0.0,0.0,0.0,0.0,0.0,0.0,0.0,0.0,0.0,0.0,0.0,0.0,0.0,0.0,0.0,0.0,0.0,0.0,0.0,0.0,0.0,0.0,0.0,0.0,0.0,0.0,0.0,0.0,0.0,0.0,0.0,0.0,0.0,0.0,0.0,0.0,0.0,0.0,0.0,0.0,0.0,0.0,0.0,0.0,0.0,0.0,0.0,0.0,0.0,0.0,0.0,0.0,0.0,0.0,0.0,0.0,0.0,0.0,0.0,0.0,0.0,0.0,0.0,0.0,0.0,0.0,0.0,0.0,0.0,0.0,0.0,0.0,0.0,0.0,0.0,0.0,0.0,0.0,0.0,0.0,0.0,0.0,0.0,0.0,0.0,0.0,0.0,0.0,0.0,0.0,0.0,0.0,0.0,0.0,0.0,0.0,0.0,0.0,0.0,0.0,0.0,0.0,0.0,0.0,0.0,0.0,0.0,0.0,0.0,0.0,0.0,0.0,0.0,0.0,0.0,0.0,0.0,0.0,0.0,0.0,0.0,0.0,0.0,0.0,0.0,0.0,0.0,0.0,0.0,0.0,0.0,0.0,0.0,0.0,0.0,0.0,0.0,0.0,0.0,0.0,0.0,0.0,0.0,0.0,0.0,0.0,0.0,0.0,0.0,0.0,0.0,0.0,0.0,0.0,0.0,0.0,0.0,0.0,0.0,0.0,0.0,0.0,0.0,0.0,0.0,0.0,0.0,0.0,0.0,0.0,0.0,0.0,0.0,0.0,0.0,0.0,0.0,0.0,0.0,0.0,0.0,0.0,0.0,0.0,0.0,0.0,0.0,0.0,0.0,0.0,0.0,0.0,0.0,0.0,0.0,0.0,0.0,0.0,0.0,0.0,0.0,0.0,0.0,0.0,0.0,0.0,0.0,0.0,0.0,0.0,0.0,0.0,0.0,0.0,0.0,0.0,0.0,0.0,0.0,0.0,0.0,0.0,0.0,0.0,0.0,0.0,0.0,0.0,0.0,0.0,0.0,0.0,0.0,0.0,0.0,0.0,0.0,0.0,0.0,0.0,0.0,0.0,0.0,0.0,0.0,0.0,0.0,0.0,0.0,0.0,0.0,0.0,0.0,0.0,0.0,0.0,0.0,0.0,0.0,0.0,0.0,0.0,0.0,0.0,0.0,0.0,0.0,0.0,0.0,0.0,0.0,0.0,0.0,0.0,0.0,0.0,0.0,0.0,0.0,0.0,0.0,0.0,0.0,0.0,0.0,0.0,0.0,0.0,0.0,0.0,0.0,0.0,0.0,0.0,0.0,0.0,0.0,0.0,0.0,0.0,0.0,0.0,0.0,0.0,0.0,0.0,0.0,0.0,0.0,0.0,0.0,0.0,0.0,0.0,0.0,0.0,0.0,0.0,0.0,0.0,0.0,0.0,0.0,0.0,0.0,0.0,0.0,0.0,0.0,0.0,0.0,0.0,0.0,0.0,0.0,0.0,0.0,0.0,0.0,0.0,0.0,0.0,0.0,0.0,0.0,0.0,0.0,0.0,0.0,0.0,0.0,0.0,0.0,0.0,0.0,0.0,0.0,0.0,0.0,0.0,0.0,0.0,0.0,0.0,0.0,0.0,0.0,0.0,0.0,0.0,0.0,0.0,0.0,0.0,0.0,0.0,0.0,0.0,0.0,0.0,0.0,0.0,0.0,0.0,0.0,0.0,0.0,0.0,0.0,0.0,0.0,0.0,0.0,0.0,0.0,0.0,0.0,0.0,0.0,0.0,0.0,0.0,0.0,0.0,0.0,0.0,0.0,0.0,0.0,0.0,0.0,0.0,0.0,0.0,0.0,0.0,0.0,0.0,0.0,0.0,0.0,0.0,0.0,0.0,0.0,0.0,0.0,0.0,0.0,0.0,0.0,0.0,0.0,0.0,0.0,0.0,0.0,0.0,0.0,0.0,0.0,0.0,0.0,0.0,0.0,0.0,0.0,0.0,0.0,0.0,0.0,0.0,0.0,0.0,0.0,0.0,0.0,0.0,0.0,0.0,0.0,0.0,0.0,0.0,0.0,0.0,0.0,0.0,0.0,0.0,0.0,0.0,0.0,0.0,0.0,0.0,0.0,0.0,0.0,0.0,0.0,0.0,0.0,0.0,0.0,0.0,0.0,0.0,0.0,0.0,0.0,0.0,0.0,0.0,0.0,0.0,0.0,0.0,0.0,0.0,0.0,0.0,0.0,0.0,0.0,0.0,0.0,0.0,0.0,0.0,0.0,0.0,0.0,0.0,0.0,0.0,0.0,0.0,0.0,0.0,0.0,0.0,0.0,0.0,0.0,0.0,0.0,0.0,0.0,0.0,0.0,0.0,0.0,0.0,0.0,0.0,0.0,0.0,0.0,0.0,0.0,0.0,0.0,0.0,0.0,0.0,0.0,0.0,0.0,0.0,0.0,0.0,0.0,0.0,0.0,0.0,0.0,0.0,0.0,0.0,0.0,0.0,0.0,0.0,0.0,0.0,0.0,0.0,0.0,0.0,0.0,0.0,0.0,0.0,0.0,0.0,0.0,0.0,0.0,0.0,0.0,0.0,0.0,0.0,0.0,0.0,0.0,0.0,0.0,0.0,0.0,0.0,0.0,0.0,0.0,0.0,0.0,0.0,0.0,0.0,0.0,0.0,0.0,0.0,0.0,0.0,0.0,0.0,0.0,0.0,0.0,0.0,0.0,0.0,0.0,0.0,0.0,0.0,0.0,0.0,0.0,0.0,0.0,0.0,0.0,0.0,0.0,0.0,0.0,0.0,0.0,0.0,0.0,0.0,0.0,0.0,0.0,0.0,0.0,0.0,0.0,0.0,0.0,0.0,0.0,0.0,0.0,0.0,0.0,0.0,0.0,0.0,0.0,0.0,0.0,0.0,0.0,0.0,0.0,0.0,0.0,0.0,0.0,0.0,0.0,0.0,0.0,0.0,0.0,0.0,0.0,0.0,0.0,0.0,0.0,0.0,0.0,0.0,0.0,0.0,0.0,0.0,0.0,0.0,0.0,0.0,0.0,0.0,0.0,0.0,0.0,0.0,0.0,0.0,0.0,0.0,0.0,0.0,0.0,0.0,0.0,0.0,0.0,0.0,0.0,0.0,0.0,0.0,0.0,0.0,0.0,0.0,0.0,0.0,0.0,0.0,0.0,0.0,0.0,0.0,0.0,0.0,0.0,0.0,0.0,0.0,0.0,0.0,0.0,0.0,0.0,0.0,0.0,0.0,0.0,0.0,0.0,0.0,0.0,0.0,0.0,0.0,0.0,0.0,0.0,0.0,0.0,0.0,0.0,0.0,0.0,0.0,0.0,0.0,0.0,0.0,0.0,0.0,0.0,0.0,0.0,0.0,0.0,0.0,0.0,0.0,0.0,0.0,0.0,0.0,0.0,0.0,0.0,0.0,0.0,0.0,0.0,0.0,0.0,0.0,0.0,0.0,0.0,0.0,0.0,0.0,0.0,0.0,0.0,0.0,0.0,0.0,0.0,0.0,0.0,0.0,0.0,0.0,0.0,0.0,0.0,0.0,0.0,0.0,0.0,0.0,0.0,0.0,0.0,0.0,0.0,0.0,0.0,0.0,0.0,0.0,0.0,0.0,0.0,0.0,0.0,0.0,0.0,0.0,0.0,0.0,0.0,0.0,0.0,0.0,0.0,0.0,0.0,0.0,0.0,0.0,0.0,0.0,0.0,0.0,0.0,0.0,0.0,0.0,0.0,0.0,0.0,0.0,0.0,0.0,0.0,0.0,0.0,0.0,0.0,0.0,0.0,0.0,0.0,0.0,0.0,0.0,0.0,0.0,0.0,0.0,0.0,0.0,0.0,0.0,0.0,0.0,0.0,0.0,0.0,0.0,0.0,0.0,0.0,0.0,0.0,0.0,0.0,0.0,0.0,0.0,0.0,0.0,0.0,0.0,0.0,0.0,0.0,0.0,0.0,0.0,0.0,0.0,0.0,0.0,0.0,0.0,0.0,0.0,0.0,0.0,0.0,0.0,0.0,0.0,0.0,0.0,0.0,0.0,0.0,0.0,0.0,0.0,0.0,0.0,0.0,0.0,0.0,0.0,0.0,0.0,0.0,0.0,0.0,0.0,0.0,0.0,0.0,0.0,0.0,0.0,0.0,0.0,0.0,0.0,0.0,0.0,0.0,0.0,0.0,0.0,0.0,0.0,0.0,0.0,0.0,0.0,0.0,0.0,0.0,0.0,0.0,0.0,0.0,0.0,0.0,0.0,0.0,0.0,0.0,0.0,0.0,0.0,0.0,0.0,0.0,0.0,0.0,0.0,0.0,0.0,0.0,0.0,0.0,0.0,0.0,0.0,0.0,0.0,0.0,0.0,0.0,0.0,0.0,0.0,0.0,0.0,0.0,0.0,0.0,0.0,0.0,0.0,0.0,0.0,0.0,0.0,0.0,0.0,0.0,0.0,0.0,0.0,0.0,0.0,0.0,0.0,0.0,0.0,0.0,0.0,-3.2747,-3.2468,0.0,0.0,0.0,0.0,0.0,0.0,0.0,0.0,0.0,0.0,0.0,0.0,0.0,0.0,0.0,0.0,0.0,0.0,0.0,0.0,0.0,0.0,0.0,-2.1996,-2.2831,-2.4229,-2.4698,-2.5124,-2.5569,0.0,0.0,0.0,0.0,0.0,-2.1079,-2.0626,-2.0588,-2.0971,-2.055,-2.0347,-2.034,-2.0138,-1.992,-1.9695,0.0,0.0,0.0,0.0,0.0,0.0,0.0,0.0,0.0,0.0,0.0,0.0,0.0,0.0,0.0,0.0,0.0,0.0,0.0,0.0,0.0,0.0,0.0,0.0,0.0,0.0,0.0,0.0,0.0,0.0,0.0,0.0,0.0,0.0,0.0,0.0,0.0,0.0,0.0,0.0,0.0,0.0,0.0,0.0,0.0,0.0,0.0,0.0,0.0,0.0,0.0,0.0,0.0,0.0,0.0,0.0,0.0,0.0,0.0,0.0,0.0,0.0,0.0,0.0,0.0,0.0,0.0,0.0,0.0,0.0,-3.3458,-3.3141,0.0,0.0,0.0,0.0,0.0,0.0,0.0,0.0,0.0,0.0,0.0,0.0,0.0,0.0,0.0,0.0,0.0,0.0,0.0,0.0,0.0,-1.8782,-2.1354,-2.2456,-2.3451,-2.4523,-2.5088,-2.5465,-2.5652,-2.4872,0.0,0.0,0.0,-2.2245,-2.2049,-2.1184,-2.1053,-2.1716,-2.0844,-2.0408,-2.0397,-2.0233,-2.0034,-1.9854,-1.986,0.0,0.0,0.0,0.0,0.0,0.0,0.0,0.0,0.0,0.0,0.0,0.0,0.0,0.0,0.0,0.0,0.0,0.0,0.0,0.0,0.0,0.0,0.0,0.0,0.0,0.0,0.0,0.0,0.0,0.0,0.0,0.0,0.0,0.0,0.0,0.0,0.0,0.0,0.0,0.0,0.0,0.0,0.0,0.0,0.0,0.0,0.0,0.0,0.0,0.0,0.0,0.0,0.0,0.0,0.0,0.0,0.0,0.0,0.0,0.0,0.0,0.0,0.0,-3.5856,-3.6125,-3.6471,-3.5798,-3.55,-3.5423,-3.3987,-3.3757,-3.4353,-3.3487,0.0,0.0,0.0,0.0,0.0,0.0,0.0,0.0,0.0,0.0,0.0,0.0,0.0,0.0,0.0,0.0,0.0,0.0,0.0,-1.8807,-2.1479,-2.2562,-2.3724,-2.5302,-2.4902,-2.4833,-2.5479,-2.4825,0.0,0.0,-2.4099,-2.374,-2.3027,-2.21,-2.1679,-2.1792,-2.0912,-2.0457,-2.0399,-2.0365,-2.0248,-2.0094,-2.0656,-2.0253,-1.9208,0.0,0.0,0.0,0.0,0.0,0.0,0.0,0.0,0.0,0.0,0.0,0.0,0.0,0.0,0.0,0.0,0.0,0.0,0.0,0.0,0.0,0.0,0.0,0.0,0.0,0.0,0.0,0.0,0.0,0.0,0.0,0.0,0.0,0.0,0.0,0.0,0.0,0.0,0.0,0.0,0.0,-2.8223,-2.915,0.0,0.0,0.0,0.0,0.0,0.0,0.0,0.0,0.0,0.0,0.0,0.0,0.0,-3.5548,-3.6356,-3.7863,-3.793,-3.6548,-3.7315,-3.6959,-3.5654,-3.5548,-3.55,-3.549,-3.526,0.0,-3.526,-3.4391,0.0,0.0,0.0,0.0,0.0,0.0,0.0,0.0,0.0,0.0,0.0,0.0,0.0,0.0,0.0,0.0,0.0,0.0,0.0,0.0,0.0,-2.2119,-2.2847,-2.404,-2.3824,-2.3748,-2.4072,0.0,-2.411,-2.3588,-2.4033,-2.4137,-2.383,-2.246,-2.1517,-2.1074,-2.0205,-1.9774,-1.9769,-1.9244,-1.9189,-1.9565,-2.0321,-2.045,-2.0111,-2.0218,0.0,0.0,0.0,0.0,0.0,0.0,0.0,0.0,0.0,0.0,0.0,0.0,0.0,0.0,0.0,0.0,0.0,0.0,0.0,0.0,0.0,0.0,0.0,0.0,0.0,0.0,0.0,0.0,0.0,0.0,0.0,0.0,0.0,0.0,0.0,0.0,0.0,0.0,0.0,-2.7886,-2.9138,-2.9551,-3.0801,-3.1435,0.0,0.0,0.0,0.0,0.0,0.0,0.0,0.0,0.0,-3.4265,-3.5081,-3.5673,-3.6019,-3.7228,-3.7459,-3.6702,-3.6625,-3.6452,-3.6163,-3.5712,-3.55,-3.55,-3.55,-3.55,-3.5471,-3.5093,-3.493,-3.4891,0.0,0.0,0.0,0.0,-3.3747,-3.3045,0.0,0.0,0.0,0.0,0.0,0.0,0.0,0.0,0.0,0.0,0.0,0.0,-2.1109,-2.1341,-2.1747,-2.2757,-2.2469,-2.2417,0.0,0.0,-2.3715,-2.3315,-2.4085,-2.4456,-2.4298,-2.259,-2.1204,-2.0166,-1.9517,-1.911,-1.8935,-1.8234,-1.8223,-1.8833,-1.9634,-2.0197,-2.0548,-2.0718,-2.0432,0.0,0.0,0.0,0.0,0.0,0.0,0.0,0.0,0.0,0.0,0.0,0.0,0.0,0.0,0.0,0.0,0.0,0.0,0.0,0.0,0.0,0.0,0.0,0.0,0.0,0.0,0.0,0.0,0.0,0.0,0.0,0.0,0.0,0.0,0.0,0.0,0.0,0.0,-2.8818,-2.9911,-2.9932,-3.1465,-3.2168,0.0,0.0,0.0,0.0,0.0,0.0,-3.3906,-3.3822,-3.4044,-3.4636,-3.5446,-3.5836,-3.5808,-3.6615,-3.6913,-3.6692,-3.6087,-3.601,-3.6365,-3.5769,-3.55,-3.55,-3.55,-3.55,-3.55,-3.55,-3.55,-3.55,-3.55,-3.5096,-3.4612,-3.526,-3.4673,-3.3757,0.0,0.0,0.0,0.0,0.0,0.0,0.0,0.0,0.0,0.0,0.0,-1.924,-2.0264,0.0,-2.0723,-2.2288,-2.1028,-2.0856,0.0,0.0,-2.3192,-2.4103,-2.4971,-2.5077,-2.4315,-2.259,-2.0895,-1.9273,-1.9216,-1.8781,-1.7967,-1.7915,-1.7922,-1.8002,-1.8796,-1.9415,-1.9936,-2.1258,-2.1188,-2.02,0.0,0.0,0.0,0.0,0.0,0.0,0.0,0.0,0.0,0.0,0.0,0.0,0.0,0.0,0.0,0.0,0.0,0.0,0.0,0.0,0.0,0.0,0.0,0.0,0.0,0.0,0.0,0.0,0.0,0.0,0.0,0.0,0.0,0.0,0.0,0.0,0.0,0.0,0.0,-3.083,-3.2324,0.0,0.0,0.0,0.0,-3.4502,-3.4545,-3.4923,-3.581,-3.5673,-3.5593,-3.5632,-3.6411,-3.6775,-3.6642,-3.7498,-3.7517,-3.6702,-3.6654,-3.626,-3.5558,-3.5519,-3.55,-3.55,-3.55,-3.55,-3.55,-3.55,-3.55,-3.55,-3.55,-3.5471,-3.5442,-3.5481,-3.5442,-3.5375,0.0,0.0,0.0,-1.4699,-1.4836,-1.4956,-1.5127,-1.5963,-1.6769,-1.7358,-1.7881,-1.8497,0.0,-1.8805,-1.8599,-1.914,-1.8664,-1.8588,-1.921,0.0,-2.1062,-2.1421,-2.2719,-2.3064,-2.2264,-2.1765,-2.0656,-1.8939,-1.8513,-1.7896,-1.7125,-1.655,-1.6569,-1.7098,-1.7905,-1.8554,-1.9126,-2.0672,-2.1195,-2.0978,-2.1055,-2.0695,0.0,0.0,0.0,0.0,0.0,0.0,0.0,0.0,0.0,0.0,0.0,0.0,0.0,0.0,0.0,0.0,0.0,0.0,0.0,0.0,0.0,0.0,0.0,0.0,0.0,0.0,0.0,0.0,0.0,0.0,0.0,0.0,0.0,0.0,0.0,0.0,0.0,-3.2365,-3.3513,0.0,-3.3047,-3.374,-3.4365,-3.4678,-3.5203,-3.5652,-3.5976,-3.5892,-3.5787,-3.5697,-3.6479,-3.6588,-3.5923,-3.675,-3.675,-3.5933,-3.5933,-3.5779,-3.55,-3.55,-3.55,-3.55,-3.55,-3.55,-3.55,-3.55,-3.55,-3.55,-3.55,-3.55,-3.55,-3.55,-3.55,-3.55,-1.338,-1.3776,0.0,-1.4742,-1.4868,-1.4984,-1.5198,-1.6258,-1.7125,-1.7362,-1.7808,-1.8162,-1.8307,-1.7468,-1.6975,-1.7211,-1.6914,-1.6899,-1.7308,0.0,-1.9758,-1.9889,-2.1178,-2.1654,-2.1109,-2.068,-1.9744,-1.8293,-1.7606,-1.688,-1.6152,-1.5568,-1.5609,-1.6198,-1.7001,-1.7655,-1.8244,-1.9588,-2.0615,-2.1375,-2.1538,-2.121,-2.0597,0.0,0.0,0.0,0.0,0.0,0.0,0.0,0.0,0.0,0.0,0.0,0.0,0.0,0.0,0.0,0.0,0.0,0.0,0.0,0.0,0.0,0.0,0.0,0.0,0.0,0.0,0.0,0.0,0.0,0.0,0.0,0.0,0.0,0.0,-3.1393,-3.2297,-3.3192,-3.4108,-3.4451,-3.3887,-3.4629,-3.5137,-3.5137,-3.5674,-3.5996,-3.5996,-3.5961,-3.5876,-3.5766,-3.6238,-3.6192,-3.5544,-3.6044,-3.6029,-3.55,-3.55,-3.55,-3.55,-3.55,-3.5337,-3.5064,-3.5064,-3.4885,-3.4644,-3.4939,-3.4885,-3.4683,-3.5269,-3.5317,-3.5064,-3.5064,-3.5064,-3.5103,-1.2758,-1.3559,-1.4308,-1.4652,-1.4813,-1.4955,-1.5085,-1.6703,-1.7539,-1.6526,-1.772,-1.8285,-1.7255,-1.6245,-1.5934,-1.6702,-1.5882,-1.5819,-1.7019,-1.8399,-1.9371,-1.9807,-2.0591,-2.1004,-2.0991,-1.94,-1.8139,-1.7248,-1.654,-1.5811,-1.5103,-1.5098,-1.5168,-1.5337,-1.6141,-1.6788,-1.7329,-1.8149,-1.9552,-2.1261,-2.1754,-2.1549,-2.0992,0.0,0.0,0.0,0.0,0.0,0.0,0.0,0.0,0.0,0.0,0.0,0.0,0.0,0.0,0.0,0.0,0.0,0.0,0.0,0.0,0.0,0.0,0.0,0.0,0.0,0.0,0.0,0.0,0.0,0.0,0.0,0.0,0.0,-3.0662,-3.1427,-3.233,-3.3255,-3.4131,-3.4665,-3.4726,-3.5498,-3.5996,-3.5996,-3.5996,-3.5996,-3.5996,-3.5996,-3.5973,-3.5903,-3.5766,-3.5665,-3.5601,-3.5534,-3.55,-3.55,-3.5471,-3.5471,-3.55,-3.5442,-3.4968,-3.4205,-3.4167,-3.368,-3.2968,-3.3811,-3.366,-3.3074,-3.4788,-3.493,-3.4157,-3.4157,-3.4157,-3.4282,-1.2659,-1.3559,-1.4338,-1.4766,-1.4875,-1.4979,-1.5208,-1.6762,-1.7538,-1.653,-1.7227,-1.7393,-1.6243,-1.4739,-1.3847,-1.392,-1.3674,-1.3884,-1.4749,-1.5722,-1.6824,-1.8094,-1.8878,-1.9041,-1.85,-1.8133,-1.733,-1.6071,-1.5954,-1.5628,-1.5103,-1.5097,-1.5197,-1.5407,-1.6163,-1.6551,-1.6732,-1.7975,-1.8853,-1.9506,-2.0518,-2.126,-2.1808,0.0,0.0,0.0,0.0,0.0,0.0,0.0,0.0,0.0,0.0,0.0,0.0,0.0,0.0,0.0,0.0,0.0,0.0,0.0,0.0,0.0,0.0,0.0,0.0,0.0,0.0,0.0,0.0,0.0,0.0,0.0,-3.0245,-3.158,-3.2178,-3.3139,-3.4104,-3.4944,-3.5376,-3.5624,-3.5644,-3.5859,-3.5996,-3.5996,-3.5996,-3.5996,-3.5996,-3.5996,-3.5973,-3.5903,-3.5766,-3.5665,-3.5601,-3.5534,-3.55,-3.549,-3.4862,-3.4891,-3.5462,-3.4183,-3.3833,-3.4157,-3.3526,-3.3122,-3.292,-3.316,-3.3122,-3.3006,-3.4122,-3.4016,-3.3256,-3.3256,-3.3256,-3.3285,-1.2625,-1.3616,-1.4451,-1.4827,-1.4902,-1.4992,-1.5265,-1.678,-1.7402,-1.5999,-1.6796,-1.6755,-1.4816,-1.3712,-1.3019,-1.2817,-1.301,-1.335,-1.3864,-1.4811,-1.6071,-1.7679,-1.776,-1.7555,-1.7138,-1.6588,-1.5973,-1.5262,-1.4982,-1.4827,-1.4808,-1.4808,-1.4954,-1.5244,-1.5708,-1.606,-1.6392,-1.7523,-1.8133,-1.8458,-1.956,-2.0436,-2.1194,-2.2135,-2.2491,-2.251,-2.2854,-2.2613,-2.219,-2.2501,0.0,0.0,0.0,0.0,0.0,0.0,0.0,0.0,0.0,0.0,0.0,0.0,0.0,0.0,0.0,0.0,0.0,0.0,0.0,0.0,0.0,0.0,0.0,0.0,-3.0554,-3.1862,-3.2333,-3.2932,-3.3658,-3.4549,-3.4763,-3.499,-3.541,-3.5791,-3.585,-3.5478,-3.5791,-3.584,-3.5469,-3.5801,-3.5975,-3.5936,-3.5837,-3.5736,-3.5643,-3.5209,-3.4976,-3.4939,-3.4064,-3.392,-3.4375,-3.3362,-3.2987,-3.3122,-3.2622,-3.2189,-3.1881,-3.2247,-3.2179,-3.1968,0.0,0.0,0.0,0.0,-3.24,-3.2449,-1.2695,-1.3724,-1.458,-1.485,-1.4903,-1.5016,-1.5389,-1.6837,-1.7243,-1.5391,0.0,-1.64,-1.3504,-1.312,-1.2939,-1.2641,-1.3198,-1.371,0.0,-1.5159,-1.639,-1.7652,-1.6939,-1.6446,-1.6277,-1.499,-1.4409,-1.4595,-1.3844,-1.3768,-1.4321,-1.438,-1.461,-1.4977,-1.5057,-1.5469,-1.6147,-1.6877,-1.7348,-1.7715,-1.8757,-1.942,-1.9959,-2.1659,-2.2198,-2.216,-2.2981,-2.3373,-2.346,-2.3057,0.0,0.0,0.0,0.0,0.0,0.0,0.0,0.0,0.0,0.0,0.0,0.0,0.0,0.0,0.0,0.0,0.0,0.0,0.0,0.0,0.0,0.0,0.0,0.0,-3.0631,-3.1698,-3.1698,-3.1698,-3.2068,-3.3072,-3.3196,-3.3559,-3.4461,-3.5254,-3.5391,-3.4609,-3.5273,-3.541,-3.4736,-3.5342,0.0,0.0,0.0,-3.5692,-3.5571,-3.4718,-3.4217,-3.4042,-3.3179,-3.2814,-3.2891,-3.2699,-3.2285,-3.1689,-3.1602,-3.1106,-3.0462,-3.1231,-3.1096,-3.0548,-3.2045,-3.2179,-3.1554,-3.1554,-3.1554,-3.166,-1.2901,-1.3724,-1.458,-1.485,-1.4904,-1.5232,-1.6198,-1.7226,-1.7451,-1.6215,-1.6901,-1.6541,-1.4019,-1.3213,-1.2468,-1.151,-1.2661,-1.3844,0.0,0.0,-1.6227,-1.5386,-1.5741,-1.5421,-1.4289,-1.3978,-1.3646,-1.3266,-1.332,-1.3507,-1.3837,-1.4214,-1.4555,-1.4846,-1.5016,-1.5238,-1.5515,-1.62,-1.6262,-1.6044,-1.7788,-1.9201,-2.0329,-2.091,-2.166,-2.252,-2.3441,-2.3447,-2.3232,-2.4509,-2.4061,-2.3075,-2.3759,0.0,0.0,0.0,0.0,0.0,0.0,0.0,0.0,0.0,0.0,0.0,0.0,0.0,0.0,0.0,0.0,0.0,0.0,0.0,0.0,-3.0029,-3.1025,-3.1698,-3.1698,-3.1698,-3.2054,-3.3009,-3.3213,-3.3358,-3.3546,-3.3767,-3.3828,-3.3662,-3.3809,-3.4141,-3.4668,-3.4189,-3.4551,-3.5957,-3.5248,-3.4815,-3.4731,-3.4441,-3.3907,-3.3141,-3.2324,0.0,-3.2852,-3.15,-3.1183,-3.166,-3.0962,-3.0558,-3.0413,-3.0577,-3.0548,-3.0433,-3.076,-3.0788,-3.0654,-3.0654,-3.0654,-3.0673,-1.4627,-1.5176,-1.5789,-1.6049,-1.6096,-1.6363,-1.7132,-1.7992,-1.8181,-1.7139,-1.7643,-1.7075,-1.4392,-1.3678,-1.2943,-1.18,-1.2924,0.0,0.0,-1.5647,-1.5285,-1.4481,-1.4323,-1.3787,-1.2825,-1.2467,-1.2237,-1.2106,-1.2372,-1.269,-1.3058,-1.3459,-1.3857,-1.4266,-1.4529,-1.48,-1.51,-1.5937,-1.6378,-1.6609,-1.7892,-1.9141,-2.0294,-2.0658,-2.1281,-2.201,-2.2436,-2.3033,-2.3675,-2.4099,-2.4267,-2.4374,-2.4734,-2.4866,-2.4886,0.0,0.0,0.0,0.0,0.0,0.0,0.0,0.0,0.0,0.0,0.0,0.0,0.0,0.0,-2.8501,-2.8501,0.0,-2.989,-3.0327,-3.0769,-3.1048,-3.1048,-3.0669,-3.0751,-3.1685,-3.2266,-3.2606,-3.2648,-3.3102,-3.3232,-3.2832,-3.3174,-3.3408,-3.3447,-3.3418,-3.3799,-3.4668,-3.4244,-3.3971,-3.3902,-3.3368,-3.2854,-3.2338,-3.1474,-3.126,-3.1615,-3.0779,-3.0644,-3.1029,-3.0587,-3.0404,-3.0404,-3.0404,-3.0135,-2.9746,-2.9746,-3.0019,-3.0404,-3.0404,-3.0404,-3.0404,-1.6692,-1.7076,-1.735,-1.7315,-1.73,-1.7487,-1.8074,-1.875,-1.8904,-1.8059,-1.8392,-1.7712,-1.5094,-1.4583,-1.4094,0.0,0.0,0.0,0.0,-1.5245,-1.4444,-1.4043,-1.3164,-1.2394,-1.1718,-1.1102,-1.0891,-1.1109,-1.131,-1.1639,-1.2075,-1.2507,-1.3092,-1.3802,-1.4224,-1.4712,-1.527,-1.617,-1.6896,-1.7514,-1.8274,-1.9053,-1.9824,-2.0433,-2.099,-2.1461,-2.1584,-2.2765,-2.4184,-2.3485,-2.4193,-2.5303,-2.5036,-2.5056,-2.5183,-2.5127,-2.5231,0.0,0.0,0.0,0.0,0.0,0.0,0.0,0.0,-2.6585,-2.7101,-2.7963,-2.878,-2.9348,-2.9348,-2.9929,-3.0404,-3.0404,-3.026,-3.0144,-3.0144,-2.941,-2.9151,-2.9897,-3.0672,-3.1236,-3.1472,-3.2189,-3.2451,-3.1982,-3.2549,-3.2715,-3.2226,-3.2646,-3.3057,-3.3389,-3.3252,-3.3131,-3.3051,-3.2304,-3.179,-3.1544,-3.0779,-3.0414,-3.0404,-3.0404,-3.0404,-3.0404,-3.0404,-3.0298,-3.0144,-3.0144,-2.964,-2.8867,-2.8867,-2.9294,-2.9913,-2.9913,-2.9913,-2.9913,-1.8082,-1.871,-1.867,-1.7498,-1.73,-1.7695,-1.8869,-1.9143,-1.9118,-1.8883,-1.8759,-1.8171,-1.6759,-1.6272,-1.6089,0.0,0.0,0.0,-1.6647,-1.5677,-1.4544,-1.3449,-1.2953,-1.2167,-1.104,-1.0587,-1.0381,-1.0411,-1.0378,-1.0552,-1.0913,-1.1662,-1.2742,-1.4093,-1.4839,-1.5727,-1.67,-1.7231,-1.7237,-1.6998,-1.8318,-1.8711,-1.8624,-1.975,-2.0762,-2.1687,-2.2505,-2.3406,-2.4213,-2.4173,-2.4277,-2.4284,-2.3319,-2.3498,-2.4028,-2.3787,-2.4271,-2.4898,-2.5017,-2.5057,-2.5017,-2.4868,-2.4943,-2.5271,0.0,-2.705,-2.7982,-2.88,-2.965,-3.025,-3.025,-3.0327,-3.0404,-3.0404,-2.9746,-2.9252,-2.9252,-2.8549,-2.8074,-2.8176,-2.834,-2.8766,-2.9608,-2.9843,-3.0236,-3.0986,-3.1133,-3.1484,-3.2158,-3.1553,-3.1855,-3.335,-3.2715,-3.2273,-3.215,-3.204,-3.1537,-3.0634,-3.0543,-3.0457,-3.0404,-3.0404,-3.0404,-3.0404,-3.0404,-2.9967,-2.9252,-2.9252,-2.8771,-2.803,-2.803,-2.8088,-2.8179,-2.8179,-2.8179,-2.8179,-1.8392,-1.8981,-1.9158,-1.8721,-1.87,-1.8993,-1.9682,-1.9847,-1.9889,-1.9878,-1.9704,-1.9104,-1.7893,-1.679,-1.6261,-1.6618,-1.6136,-1.5908,-1.6094,-1.5621,-1.4677,-1.3187,-1.2481,-1.1722,-1.0855,-1.0178,-0.995,-1.0184,-1.0073,-1.0241,-1.0655,-1.119,-1.2113,-1.3378,-1.4095,-1.5068,-1.62,-1.7024,-1.7823,-1.8613,-1.9401,-2.0251,-2.1074,-2.1416,-2.2128,-2.287,-2.2366,-2.2931,0.0,0.0,-2.3568,-2.3727,-2.277,-2.2701,-2.3039,-2.3394,-2.3763,-2.4174,-2.4724,-2.4877,-2.4846,-2.4678,-2.4756,-2.5068,-2.5787,-2.6394,-2.7074,-2.8035,-2.8517,-2.8766,-2.8766,-2.8766,-2.8766,-2.8766,-2.8459,-2.8276,-2.8394,-2.7678,-2.714,-2.714,-2.7166,-2.7574,-2.8552,-2.9162,-2.9676,-3.0107,-3.0605,-3.1064,-3.1416,-3.1103,-3.1221,-3.1924,-3.1621,-3.1415,-3.1362,-3.1281,-3.1028,-3.0615,-3.0578,-3.0539,-3.052,-3.0482,-3.0165,-2.964,-2.964,-2.9169,-2.8405,-2.8405,-2.79,-2.714,-2.714,-2.6832,-2.6515,-2.7525,-2.7905,-2.7905,-1.8153,-1.8845,-1.9357,-1.9562,-1.9507,-1.9609,-2.0104,-2.0301,-2.0423,-2.0474,-2.0307,-1.9795,-1.8741,-1.7583,-1.6958,-1.7142,-1.6957,-1.6564,-1.5889,-1.5457,-1.4561,-1.3066,-1.2176,-1.1347,-1.06,-0.9728,-0.934,-0.9498,-0.9303,-0.9355,-0.9648,-1.0123,-1.0988,-1.2172,-1.3232,-1.4491,-1.5888,-1.7413,-1.8821,-2.0081,-2.0794,-2.1776,-2.2822,-2.2659,-2.3064,-2.3565,-2.2533,-2.295,0.0,0.0,-2.293,-2.3196,-2.1876,-2.169,-2.2075,-2.262,-2.3128,-2.3671,-2.4428,-2.4603,-2.4552,-2.4443,-2.4568,-2.4835,-2.527,-2.5693,-2.6217,-2.7003,-2.7344,-2.7523,-2.7523,-2.7523,-2.7523,-2.7523,-2.7356,-2.7287,-2.7439,-2.6758,-2.6327,-2.6572,-2.6601,-2.6987,-2.7977,-2.8697,-2.9331,-2.986,-3.0302,-3.0654,-3.0889,-3.0898,-3.0898,-3.0898,-3.0898,-3.0898,-3.0898,-3.0804,-3.0743,-3.0705,-3.0649,-3.0625,-3.0593,-3.0303,-2.9681,-2.8821,-2.8821,-2.8348,-2.7566,-2.7566,-2.7036,-2.624,-2.624,-2.5856,-2.5452,-2.6717,-2.7178,-2.7178,-1.7391,-1.8489,-1.9357,-1.9562,-1.9011,-1.8889,-1.9942,-2.0275,-2.0404,-2.04,-2.0279,-1.9937,-1.9243,-1.9135,-1.8955,-1.8569,-1.7717,-1.6979,-1.6502,-1.5242,-1.4067,-1.3039,-1.2176,-1.1176,-1.0052,-0.9164,-0.847,-0.7961,-0.7636,-0.7385,-0.7225,-0.8088,-0.9191,-1.056,-1.2603,-1.4534,-1.6455,-1.9087,-2.0349,-2.0722,-2.2364,-2.2784,-2.2432,-2.2545,-2.286,-2.3251,-2.3461,0.0,0.0,0.0,-2.263,-2.2585,-2.0082,-2.0141,-2.1117,-2.1015,-2.2186,-2.3608,-2.4087,-2.4117,-2.4044,-2.4181,-2.4357,-2.4512,-2.4531,-2.53,-2.6003,-2.6038,-2.6722,-2.7314,-2.7314,-2.7314,-2.7314,-2.7314,-2.6754,-2.634,-2.6346,-2.5772,-2.5654,-2.6505,-2.6601,-2.6969,-2.7912,-2.8084,-2.8839,-3.0537,-3.0025,-3.001,-3.085,-3.0898,-3.0898,-3.0898,-3.0898,-3.0898,-3.0898,-3.0898,-3.0826,-3.0695,-3.0703,-3.066,-3.0574,-2.9718,-2.8902,-2.8126,-2.8126,-2.7598,-2.6736,-2.6736,-2.6185,-2.5346,-2.5346,-2.5317,-2.5308,-2.5365,-2.5385,-2.5385,-1.7372,-1.8099,-1.874,-1.9469,-1.9463,-1.9512,-1.9959,-1.9302,-1.8953,-1.9532,-1.9953,0.0,0.0,0.0,0.0,0.0,-1.8446,-1.7841,-1.7016,-1.6044,-1.4908,-1.3583,-1.2007,-1.0833,-1.015,-0.8537,-0.7739,-0.7835,-0.714,-0.6646,-0.6379,-0.6805,-0.7286,-0.7921,-1.0254,-1.2429,-1.4517,-1.7686,-1.9847,-2.1245,-2.2571,-2.322,-2.3406,-2.3487,-2.3478,-2.3385,0.0,0.0,0.0,-2.1967,-2.126,-2.0625,-1.9237,-1.9101,-1.9543,-2.0026,-2.1304,-2.2613,-2.2763,-2.3133,-2.3481,-2.3535,-2.3583,-2.3702,-2.3923,-2.4224,-2.457,-2.4935,-2.5235,-2.5439,-2.5439,-2.5439,-2.5439,-2.5439,-2.5252,-2.5149,-2.5288,-2.519,-2.5425,-2.6295,-2.7028,-2.7805,-2.8656,-2.8792,-2.9133,-2.985,-3.0168,-3.0502,-3.0879,-3.0898,-3.0898,-3.0898,-3.0898,-3.0898,-3.0898,-3.0898,-3.0586,-2.9958,-2.9381,-2.9067,-2.8998,-2.8656,-2.8022,-2.7169,-2.7116,-2.6601,-2.5774,-2.5774,-2.5577,-2.5298,-2.5298,-2.5298,-2.5298,-2.5298,-2.5298,-2.5298,-1.7061,-1.7737,-1.843,-1.949,-1.9487,0.0,0.0,0.0,0.0,0.0,0.0,0.0,0.0,0.0,0.0,0.0,0.0,-1.8141,-1.7326,-1.6382,-1.5375,-1.4276,-1.2573,-1.1318,-1.0581,-0.8707,-0.7644,-0.7452,-0.6347,-0.5603,-0.5195,-0.4725,-0.4845,-0.5505,-0.7085,-0.9446,-1.2427,-1.5839,-1.8647,-2.0943,-2.2631,-2.3509,-2.3819,-2.3953,-2.3754,0.0,0.0,0.0,0.0,-2.1434,-2.0732,-1.9857,-1.8793,-1.8407,-1.8553,-1.9565,-2.0497,-2.1312,-2.1931,-2.217,-2.2259,-2.2377,-2.2612,-2.2859,-2.3079,-2.3412,-2.3798,-2.4136,-2.4311,-2.4383,-2.4383,-2.4383,-2.4383,-2.4383,-2.4444,-2.4553,-2.467,-2.4832,-2.539,-2.6616,-2.7365,-2.8263,-2.9452,-2.9602,-2.9692,-2.9846,-3.011,-3.0431,-3.0806,-3.0869,-3.0762,-3.0449,-3.0742,-3.0596,-2.998,-3.0283,-3.0,-2.9131,-2.8574,-2.8113,-2.777,-2.7696,-2.7172,-2.6303,-2.6244,-2.588,-2.5339,-2.5344,-2.5317,-2.5298,-2.5298,-2.5298,-2.5298,-2.5298,-2.5298,-2.5298,-1.6457,-1.7413,-1.8456,0.0,0.0,0.0,0.0,0.0,0.0,0.0,0.0,0.0,0.0,0.0,0.0,0.0,0.0,0.0,-1.7505,-1.6348,0.0,-1.5085,-1.3782,-1.2531,-1.1337,-0.9664,-0.8207,-0.6963,-0.5472,-0.4479,-0.3949,-0.2326,-0.2343,-0.3741,-0.3853,-0.6364,-1.0738,-1.41,-1.7235,-2.011,-2.2667,-2.3662,-2.3621,-2.3849,0.0,0.0,0.0,0.0,0.0,-2.1246,-2.0919,-2.0143,-1.8646,-1.8053,-1.8146,-1.945,-1.9638,-1.9786,-2.1461,-2.1202,-2.0529,-2.0866,-2.1467,-2.2012,-2.2058,-2.2856,-2.3606,-2.3662,-2.3936,-2.4151,-2.4151,-2.4197,-2.4235,-2.4235,-2.4413,-2.4552,-2.4552,-2.4682,-2.5464,-2.7299,-2.7535,-2.8275,-3.0152,-3.0327,-3.038,-3.049,-2.9876,-2.9833,-3.0597,-3.0719,-3.0391,-2.956,-3.0342,-2.9971,-2.832,-2.9082,-2.9053,-2.8232,-2.8193,-2.7734,-2.6934,-2.6864,-2.6384,-2.5599,-2.5527,-2.5461,-2.54,-2.5402,-2.5354,-2.5298,-2.5298,-2.5298,-2.5298,-2.5298,-2.5298,-2.5298,0.0,0.0,0.0,0.0,0.0,0.0,0.0,0.0,0.0,0.0,0.0,0.0,0.0,0.0,0.0,0.0,0.0,0.0,-1.8387,-1.7331,0.0,0.0,0.0,0.0,-1.2853,-1.1144,0.0,0.0,0.0,-0.6583,-0.6386,-0.5573,-0.5798,-0.6994,-0.8654,-1.1385,-1.4937,-1.7692,-2.0261,-2.2529,0.0,-2.3621,-2.3554,0.0,0.0,0.0,0.0,0.0,-2.0464,-2.0328,-1.9818,-1.9077,-1.818,-1.7861,-1.7796,-1.7664,-1.794,-1.8461,-1.9152,-1.9534,-1.9841,-2.0162,-2.0398,-2.0733,-2.1553,-2.1943,-2.2359,-2.3164,-2.3401,-2.3448,-2.3448,-2.4147,-2.4713,-2.4713,-2.4964,-2.5169,-2.5169,-2.4834,-2.503,-2.6261,-2.6544,-2.737,-2.9254,-2.9429,-2.9705,-3.0384,-2.9762,-2.9481,-2.9794,-2.9273,-2.8857,-2.8643,-2.8848,-2.875,-2.8301,-2.7881,-2.7549,-2.7324,-2.667,-2.625,-2.6025,-2.5955,-2.5807,-2.5599,-2.5527,-2.5458,-2.5402,-2.5398,-2.5354,-2.5298,-2.5298,-2.5298,-2.5298,-2.5298,-2.5298,-2.5298,0.0,0.0,0.0,0.0,0.0,0.0,0.0,0.0,0.0,0.0,0.0,0.0,0.0,0.0,0.0,0.0,0.0,0.0,0.0,-1.8137,0.0,0.0,0.0,-1.5027,-1.4504,-1.268,0.0,0.0,0.0,0.0,0.0,-0.7793,-0.7954,-0.9182,-1.0107,-1.2487,-1.5943,0.0,0.0,0.0,0.0,0.0,0.0,0.0,0.0,0.0,0.0,0.0,-2.0269,-2.0127,-1.9499,-1.8594,-1.7625,-1.7323,-1.728,-1.7113,-1.7126,-1.7375,-1.8186,-1.8466,-1.8609,-1.8941,-1.952,-2.0166,-2.0758,-2.1517,-2.2247,-2.286,-2.3105,-2.32,-2.32,-2.4133,-2.4892,-2.4892,-2.5181,-2.5393,-2.5393,-2.4801,-2.4741,-2.5751,-2.597,-2.6674,-2.8296,-2.8439,-2.8683,-2.926,-2.9297,-2.933,-2.9409,-2.8684,-2.8094,-2.7744,-2.8074,-2.8094,-2.7734,-2.6855,-2.6426,-2.6416,-2.5928,-2.5703,-2.5703,-2.5633,-2.5602,-2.5599,-2.5527,-2.5478,-2.5441,-2.541,-2.5377,-2.5344,-2.5308,-2.5298,-2.5298,-2.5298,-2.5298,-2.5298,0.0,0.0,0.0,0.0,0.0,0.0,0.0,0.0,0.0,-1.7913,-1.8648,-1.9584,-2.0559,-2.0468,0.0,0.0,0.0,0.0,0.0,0.0,0.0,0.0,0.0,-1.6619,-1.627,-1.4444,-1.3605,0.0,0.0,0.0,0.0,0.0,0.0,0.0,0.0,0.0,0.0,0.0,0.0,0.0,0.0,0.0,0.0,0.0,0.0,0.0,0.0,0.0,-2.0289,-2.0229,-1.9594,-1.8605,-1.7257,-1.683,-1.6878,-1.7128,-1.6728,-1.6526,-1.7833,-1.772,-1.732,-1.7712,-1.8839,-1.9887,-1.9976,-2.1306,-2.2527,-2.263,-2.2881,-2.3087,-2.3087,-2.4005,-2.4805,-2.4913,-2.525,-2.5525,-2.5635,-2.4895,-2.469,-2.5593,-2.5609,-2.6028,-2.7266,-2.7408,-2.7545,-2.7838,-2.8535,-2.8955,-2.8955,-2.8252,-2.7534,-2.6835,-2.7489,-2.7519,-2.6826,-2.6084,-2.5703,-2.5703,-2.5703,-2.5703,-2.5703,-2.5636,-2.5607,-2.5606,-2.5554,-2.5521,-2.551,-2.545,-2.5421,-2.5391,-2.5335,-2.5313,-2.5298,-2.5298,-2.5298,-2.5298,0.0,0.0,0.0,0.0,0.0,0.0,0.0,0.0,0.0,0.0,0.0,0.0,0.0,0.0,0.0,0.0,0.0,0.0,0.0,0.0,0.0,0.0,0.0,-1.8584,-1.8135,-1.7141,-1.6754,-1.7008,-1.5325,0.0,0.0,0.0,0.0,0.0,0.0,0.0,0.0,0.0,0.0,0.0,0.0,0.0,0.0,0.0,0.0,0.0,0.0,-2.0425,-2.0254,0.0,-1.9671,-1.9278,-1.7953,-1.7525,-1.7341,-1.6359,-1.5996,-1.6062,-1.6855,-1.698,-1.7035,-1.7655,-1.8454,-1.9249,-1.9858,-2.0764,-2.1631,-2.2247,-2.2424,-2.2457,-2.2457,-2.3392,-2.4362,-2.497,-2.5575,-2.6197,-2.6796,-2.5914,-2.5326,-2.5661,-2.511,-2.5123,-2.6182,-2.6432,-2.6836,-2.7599,-2.7345,-2.7144,-2.7144,-2.6401,-2.5932,-2.5852,-2.5976,-2.6015,-2.5928,-2.5781,-2.5703,-2.5703,-2.5703,-2.5703,-2.5703,-2.5693,-2.5683,-2.5683,-2.5672,-2.5634,-2.5582,-2.5566,-2.5498,-2.5398,-2.5387,-2.5356,-2.5298,-2.5298,-2.5298,-2.5298,0.0,0.0,0.0,0.0,0.0,0.0,0.0,0.0,0.0,0.0,0.0,0.0,0.0,0.0,0.0,0.0,0.0,0.0,0.0,0.0,0.0,0.0,0.0,-1.9335,-1.9289,-1.8826,-1.889,-1.9478,0.0,-1.8695,-1.9032,-1.8987,-1.9303,-1.9892,-1.9908,-2.1106,0.0,0.0,0.0,0.0,0.0,0.0,0.0,0.0,0.0,0.0,0.0,-2.0846,-2.0608,-2.0166,-1.9874,-1.9535,-1.8521,-1.7983,-1.7519,-1.6548,-1.6054,-1.5906,-1.6415,-1.6541,-1.6747,-1.7586,-1.851,-1.9394,-2.0102,-2.1037,-2.187,-2.2234,-2.2296,-2.2296,-2.2296,-2.3229,-2.4119,-2.447,-2.5401,-2.6227,-2.6573,-2.6273,-2.5902,-2.5577,-2.5199,-2.5031,-2.5195,-2.5312,-2.5613,-2.6206,-2.5984,-2.6073,-2.6668,-2.5944,-2.5515,-2.5551,-2.5582,-2.5633,-2.5703,-2.5703,-2.5703,-2.5703,-2.5703,-2.5703,-2.5703,-2.5703,-2.5703,-2.5703,-2.5703,-2.5683,-2.5648,-2.5607,-2.5559,-2.5498,-2.5474,-2.5414,-2.535,-2.535,-2.5326,-2.5298,0.0,0.0,0.0,0.0,0.0,0.0,0.0,0.0,-1.7949,-1.8626,-1.8927,-1.948,-2.0519,-2.1318,0.0,0.0,0.0,0.0,0.0,0.0,0.0,0.0,0.0,-1.9753,-2.0134,0.0,0.0,-2.1469,-2.1609,0.0,0.0,0.0,0.0,0.0,-2.1725,-2.2223,-2.3289,0.0,0.0,0.0,0.0,-2.4641,0.0,0.0,0.0,0.0,0.0,-2.1399,-2.1039,-2.05,-2.0097,-1.972,-1.9111,-1.8446,-1.7772,-1.7115,-1.6473,-1.6074,-1.6421,-1.6409,-1.6538,-1.7551,-1.8597,-1.9572,-2.0332,-2.1366,-2.218,-2.2282,-2.2296,-2.2296,-2.2296,-2.3031,-2.3732,-2.4061,-2.5102,-2.6029,-2.6432,-2.6629,-2.6464,-2.5741,-2.5494,-2.515,-2.4502,-2.4469,-2.4628,-2.493,-2.5016,-2.5458,-2.6351,-2.5803,-2.5461,-2.5478,-2.5525,-2.5599,-2.5682,-2.5683,-2.5693,-2.5703,-2.5703,-2.5703,-2.5703,-2.5703,-2.5703,-2.5703,-2.5703,-2.5703,-2.5703,-2.5637,-2.5607,-2.559,-2.5537,-2.548,-2.5418,-2.541,-2.5375,-2.5322,0.0,0.0,0.0,0.0,0.0,0.0,0.0,0.0,-1.7728,-1.7805,-1.8508,-1.9622,-2.122,-2.1585,0.0,0.0,0.0,0.0,0.0,0.0,0.0,0.0,0.0,0.0,0.0,0.0,0.0,-2.2994,-2.2719,0.0,0.0,0.0,0.0,0.0,0.0,-2.1899,-2.2856,-2.2889,0.0,0.0,0.0,0.0,0.0,0.0,0.0,0.0,0.0,-2.1575,-2.143,-2.0584,-2.028,-2.0177,-1.9735,-1.9144,-1.8485,-1.7803,-1.7137,-1.6706,-1.7107,-1.6766,-1.6538,-1.7551,-1.8375,-1.9222,-2.0266,-2.1108,-2.1794,-2.2209,-2.2296,-2.2296,-2.2296,-2.2398,-2.2892,-2.4238,-2.4876,-2.5794,-2.7486,-2.7394,-2.6984,-2.6544,-2.5843,-2.509,-2.4301,-2.4383,-2.4593,-2.4802,-2.5099,-2.5317,-2.5418,-2.5365,-2.5352,-2.5409,-2.542,-2.5485,-2.5615,-2.5605,-2.5636,-2.5703,-2.5703,-2.5703,-2.5703,-2.5703,-2.5703,-2.5703,-2.5703,-2.5703,-2.5703,-2.5693,-2.5649,-2.5601,-2.5588,-2.5552,-2.5486,-2.5421,-2.5402,-2.5381,0.0,0.0,0.0,0.0,0.0,0.0,0.0,0.0,-1.7151,-1.7641,-1.8455,-1.9638,-2.1321,-2.2018,0.0,0.0,0.0,0.0,0.0,0.0,0.0,0.0,0.0,0.0,0.0,0.0,-2.2508,-2.3677,-2.4027,0.0,0.0,0.0,0.0,0.0,0.0,-2.1936,-2.2797,-2.2797,0.0,0.0,0.0,0.0,0.0,0.0,0.0,0.0,0.0,0.0,-2.1506,-2.091,-2.0533,-2.028,-2.0106,-1.9702,-1.9166,-1.8508,-1.7833,-1.7349,-1.7491,-1.7349,-1.7334,-1.8144,-1.8966,-1.9786,-2.0607,-2.1431,-2.2069,-2.226,-2.2296,-2.2296,-2.2296,-2.2296,-2.264,-2.3663,-2.4557,-2.5521,-2.6708,-2.7683,-2.7946,-2.7063,-2.664,-2.6027,-2.5024,-2.4561,-2.4444,-2.4775,-2.5003,-2.5168,-2.5293,-2.5298,-2.5335,-2.5395,-2.5398,-2.5454,-2.5543,-2.5545,-2.5567,-2.5636,-2.5636,-2.5661,-2.5703,-2.5703,-2.5703,-2.5703,-2.5703,-2.5703,-2.5703,-2.5703,-2.5683,-2.566,-2.566,-2.5619,-2.5558,-2.5527,-2.5464,-2.5404,0.0,0.0,0.0,0.0,0.0,0.0,-1.5577,-1.6311,-1.7151,-1.7978,-1.8837,-1.9923,-2.135,-2.2509,-2.343,-2.4051,0.0,0.0,0.0,0.0,0.0,0.0,0.0,0.0,0.0,0.0,-2.3587,-2.4435,-2.5014,-2.4971,0.0,0.0,-2.4558,-2.4453,0.0,0.0,0.0,0.0,0.0,0.0,0.0,0.0,0.0,0.0,0.0,0.0,0.0,0.0,0.0,0.0,0.0,-2.0641,-2.0374,-2.0193,-1.9933,-1.9208,-1.8513,-1.8005,-1.8005,-1.7855,-1.7863,-1.8521,-1.9273,-2.0034,-2.0823,-2.1569,-2.212,-2.226,-2.2296,-2.2296,-2.2296,-2.2296,-2.2533,-2.3274,-2.4267,-2.5224,-2.6073,-2.7713,-2.852,-2.7662,-2.75,-2.7007,-2.5866,-2.4873,-2.4427,-2.4766,-2.492,-2.5088,-2.5288,-2.5298,-2.5317,-2.5371,-2.5371,-2.5396,-2.547,-2.547,-2.5505,-2.5566,-2.5587,-2.5621,-2.5672,-2.5693,-2.5703,-2.5703,-2.5703,-2.5703,-2.5703,-2.5703,-2.5703,-2.5703,-2.5703,-2.5672,-2.5632,-2.5615,-2.5543,-2.5453,0.0,0.0,0.0,0.0,0.0,0.0,0.0,0.0,-1.7997,-1.8867,-1.9744,-2.0596,-2.1408,-2.3047,-2.4091,-2.41,0.0,0.0,0.0,0.0,0.0,0.0,0.0,0.0,0.0,0.0,0.0,-2.5481,-2.5491,-2.5491,-2.5479,-2.5491,-2.5491,-2.545,0.0,0.0,0.0,0.0,0.0,0.0,0.0,0.0,0.0,0.0,0.0,0.0,0.0,0.0,0.0,0.0,0.0,0.0,0.0,-2.0624,-2.0821,-1.9937,-1.9203,-1.8695,-1.8695,-1.8207,-1.7863,-1.8521,-1.9066,-1.9686,-2.0759,-2.1306,-2.1741,-2.22,-2.2296,-2.2296,-2.2296,-2.2296,-2.2533,-2.3274,-2.4017,-2.4899,-2.6037,-2.747,-2.8402,-2.8388,-2.8328,-2.7838,-2.6698,-2.5319,-2.4584,-2.4773,-2.492,-2.5088,-2.5288,-2.5298,-2.5298,-2.5298,-2.5298,-2.5335,-2.5403,-2.5403,-2.5428,-2.5503,-2.5574,-2.5602,-2.5603,-2.5672,-2.5703,-2.5703,-2.5703,-2.5703,-2.5703,-2.5703,-2.5703,-2.5703,-2.5703,-2.5703,-2.5693,-2.5621,-2.5601,-2.558,0.0,0.0,0.0,0.0,0.0,0.0,0.0,0.0,-1.8472,-1.8151,-1.975,-2.1005,-2.1268,-2.2732,-2.3686,-2.3686,0.0,0.0,0.0,0.0,0.0,0.0,0.0,0.0,0.0,0.0,0.0,0.0,0.0,-2.5607,-2.5574,-2.5574,-2.5537,-2.5462,-2.4661,-2.4303,0.0,0.0,0.0,0.0,0.0,0.0,-2.4668,0.0,0.0,0.0,0.0,0.0,0.0,0.0,0.0,0.0,0.0,0.0,0.0,-2.0673,-2.0208,-1.9853,-2.0178,-1.9882,-1.96,-2.014,-2.0591,-2.0984,-2.1335,-2.1758,-2.212,-2.226,-2.2296,-2.2296,-2.2296,-2.2296,-2.2871,-2.4628,-2.5101,-2.5919,-2.7845,-2.8715,-2.8861,-2.8087,-2.6995,-2.5954,-2.5052,-2.456,-2.4375,-2.4584,-2.4763,-2.493,-2.5088,-2.5228,-2.5298,-2.5298,-2.5298,-2.5308,-2.533,-2.533,-2.5371,-2.5425,-2.5452,-2.5512,-2.5602,-2.562,-2.566,-2.5703,-2.5703,-2.5703,-2.5703,-2.5703,-2.5703,-2.5703,-2.5703,-2.5703,-2.5703,-2.5682,-2.5636,-2.5586,0.0,0.0,0.0,0.0,0.0,0.0,0.0,0.0,-1.9296,-1.8754,-2.0496,-2.1679,-2.1349,-2.3031,-2.4059,-2.3751,0.0,0.0,0.0,0.0,0.0,0.0,0.0,0.0,0.0,0.0,0.0,0.0,0.0,0.0,0.0,0.0,-2.5618,-2.5549,-2.5045,-2.4832,0.0,0.0,0.0,0.0,0.0,0.0,-2.4853,0.0,0.0,0.0,0.0,0.0,0.0,0.0,0.0,0.0,0.0,0.0,0.0,0.0,-2.1023,-2.0822,-2.0959,-2.0789,-2.0633,-2.0926,-2.1291,-2.1605,-2.1605,-2.1966,-2.2296,-2.2296,-2.2296,-2.2296,-2.2296,-2.2539,-2.3173,-2.4551,-2.5473,-2.6505,-2.7935,-2.893,-2.9114,-2.8113,-2.6723,-2.554,-2.4732,-2.4373,-2.4275,-2.4486,-2.4685,-2.4862,-2.4989,-2.5188,-2.5298,-2.5298,-2.5298,-2.5298,-2.5298,-2.5298,-2.5322,-2.5357,-2.5391,-2.5437,-2.5531,-2.5579,-2.5621,-2.5661,-2.5693,-2.5703,0.0,-2.5703,-2.5703,-2.5703,-2.5703,-2.5703,-2.5703,-2.5703,-2.5672,-2.5633,0.0,0.0,0.0,0.0,0.0,0.0,0.0,0.0,0.0,0.0,0.0,-2.2395,-2.1651,-2.3727,0.0,0.0,0.0,0.0,0.0,0.0,0.0,0.0,0.0,0.0,0.0,0.0,0.0,-2.4382,-2.5198,-2.5223,-2.4502,0.0,0.0,-2.5703,-2.5703,-2.5693,0.0,0.0,0.0,0.0,-2.5116,-2.5007,0.0,0.0,0.0,0.0,0.0,0.0,0.0,0.0,0.0,0.0,0.0,0.0,0.0,0.0,0.0,0.0,0.0,-2.1063,-2.1047,-2.1079,-2.1376,-2.1658,-2.1658,-2.1988,0.0,-2.2296,-2.2296,-2.2313,-2.2364,-2.2945,-2.3444,-2.3604,-2.5355,-2.6733,-2.686,-2.827,-2.9007,-2.8241,-2.7132,-2.6125,-2.5354,-2.4621,-2.4284,-2.4461,-2.4662,-2.4842,-2.498,-2.5172,-2.5288,-2.5298,-2.5298,-2.5298,-2.5298,-2.5298,-2.5298,-2.5298,-2.5361,-2.5398,-2.5396,-2.5533,-2.5587,-2.5603,-2.5671,-2.5703,-2.5703,-2.5703,-2.5703,-2.5703,-2.5703,-2.5703,-2.5703,-2.5703,-2.5703,-2.5693,0.0,0.0,0.0,0.0,0.0,0.0,0.0,0.0,0.0,0.0,0.0,0.0,0.0,0.0,0.0,0.0,0.0,0.0,0.0,0.0,0.0,0.0,0.0,0.0,0.0,0.0,0.0,-2.514,-2.5455,-2.5498,-2.5318,-2.5585,0.0,0.0,0.0,0.0,0.0,0.0,0.0,0.0,-2.5249,-2.5146,0.0,0.0,0.0,0.0,-2.3862,-2.32,0.0,0.0,0.0,0.0,0.0,0.0,0.0,0.0,-2.2143,-2.2106,-2.2026,0.0,-2.1553,-2.1892,-2.2063,-2.2143,0.0,-2.2223,-2.2296,-2.2296,-2.2296,-2.2465,-2.3038,-2.3283,-2.3943,-2.5642,-2.6353,-2.7114,-2.829,-2.7779,-2.712,-2.6675,-2.5517,-2.4588,-2.4136,-2.4165,-2.4218,-2.4266,-2.4462,-2.4645,-2.4835,-2.4993,-2.5137,-2.5303,-2.5298,-2.5298,-2.5298,-2.5298,-2.5298,-2.5298,-2.5322,-2.5351,-2.5398,-2.5425,-2.5501,-2.5602,-2.5618,-2.5649,-2.5703,-2.5703,-2.5703,-2.5703,-2.5703,-2.5703,-2.5703,-2.5703,-2.5703,-2.5693,0.0,0.0,0.0,0.0,0.0,0.0,0.0,0.0,0.0,0.0,0.0,0.0,0.0,0.0,0.0,0.0,0.0,0.0,0.0,0.0,0.0,0.0,0.0,0.0,0.0,0.0,0.0,0.0,0.0,-2.5338,0.0,0.0,0.0,0.0,0.0,0.0,0.0,0.0,0.0,0.0,-2.5298,0.0,0.0,0.0,0.0,0.0,-2.3537,-2.2755,0.0,-2.1996,-2.1782,-2.1556,0.0,0.0,0.0,0.0,-2.2296,-2.2296,-2.2296,-2.2364,-2.2488,-2.2743,-2.2809,-2.2809,-2.2809,-2.2533,-2.2296,-2.2296,-2.2296,-2.2539,-2.3257,-2.3687,-2.4415,-2.5947,-2.6767,-2.7436,-2.8109,-2.7144,-2.6109,-2.5394,-2.4516,-2.3896,-2.3723,-2.4006,-2.4199,-2.4199,-2.4384,-2.4544,-2.4664,-2.4881,-2.5055,-2.5157,-2.5249,-2.5298,-2.5298,-2.5298,-2.5298,-2.5298,-2.5298,-2.5322,-2.5356,-2.5393,-2.5441,-2.5512,-2.5567,-2.562,-2.566,-2.5693,-2.5703,-2.5703,-2.5703,-2.5703,-2.5703,-2.5703,-2.5703,-2.5693,0.0,0.0,0.0,0.0,0.0,0.0,0.0,0.0,0.0,0.0,0.0,0.0,0.0,0.0,0.0,0.0,0.0,0.0,0.0,0.0,0.0,0.0,0.0,0.0,0.0,0.0,0.0,0.0,0.0,0.0,0.0,0.0,-2.5645,0.0,0.0,0.0,0.0,0.0,0.0,-2.5317,-2.5317,0.0,0.0,0.0,0.0,0.0,0.0,0.0,0.0,-2.2303,-2.2098,-2.169,-2.2322,0.0,0.0,0.0,0.0,0.0,-2.2446,-2.3012,-2.3503,-2.3291,-2.3317,-2.3367,-2.3257,-2.275,-2.2296,-2.2296,-2.2389,-2.2691,-2.3427,-2.4178,-2.4914,-2.5651,-2.6818,-2.753,-2.7172,-2.6435,-2.5533,-2.4464,-2.3917,-2.3619,-2.3619,-2.3936,-2.4142,-2.4199,-2.4366,-2.447,-2.4503,-2.4771,-2.4943,-2.4968,-2.513,-2.5228,-2.5249,-2.5279,-2.5298,-2.5298,-2.5298,-2.5298,-2.5298,-2.5363,-2.5385,-2.541,-2.5519,-2.5582,-2.5603,-2.5661,-2.5693,-2.5703,-2.5703,-2.5703,-2.5703,-2.5703,-2.5703,-2.5703,0.0,0.0,0.0,0.0,0.0,0.0,0.0,0.0,0.0,0.0,0.0,0.0,0.0,0.0,0.0,0.0,0.0,0.0,0.0,0.0,0.0,0.0,0.0,0.0,0.0,0.0,0.0,0.0,0.0,0.0,-2.532,-2.5509,-2.5645,0.0,0.0,0.0,0.0,0.0,-2.5508,-2.5377,-2.5377,0.0,0.0,0.0,0.0,0.0,0.0,0.0,0.0,-2.2621,-2.2293,-2.1914,-2.1802,0.0,0.0,0.0,0.0,0.0,-2.3063,-2.3771,-2.4034,-2.2784,-2.2945,-2.3241,-2.2615,-2.2372,-2.2296,-2.2296,-2.2801,-2.3452,-2.4195,-2.4924,-2.5676,-2.6404,-2.6716,-2.6739,-2.6418,-2.5686,-2.4886,-2.4147,-2.3605,-2.3279,-2.3279,-2.3577,-2.3887,-2.418,-2.4228,-2.4321,-2.4495,-2.4551,-2.4651,-2.483,-2.4858,-2.4926,-2.504,-2.5214,-2.5298,-2.5298,-2.5298,-2.5298,-2.5298,-2.5308,-2.5351,-2.5403,-2.5421,-2.5496,-2.5602,-2.5606,-2.5648,-2.5703,-2.5703,-2.5703,-2.5703,-2.5703,-2.5703,-2.5703,0.0,0.0,0.0,0.0,0.0,0.0,0.0,0.0,0.0,0.0,0.0,0.0,0.0,0.0,0.0,0.0,0.0,0.0,0.0,0.0,0.0,0.0,0.0,0.0,0.0,0.0,0.0,0.0,0.0,-2.429,-2.4856,-2.54,-2.5672,-2.5703,0.0,0.0,0.0,0.0,-2.5519,-2.5396,0.0,0.0,0.0,0.0,0.0,0.0,0.0,0.0,0.0,0.0,-2.2568,-2.2312,-2.2642,0.0,0.0,0.0,0.0,0.0,-2.2702,-2.3334,-2.3731,-2.3063,-2.3756,-2.4501,-2.4156,-2.3773,-2.3486,-2.3486,-2.3771,-2.4228,-2.4957,-2.5372,-2.5845,-2.6573,-2.637,-2.5918,-2.5355,-2.4626,-2.3873,-2.3173,-2.2985,-2.3009,-2.3177,-2.3502,-2.3846,-2.417,-2.4199,-2.4247,-2.433,-2.4026,-2.4086,-2.4622,-2.4284,-2.4345,-2.4891,-2.5063,-2.5188,-2.5298,-2.5298,-2.5298,-2.5298,-2.5298,-2.5322,-2.5351,0.0,-2.5428,-2.5503,-2.5574,-2.5619,-2.5648,-2.5693,-2.5703,-2.5703,-2.5703,-2.5703,-2.5703,0.0,0.0,0.0,0.0,0.0,0.0,0.0,0.0,0.0,0.0,0.0,0.0,0.0,0.0,0.0,0.0,0.0,0.0,0.0,0.0,0.0,0.0,0.0,0.0,0.0,0.0,-2.41,-2.4098,-2.3236,-2.333,-2.4322,-2.5258,-2.5703,0.0,0.0,0.0,0.0,-2.5621,-2.5547,-2.5415,0.0,0.0,0.0,0.0,0.0,0.0,0.0,0.0,0.0,0.0,0.0,0.0,0.0,0.0,0.0,-2.263,-2.2463,-2.2338,-2.2513,-2.297,-2.3435,-2.3604,-2.4374,-2.5135,-2.5304,-2.4763,-2.4288,-2.4457,-2.4643,-2.4939,-2.5507,-2.5736,-2.593,-2.6141,-2.5862,-2.5279,-2.4372,-2.3763,-2.3131,-2.2389,-2.2482,-2.2725,-2.3057,-2.338,-2.3714,-2.4064,-2.4161,-2.4116,-2.3933,-2.3664,-2.3711,-2.4139,-2.3649,-2.3821,-2.4721,-2.4645,-2.4811,-2.5234,-2.5283,-2.5298,-2.5298,-2.5298,-2.5298,-2.5303,-2.5354,-2.5393,-2.5409,-2.5508,-2.5566,-2.5614,-2.566,-2.5693,-2.5703,-2.5703,-2.5703,-2.5703,0.0,0.0,0.0,0.0,0.0,0.0,0.0,0.0,0.0,0.0,0.0,0.0,0.0,0.0,0.0,0.0,0.0,0.0,0.0,0.0,0.0,0.0,0.0,0.0,0.0,-2.4509,-2.4097,-2.4103,-2.3294,-2.3384,-2.4319,-2.5261,-2.5703,-2.5703,0.0,0.0,0.0,0.0,-2.5618,-2.5493,-2.5493,0.0,0.0,0.0,0.0,0.0,0.0,0.0,0.0,0.0,0.0,0.0,0.0,0.0,-2.2652,-2.2407,-2.2324,-2.244,-2.3131,-2.3359,-2.3553,-2.4245,-2.3991,-2.3731,-2.4423,-2.4017,-2.3663,-2.4355,-2.5033,-2.5549,-2.56,-2.6167,-2.62,-2.4872,-2.5186,-2.5094,-2.3672,-2.3427,-2.3131,-2.2389,-2.2316,-2.244,-2.2716,-2.3045,-2.3371,-2.3703,-2.4016,-2.3869,-2.3125,-2.375,-2.3823,-2.3125,-2.3061,-2.3508,-2.451,-2.3789,-2.3955,-2.5013,-2.5214,-2.5298,-2.5298,-2.5298,-2.5298,-2.5298,-2.5308,-2.5334,-2.5398,-2.5413,-2.5493,-2.5602,-2.5614,-2.5647,-2.5703,-2.5703,-2.5703,-2.5703,0.0,0.0,0.0,0.0,0.0,0.0,0.0,0.0,0.0,0.0,0.0,0.0,0.0,0.0,0.0,0.0,0.0,0.0,0.0,0.0,0.0,0.0,0.0,-2.5298,-2.5298,-2.3976,-2.331,-2.3349,-2.3128,-2.348,-2.4376,-2.5281,0.0,0.0,0.0,0.0,0.0,0.0,-2.5648,-2.5558,-2.5517,-2.5437,0.0,0.0,0.0,0.0,0.0,0.0,0.0,0.0,-2.422,-2.3996,-2.3856,-2.3457,-2.2984,-2.2895,-2.2589,-2.2355,-2.2634,-2.3054,-2.3469,-2.3754,-2.3619,-2.3706,-2.4907,-2.4618,-2.4296,-2.5025,-2.5414,-2.5592,-2.5592,-2.5837,-2.5676,-2.4668,-2.4355,-2.4044,-2.3477,-2.3004,-2.2615,-2.233,-2.2296,-2.2407,-2.2669,-2.2814,-2.2911,-2.2945,-2.3525,-2.3402,-2.2309,-2.2547,-2.2574,-2.2253,-2.1731,-2.1893,-2.2806,-2.3143,-2.3518,-2.3947,-2.4745,-2.5183,-2.5298,-2.5298,-2.5298,-2.5298,-2.5298,-2.5313,-2.5344,-2.5381,-2.5425,-2.5476,-2.5574,-2.5636,-2.5703,-2.5703,-2.5703,-2.5703,0.0,0.0,0.0,0.0,0.0,0.0,0.0,0.0,0.0,0.0,0.0,0.0,0.0,0.0,0.0,0.0,0.0,0.0,0.0,0.0,0.0,0.0,0.0,-2.5298,-2.5298,-2.3949,-2.3255,-2.3308,-2.3439,-2.382,-2.4416,0.0,0.0,0.0,0.0,0.0,0.0,0.0,0.0,-2.5588,-2.5535,-2.5465,0.0,0.0,0.0,0.0,0.0,0.0,0.0,0.0,-2.4375,-2.418,-2.4074,-2.3733,-2.3323,-2.3097,-2.2925,-2.2781,-2.2677,-2.3021,-2.3452,-2.3695,-2.3577,-2.3723,-2.4966,-2.4685,-2.4364,-2.5101,-2.5253,-2.5177,-2.4949,-2.5101,-2.4932,-2.3966,-2.357,-2.3317,-2.3088,-2.2623,-2.2296,-2.2296,-2.2296,-2.2374,-2.2563,-2.2647,-2.2571,-2.2249,-2.2901,-2.2736,-2.1369,-2.1622,-2.1675,-2.14,-2.0804,-2.1043,-2.217,-2.261,-2.3107,-2.3691,-2.4471,-2.4971,-2.5208,-2.5269,-2.5298,-2.5298,-2.5298,-2.5298,-2.5303,-2.5347,-2.5381,-2.5408,-2.5551,-2.5633,-2.5672,-2.5693,-2.5703,-2.5703,0.0,0.0,0.0,0.0,0.0,0.0,0.0,0.0,0.0,0.0,0.0,0.0,0.0,0.0,0.0,0.0,0.0,0.0,0.0,0.0,0.0,0.0,0.0,-2.5298,-2.5298,-2.4587,-2.4215,-2.4197,-2.4325,-2.4404,-2.4434,-2.5303,0.0,0.0,0.0,0.0,0.0,0.0,0.0,0.0,-2.5535,-2.5455,-2.5387,0.0,0.0,0.0,0.0,0.0,0.0,0.0,-2.4366,-2.4142,-2.3806,0.0,0.0,-2.2901,-2.3262,-2.3829,-2.3478,-2.3384,-2.3577,-2.4296,-2.3941,-2.3594,-2.4313,-2.3924,-2.3619,-2.4338,-2.4482,-2.4271,-2.352,-2.4,-2.4008,-2.2533,-2.2911,-2.3131,-2.2398,-2.2296,-2.2296,-2.2296,-2.2296,-2.2296,-2.2296,-2.2537,-2.2387,-2.1642,-2.2136,-2.1805,-2.0273,-2.1196,-2.1391,-2.0512,-2.0484,-2.1291,-2.2951,-2.2189,-2.2697,-2.4467,-2.4494,-2.467,-2.5001,-2.5208,-2.5303,-2.5303,-2.5298,-2.5298,-2.5298,-2.5298,-2.5339,-2.5407,-2.5547,-2.5601,-2.5615,-2.5672,-2.5703,-2.5703,0.0,0.0,0.0,0.0,0.0,0.0,0.0,0.0,0.0,0.0,0.0,0.0,0.0,0.0,0.0,0.0,0.0,0.0,0.0,0.0,0.0,0.0,0.0,0.0,0.0,0.0,-2.4865,-2.4342,-2.4381,-2.4707,0.0,0.0,0.0,-2.5703,0.0,0.0,0.0,0.0,0.0,0.0,-2.5549,-2.5488,-2.5462,0.0,0.0,0.0,0.0,0.0,0.0,0.0,0.0,0.0,-2.4133,0.0,-2.4356,-2.3345,-2.3483,-2.3763,-2.2872,-2.3004,-2.3325,-2.3029,-2.3181,-2.3317,-2.3021,-2.3181,-2.3452,-2.3687,-2.3738,-2.367,-2.3435,-2.357,-2.341,-2.2462,-2.2474,-2.2541,-2.233,-2.2296,-2.2296,-2.2296,-2.2296,-2.2296,-2.2296,-2.1903,-2.1392,-2.0799,-2.0961,-2.0504,-1.9143,-2.0093,-2.0299,-1.9466,-1.9577,-1.9886,-2.0391,-2.1326,-2.2076,-2.2614,-2.3896,-2.4631,-2.486,-2.5024,-2.5094,-2.5099,-2.5239,-2.5298,-2.5298,-2.5298,-2.5339,-2.5396,-2.5437,-2.5517,-2.5603,-2.562,-2.566,-2.5703,0.0,0.0,0.0,0.0,0.0,0.0,0.0,0.0,0.0,0.0,0.0,-2.5298,0.0,0.0,0.0,0.0,0.0,0.0,0.0,0.0,0.0,0.0,0.0,0.0,0.0,-2.5455,-2.5307,0.0,0.0,0.0,0.0,0.0,0.0,-2.5703,0.0,-2.5703,-2.5703,0.0,0.0,0.0,-2.5583,-2.5521,-2.5488,0.0,0.0,0.0,0.0,0.0,0.0,0.0,0.0,0.0,-2.4366,-2.4454,-2.4483,-2.3839,-2.4092,-2.4455,-2.3786,-2.3723,-2.3805,-2.3655,-2.3503,-2.3283,-2.2843,-2.2852,-2.2961,-2.2961,-2.2961,-2.2961,-2.2961,-2.2961,-2.2826,-2.2364,-2.2296,-2.2296,-2.2296,-2.2296,-2.2296,-2.2296,-2.2296,-2.2178,-2.1887,-2.1461,-2.0807,-1.9872,-1.9938,-1.9558,-1.85,-1.9263,-1.9453,-1.8861,-1.914,-1.9423,-1.9655,-2.0734,-2.162,-2.229,-2.3379,-2.4138,-2.4568,-2.4809,-2.4943,-2.5007,-2.5214,-2.5298,-2.5298,-2.5298,-2.5322,-2.5363,-2.5387,-2.5453,-2.5535,-2.5582,-2.5632,-2.5661,0.0,0.0,-2.2139,-2.3812,0.0,0.0,0.0,0.0,0.0,0.0,-2.5298,-2.5298,0.0,0.0,0.0,-2.524,0.0,0.0,0.0,0.0,0.0,0.0,0.0,0.0,0.0,0.0,0.0,0.0,0.0,0.0,0.0,0.0,-2.5703,-2.5703,0.0,-2.5703,-2.5703,0.0,0.0,-2.5693,-2.5632,-2.5561,-2.5501,-2.5431,0.0,0.0,0.0,0.0,0.0,0.0,0.0,0.0,-2.4512,-2.4459,-2.4411,-2.4367,-2.4956,-2.5612,-2.5572,-2.498,-2.4558,-2.5236,-2.434,-2.33,-2.33,-2.2784,-2.2296,-2.2296,-2.2296,-2.2296,-2.2296,-2.2296,-2.2296,-2.2296,-2.2296,-2.2282,-2.2237,-2.2245,-2.2245,-2.2245,-2.2245,-2.1964,-2.1266,-2.1131,-2.0479,-1.9015,-1.9064,-1.8873,-1.8199,-1.8651,-1.8816,-1.8566,-1.8998,-1.9511,-2.0093,-2.034,-2.1255,-2.2767,-2.285,-2.3272,-2.3998,-2.4526,-2.486,-2.5007,-2.5188,-2.5279,-2.5298,-2.5298,-2.5298,-2.5308,-2.5367,-2.5385,-2.5411,-2.5543,-2.5587,-2.5605,0.0,0.0,-2.2855,-2.3918,0.0,0.0,0.0,0.0,-2.4394,-2.5192,-2.5298,-2.5298,-2.5298,-2.5154,0.0,-2.5279,-2.5144,0.0,0.0,0.0,0.0,0.0,0.0,0.0,0.0,0.0,0.0,0.0,0.0,0.0,0.0,0.0,0.0,-2.5703,0.0,-2.5703,0.0,0.0,-2.5703,-2.5693,-2.5632,-2.5587,-2.5572,-2.545,-2.5385,0.0,0.0,0.0,0.0,0.0,0.0,0.0,-2.4552,-2.5227,-2.5906,-2.5039,-2.5604,-2.6329,-2.5441,-2.444,-2.3663,-2.3824,-2.3198,-2.2533,-2.2533,-2.2406,-2.2296,-2.2296,-2.2296,-2.2296,-2.2296,-2.2296,-2.2296,-2.2296,-2.2296,-2.2172,-2.1794,-2.1741,-2.1741,-2.1741,-2.1741,-2.1607,-2.124,-2.0627,-1.9879,-1.8961,-1.8418,-1.8053,-1.7892,-1.8206,-1.8351,-1.829,-1.8586,-1.8914,-1.9245,-1.9929,-2.0524,-2.1052,-2.173,-2.2152,-2.2363,-2.3884,-2.4723,-2.5001,-2.505,-2.5148,-2.5298,-2.5298,-2.5298,-2.5298,-2.5317,-2.5346,-2.5396,-2.5434,-2.551,-2.5602,0.0,0.0,0.0,0.0,0.0,0.0,0.0,0.0,-2.4394,-2.5192,-2.5298,-2.5298,-2.5298,-2.5298,0.0,0.0,-2.5298,-2.5298,0.0,0.0,0.0,0.0,0.0,0.0,0.0,0.0,0.0,0.0,0.0,0.0,0.0,0.0,0.0,-2.5703,0.0,-2.5703,0.0,-2.5703,-2.5703,-2.5703,-2.5661,-2.5633,-2.5588,-2.5521,-2.5478,-2.5444,-2.5373,0.0,0.0,0.0,0.0,0.0,0.0,0.0,-2.6071,-2.5574,-2.6167,-2.6872,-2.6307,-2.5201,-2.4001,-2.3104,-2.2575,-2.2296,-2.2296,-2.2296,-2.2296,-2.2296,-2.2296,-2.2231,-2.2003,-2.2157,-2.2166,-2.1759,-2.184,-2.1817,-2.1376,-2.1306,-2.1306,-2.1306,-2.1476,-2.1414,-2.0908,-2.0341,-1.9693,-1.8961,-1.8225,-1.78,-1.78,-1.8048,-1.8135,-1.8005,-1.8391,-1.8613,-1.8622,-1.9154,-1.9741,-2.036,-2.0824,-2.1305,-2.1849,-2.3286,-2.4025,-2.4218,-2.4762,-2.5061,-2.5163,-2.5264,-2.5298,-2.5298,-2.5298,-2.5317,-2.536,-2.5391,-2.544,-2.5512,0.0,0.0,0.0,0.0,0.0,0.0,0.0,0.0,0.0,-2.5206,-2.5313,-2.5298,-2.5298,-2.5298,-2.5298,0.0,0.0,0.0,-2.5298,0.0,0.0,0.0,0.0,0.0,0.0,0.0,0.0,0.0,0.0,0.0,-2.5703,0.0,0.0,-2.5703,0.0,0.0,0.0,-2.5703,-2.5703,-2.5703,-2.5703,-2.5671,-2.5618,-2.5603,-2.5572,-2.5508,-2.5431,-2.5396,-2.5387,-2.5322,0.0,0.0,0.0,0.0,-2.5736,-2.5898,-2.6537,-2.7182,-2.7095,-2.6008,-2.4507,-2.2884,-2.2389,-2.2296,-2.2296,-2.2296,-2.2282,-2.2194,-2.218,-2.2055,-2.1673,-2.1855,-2.1834,-2.1118,-2.1275,-2.1353,-2.0943,-2.0878,-2.0878,-2.0878,-2.1236,-2.1234,-2.0562,-2.0197,-1.9693,-1.8961,-1.8225,-1.78,-1.78,-1.8005,-1.8027,-1.7811,-1.8229,-1.8381,-1.8198,-1.842,-1.9017,-1.9993,-2.0029,-2.0515,-2.1399,-2.2373,-2.299,-2.3353,-2.4481,-2.498,-2.5016,-2.5214,-2.5298,-2.5298,-2.5298,-2.5298,-2.5313,-2.5357,-2.5385,-2.5424,0.0,0.0,0.0,0.0,0.0,0.0,0.0,0.0,0.0,0.0,-2.5339,-2.5298,-2.5298,-2.5298,-2.5298,-2.5298,-2.5298,-2.5298,0.0,0.0,0.0,0.0,0.0,0.0,0.0,0.0,0.0,0.0,0.0,-2.5703,-2.5703,-2.5703,-2.5703,-2.5703,0.0,0.0,0.0,-2.5703,-2.5703,-2.5703,-2.5703,-2.5693,-2.5683,-2.562,-2.5588,-2.5566,-2.544,-2.54,-2.5395,-2.5322,-2.5172,0.0,0.0,0.0,-2.5707,-2.5727,-2.6437,-2.7048,-2.6361,-2.5138,-2.3933,-2.3393,-2.2775,-2.2296,-2.2296,-2.2296,-2.2172,-2.1779,-2.1688,-2.1665,-2.1605,-2.1376,-2.115,-2.1015,-2.1047,-2.0926,-2.0466,-2.0391,-2.0391,-2.0391,-2.0805,-2.093,-2.0533,-2.0197,-1.9693,-1.8961,-1.8225,-1.78,-1.78,-1.7825,-1.7845,-1.78,-1.7869,-1.7995,-1.8198,-1.8248,-1.8561,-1.9163,-1.9337,-1.9503,-1.9655,-2.0496,-2.176,-2.3355,-2.4378,-2.4891,-2.5016,-2.5214,-2.5298,-2.5298,-2.5298,-2.5298,-2.5298,-2.5308,-2.5346,-2.5403,0.0,0.0,0.0,0.0,0.0,0.0,0.0,0.0,0.0,0.0,0.0,-2.5298,-2.5298,-2.5298,-2.5298,-2.5298,-2.5298,0.0,0.0,0.0,0.0,0.0,0.0,0.0,0.0,0.0,0.0,0.0,-2.5703,-2.5703,-2.5703,-2.5703,-2.5703,-2.5703,-2.5703,-2.5703,0.0,-2.5703,-2.5703,-2.5703,-2.5703,-2.5986,-2.6367,-2.5847,-2.5962,-2.6311,-2.5716,-2.5488,-2.545,-2.5377,-2.5274,-2.5152,-2.5044,0.0,0.0,0.0,-2.6327,-2.6838,-2.5967,-2.5455,-2.4905,-2.3699,-2.3156,-2.2818,-2.2389,-2.2106,-2.1846,-2.1635,-2.1212,-2.087,-2.087,-2.0935,-2.0837,-2.0345,-2.0457,-2.0457,-2.0017,-1.9965,-1.9965,-1.9965,-2.0339,-2.054,-2.0401,-1.9949,-1.9525,-1.9192,-1.8316,-1.78,-1.78,-1.78,-1.78,-1.78,-1.78,-1.7867,-1.7962,-1.7982,-1.8166,-1.8565,-1.8948,-1.9125,-1.9161,-2.0078,-2.0954,-2.1787,-2.2793,-2.358,-2.4179,-2.4379,-2.4791,-2.5298,-2.5298,-2.5298,-2.5298,-2.5298,-2.5317,-2.5356,0.0,0.0,0.0,0.0,0.0,0.0,0.0,0.0,0.0,0.0,0.0,-2.5298,-2.5298,0.0,0.0,0.0,-2.5298,0.0,0.0,0.0,0.0,0.0,0.0,0.0,0.0,0.0,0.0,0.0,-2.5703,-2.5703,-2.5703,-2.5703,-2.5703,-2.5703,-2.5703,-2.5703,-2.5703,-2.5703,-2.5703,-2.5723,-2.5937,-2.6416,-2.6953,-2.6523,-2.6758,-2.7236,-2.652,-2.6092,-2.5846,-2.5754,-2.5545,-2.5298,-2.5127,-2.5452,0.0,0.0,0.0,-2.6235,-2.5997,-2.5834,-2.5458,-2.438,-2.3752,-2.3211,-2.2544,-2.1994,-2.1545,-2.1329,-2.0749,-2.0263,-2.0176,-2.0431,-2.0456,-1.98,-1.9947,-2.0045,-1.9736,-1.97,-1.97,-1.97,-2.007,-2.0297,-2.0297,-1.9673,-1.9312,-1.9394,-1.8335,-1.7712,-1.78,-1.78,-1.78,-1.78,-1.78,-1.78,-1.78,-1.7869,-1.7995,-1.8217,-1.8734,-1.9001,-1.9028,-1.9827,-2.0199,-2.0261,-2.1464,-2.2433,-2.3147,-2.3607,-2.424,-2.4941,-2.5202,-2.5298,-2.5298,-2.5298,-2.5298,-2.5313,0.0,0.0,0.0,0.0,0.0,0.0,0.0,0.0,0.0,0.0,0.0,-2.5298,-2.5298,-2.5298,-2.5298,-2.5298,-2.5298,0.0,0.0,0.0,0.0,0.0,0.0,0.0,0.0,0.0,0.0,-2.5703,-2.5703,-2.5703,-2.5703,-2.5703,-2.5703,-2.5703,-2.5703,-2.5703,-2.5703,-2.5703,-2.5703,-2.5771,-2.6602,-2.6963,-2.709,-2.7871,-2.8193,-2.8222,-2.8113,-2.7526,-2.681,-2.668,-2.6081,-2.5383,-2.5312,-2.518,-2.5062,0.0,0.0,0.0,-2.6664,-2.5774,-2.4668,-2.5776,-2.4718,-2.327,-2.279,-2.2113,-2.1376,-2.0542,-2.0331,-2.0185,-1.9793,-1.9754,-1.9754,-1.9708,-1.9718,-1.9711,-1.97,-1.97,-1.97,-1.97,-2.007,-2.0297,-2.0297,-1.9474,-1.9058,-1.9381,-1.812,-1.7459,-1.778,-1.78,-1.78,-1.78,-1.78,-1.78,-1.78,-1.8048,-1.8196,-1.8217,-1.8734,-1.9001,-1.901,-1.9251,-1.9361,-1.9459,-2.123,-2.2034,-2.2172,-2.3318,-2.3827,-2.3968,-2.4932,-2.5298,-2.5298,-2.5298,-2.5298,-2.5298,0.0,0.0,0.0,0.0,0.0,0.0,0.0,0.0,0.0,0.0,0.0,0.0,0.0,-2.5298,-2.5298,-2.5298,-2.5298,0.0,0.0,0.0,0.0,0.0,0.0,0.0,0.0,0.0,-2.5539,-2.5645,-2.5683,-2.5703,-2.5703,-2.5703,-2.5703,-2.5703,-2.5703,-2.6006,-2.6504,-2.5937,-2.6348,-2.7353,-2.71,-2.7666,-2.8643,-2.8389,-2.8652,-2.9062,-2.8465,-2.8038,-2.7729,-2.7681,-2.7048,-2.6294,-2.6225,-2.5765,-2.5212,-2.4952,-2.5058,-2.5338,-2.5592,-2.5539,-2.539,-2.5422,-2.4928,-2.4125,-2.2969,-2.2303,-2.1609,-2.0527,-2.0089,-1.9874,-1.9736,-1.97,-1.97,-1.97,-1.97,-1.97,-1.97,-1.97,-1.97,-1.97,-1.9828,-1.9902,-1.9902,-1.9419,-1.8959,-1.8646,-1.7999,-1.7577,-1.7484,-1.7482,-1.7581,-1.7789,-1.78,-1.78,-1.78,-1.7903,-1.7938,-1.7949,-1.831,-1.8584,-1.8752,-1.9,-1.9182,-1.9341,-1.9986,-2.0634,-2.1272,-2.1843,-2.245,-2.3135,-2.414,-2.4529,-2.4591,-2.5106,-2.5298,-2.5298,0.0,0.0,0.0,-2.5488,0.0,-2.5549,-2.5683,-2.5525,-2.5421,-2.5493,0.0,0.0,0.0,0.0,-2.5298,-2.5298,-2.5298,0.0,0.0,0.0,0.0,0.0,0.0,0.0,0.0,0.0,-2.5529,-2.5602,-2.5671,-2.5703,-2.5703,-2.5703,-2.5703,-2.5703,-2.5703,-2.6016,-2.6533,-2.5947,-2.6367,-2.7432,-2.7432,-2.8135,-2.916,-2.917,-2.9531,-2.9961,-2.9385,-2.8963,-2.8671,-2.8643,-2.8029,-2.7203,-2.6816,-2.6091,-2.5296,-2.4974,-2.5122,-2.5351,-2.5166,-2.5344,-2.556,-2.5376,-2.4979,-2.4391,-2.3453,-2.2759,-2.2003,-2.0919,-2.0492,-2.0179,-1.9774,-1.97,-1.97,-1.97,-1.97,-1.97,-1.97,-1.97,-1.97,-1.97,-1.97,-1.97,-1.97,-1.9294,-1.8802,-1.8246,-1.7855,-1.753,-1.7305,-1.73,-1.7451,-1.7789,-1.78,-1.78,-1.78,-1.78,-1.78,-1.7791,-1.807,-1.8341,-1.8613,-1.8887,-1.911,-1.9297,-1.9297,-1.9682,-2.0326,-2.0799,-2.143,-2.2206,-2.3198,-2.3626,-2.3759,-2.4591,-2.4899,-2.4938,-2.6399,-2.593,-2.5417,-2.5488,-2.5501,-2.5549,-2.5683,-2.5533,-2.5428,-2.5491,0.0,0.0,0.0,0.0,0.0,-2.5298,-2.5298,-2.5298,-2.5298,0.0,0.0,0.0,0.0,0.0,0.0,0.0,0.0,0.0,0.0,0.0,-2.5703,-2.5703,-2.5703,-2.5703,-2.5703,-2.5703,-2.5703,-2.5703,-2.5742,-2.5957,-2.7598,-2.831,-2.8564,-3.0234,-3.0879,-3.0898,-3.0898,-3.0361,-2.9629,-2.9558,-2.8964,-2.8065,-2.7032,-2.6061,-2.5259,-2.5061,-2.491,-2.493,0.0,0.0,0.0,-2.5775,-2.4946,-2.3984,-2.4226,-2.3466,-2.2475,-2.166,-2.1475,-2.1113,-1.9921,-1.9708,-1.97,-1.97,-1.97,-1.97,-1.97,-1.97,-1.97,-1.97,-1.97,-1.97,-1.97,-1.9106,-1.8576,-1.8215,-1.7643,-1.7308,-1.7269,-1.7296,-1.7447,-1.7769,-1.7789,-1.78,-1.78,-1.78,-1.78,-1.7791,-1.8059,-1.833,-1.8603,-1.8878,-1.9101,-1.9289,-1.9306,-1.9297,-1.9384,-2.0354,-2.0883,-2.1165,-2.2168,-2.2637,-2.2874,-2.3744,-2.4062,-2.4163,-2.5606,-2.5481,-2.5357,-2.548,-2.5501,-2.5549,-2.5683,-2.5574,-2.5478,0.0,0.0,0.0,-2.5298,-2.5298,-2.5298,-2.5298,-2.5298,-2.5298,-2.5298,-2.5298,0.0,0.0,0.0,0.0,0.0,0.0,0.0,0.0,0.0,0.0,0.0,0.0,-2.5703,-2.5703,-2.5703,-2.5703,-2.5703,-2.5703,-2.6787,-2.8447,-2.7666,-2.8486,-3.0156,-3.0019,-3.0351,-3.0898,-3.0898,-3.0752,-3.0537,-3.0517,-2.993,-2.893,-2.7288,-2.613,-2.5318,-2.5071,-2.4965,-2.4929,-2.4846,0.0,0.0,0.0,0.0,0.0,-2.3656,-2.3277,-2.2708,-2.1399,-2.0872,-2.0537,-2.0197,-1.9892,-1.97,-1.97,-1.97,-1.97,-1.97,-1.97,-1.97,-1.97,-1.97,-1.97,-1.97,-1.9518,-1.8986,-1.7912,-1.7679,-1.7295,-1.6609,-1.7031,-1.7336,-1.7435,-1.767,-1.78,-1.78,-1.78,-1.78,-1.78,-1.788,-1.8048,-1.832,-1.8594,-1.8852,-1.9093,-1.9236,-1.9297,-1.9331,-1.9759,-2.0016,-2.0263,-2.1267,-2.1737,-2.1966,-2.2845,-2.3163,-2.3192,-2.5298,-2.5352,-2.5407,-2.5486,-2.5549,-2.5605,-2.5693,-2.5594,-2.5501,0.0,0.0,0.0,-2.5298,-2.5298,-2.5298,-2.5298,-2.5298,-2.5298,-2.5298,-2.5298,-2.5298,-2.5298,-2.5298,-2.5298,0.0,0.0,0.0,0.0,0.0,0.0,0.0,0.0,0.0,-2.5703,-2.5703,-2.5703,-2.5703,-2.5703,-2.6582,-2.792,-2.7256,-2.791,-2.9258,-2.9111,-2.9365,-2.9824,-2.9824,-2.9824,-2.9824,-2.9824,-2.9462,-2.8822,-2.7734,-2.6971,-2.6312,-2.5433,-2.5351,-2.5425,-2.4858,-2.4666,-2.4629,-2.4667,0.0,0.0,-2.3963,-2.3672,-2.318,-2.2135,-2.1585,-2.1163,-2.0688,-2.0398,-2.0243,-2.0243,-2.0077,-1.9884,-1.9711,-1.97,-1.97,-1.97,-1.97,-1.97,-1.97,-1.97,-1.9256,-1.8199,-1.7863,-1.7295,-1.6343,-1.6799,-1.7163,-1.7296,-1.7494,-1.7658,-1.78,-1.78,-1.78,-1.78,-1.78,-1.7938,-1.8217,-1.8361,-1.8584,-1.8852,-1.9076,-1.9165,-1.919,-1.9389,-1.957,-1.9782,-2.0418,-2.0716,-2.0895,-2.1833,-2.2168,-2.2273,0.0,-2.5396,-2.5491,-2.5501,-2.5603,-2.5693,-2.5703,-2.5594,-2.5501,0.0,-2.5379,-2.5298,-2.5298,-2.5298,-2.5298,-2.5298,-2.5298,-2.5298,-2.5298,-2.5298,-2.5298,-2.5298,-2.5298,-2.5298,-2.5298,0.0,0.0,0.0,0.0,0.0,0.0,0.0,0.0,0.0,-2.5703,-2.5703,-2.5703,-2.5703,-2.5703,-2.5761,-2.6543,-2.6973,-2.7217,-2.79,-2.8223,-2.8301,-2.8301,-2.8301,-2.8301,-2.8301,-2.8258,-2.8205,-2.8202,-2.8123,-2.7709,-2.6145,-2.6073,-2.6313,-2.5503,-2.5199,-2.5035,-2.4742,-2.4438,0.0,-2.4643,-2.4296,-2.3775,-2.3298,-2.2929,-2.2368,-2.1318,-2.1094,-2.1047,-2.1015,-2.0608,-2.0176,-1.9828,-1.9736,-1.97,-1.97,-1.97,-1.97,-1.97,-1.97,-1.9413,-1.8755,-1.8012,-1.7218,-1.6388,-1.6601,-1.6884,-1.7179,-1.7264,-1.7447,-1.7746,-1.7789,-1.78,-1.78,-1.78,-1.7916,-1.8165,-1.8196,-1.833,-1.8566,-1.8869,-1.9001,-1.9018,-1.9213,-1.9418,-1.9609,-1.9726,-1.9788,-1.9911,-2.0798,-2.1136,-2.1381,-2.5298,-2.5363,-2.5444,-2.5491,-2.5572,-2.5636,-2.5693,-2.5594,-2.5501,-2.5501,-2.5379,-2.5298,-2.5298,-2.5298,-2.5298,-2.5298,-2.5298,-2.5298,-2.5298,-2.5298,-2.5298,-2.5298,-2.5298,-2.5298,-2.5298,-2.5375,0.0,0.0,0.0,0.0,0.0,0.0,0.0,0.0,-2.5703,-2.5703,-2.5703,-2.5703,-2.5672,-2.5641,-2.5858,-2.6787,-2.7988,-2.7461,-2.7685,-2.8301,-2.8301,-2.8301,-2.8301,-2.8301,-2.8291,-2.827,-2.8217,-2.8182,-2.8074,-2.762,-2.7583,-2.7576,-2.72,-2.7067,-2.6839,-2.5937,-2.5664,0.0,-2.4375,-2.4078,-2.3822,-2.3312,-2.2894,-2.2468,-2.1986,-2.1619,-2.131,-2.1047,-2.0608,-2.028,-2.0185,-1.9902,-1.97,-1.97,-1.97,-1.97,-1.97,-1.97,-1.9413,-1.8755,-1.7586,-1.6825,-1.6631,-1.6484,-1.6429,-1.6493,-1.7019,-1.7332,-1.7392,-1.767,-1.78,-1.78,-1.78,-1.7833,-1.7892,-1.8102,-1.8229,-1.831,-1.8789,-1.9001,-1.9018,-1.9213,-1.9418,-1.9605,-1.9629,-1.9704,-1.9824,-2.0019,-2.0158,-2.0398,-2.5298,-2.5346,-2.5421,-2.5488,-2.5556,-2.5606,-2.5637,-2.5563,-2.5488,-2.5452,-2.5357,-2.5298,-2.5298,-2.5298,-2.5298,-2.5298,-2.5298,-2.5298,-2.5298,-2.5298,-2.5298,-2.5298,-2.5298,-2.5298,-2.5298,-2.5335,0.0,0.0,0.0,0.0,0.0,0.0,0.0,-2.5703,-2.5703,-2.5703,-2.5703,-2.5661,-2.5633,-2.5603,-2.5645,-2.6166,-2.6908,-2.6469,-2.659,-2.7002,-2.7002,-2.7002,-2.707,-2.751,-2.7646,-2.7646,-2.7614,-2.7878,-2.8102,-2.7605,-2.7709,-2.7966,-2.7846,-2.7784,-2.7493,-2.6423,-2.6157,0.0,0.0,-2.4118,-2.39,-2.3528,-2.2838,-2.2253,-2.2085,-2.1889,-2.1635,-2.13,-2.121,-2.114,-2.0975,-2.0235,-1.97,-1.97,-1.97,-1.97,-1.97,-1.97,-1.9413,-1.8755,-1.808,-1.7406,-1.6733,-1.6562,-1.6438,-1.6309,-1.6638,-1.6956,-1.73,-1.7479,-1.7627,-1.78,-1.78,-1.78,-1.7791,-1.7938,-1.8003,-1.8016,-1.843,-1.8688,-1.8816,-1.905,-1.9268,-1.9454,-1.9555,-1.9577,-1.9563,-1.9657,-1.9792,-2.0066,-2.5298,-2.5346,-2.5424,-2.5488,-2.5556,-2.5602,-2.5602,-2.5537,-2.5472,-2.5385,-2.5335,-2.5298,-2.5298,-2.5298,-2.5375,-2.5538,-2.5548,-2.5548,-2.5548,-2.5548,-2.5481,-2.5308,-2.5298,-2.5298,-2.5298,-2.5313,0.0,0.0,0.0,0.0,0.0,-2.5672,-2.5703,-2.5703,-2.5693,-2.5683,-2.5682,-2.5605,-2.5567,-2.5561,-2.5579,-2.5586,-2.5602,-2.5607,-2.5649,-2.5703,-2.5703,-2.5703,-2.581,-2.6514,-2.6855,-2.7002,-2.7002,-2.7564,-2.8075,-2.7359,-2.7571,-2.8046,-2.8016,-2.7969,-2.7675,-2.6642,-2.6369,-2.605,0.0,0.0,0.0,-2.3945,-2.3176,-2.252,-2.2447,-2.2275,-2.2107,-2.1916,-2.1932,-2.1919,-2.1811,-2.0774,-1.9992,-1.9828,-1.9818,-1.9782,-1.9708,-1.97,-1.9483,-1.8934,-1.8777,-1.8222,-1.7145,-1.683,-1.6593,-1.6385,-1.6329,-1.6586,-1.7199,-1.7264,-1.7471,-1.78,-1.78,-1.78,-1.78,-1.78,-1.78,-1.7803,-1.808,-1.8351,-1.8622,-1.8896,-1.9118,-1.9321,-1.9485,-1.944,-1.932,-1.9476,-1.9637,-1.9951,-2.5298,-2.5354,-2.5421,-2.5488,-2.5556,-2.5602,-2.5602,-2.5537,-2.545,-2.5331,-2.5298,-2.5298,-2.5298,-2.5298,-2.5606,-2.6375,-2.6447,-2.6447,-2.6447,-2.6447,-2.6106,-2.5327,-2.5298,-2.5298,-2.5298,0.0,0.0,0.0,0.0,0.0,0.0,0.0,-2.5703,-2.5703,-2.5636,-2.5606,-2.5614,-2.5545,-2.5478,-2.5431,-2.5488,-2.5551,-2.5614,-2.5671,-2.5693,-2.5703,-2.5703,-2.5703,-2.5723,-2.581,-2.6357,-2.7002,-2.7002,-2.7588,-2.826,-2.8096,-2.8109,-2.8158,-2.8104,-2.8043,-2.7774,-2.6881,-2.6612,-2.6279,-2.5193,0.0,-2.4853,-2.47,0.0,-2.4382,-2.4091,0.0,0.0,-2.3217,-2.2268,-2.1716,-2.2384,-2.18,-2.1022,-2.0323,-2.0229,-2.0089,-1.9729,-1.97,-1.967,-1.9595,-1.9039,-1.8618,-1.8485,-1.7346,-1.669,-1.666,-1.6422,-1.6482,-1.6845,-1.715,-1.7471,-1.78,-1.78,-1.78,-1.78,-1.78,-1.78,-1.7803,-1.808,-1.8351,-1.8622,-1.8896,-1.9118,-1.9297,-1.9329,-1.932,-1.9297,-1.9329,-1.9462,-1.9753,-2.5298,-2.5322,-2.5377,-2.5483,-2.5521,-2.5537,-2.5537,-2.5447,-2.5357,-2.5313,-2.5298,-2.5298,-2.5298,-2.575,-2.6202,-2.6572,-2.7063,-2.714,-2.663,-2.6601,-2.6438,-2.6067,-2.5567,-2.5538,-2.6038,-2.5591,0.0,0.0,-2.5485,0.0,0.0,0.0,-2.5703,-2.5703,-2.5672,-2.5645,-2.5599,-2.5525,-2.5458,-2.5413,-2.5472,-2.5517,-2.5552,-2.5618,-2.5671,-2.5703,-2.5703,-2.5703,-2.5703,-2.5703,-2.5937,-2.625,-2.625,-2.6504,-2.6894,-2.736,-2.7475,-2.7553,-2.803,-2.811,-2.7851,-2.6984,-2.6743,-2.6414,-2.5312,-2.5058,-2.5011,-2.4842,0.0,0.0,0.0,0.0,0.0,0.0,-2.316,-2.2938,-2.2496,-2.2555,-2.2253,-2.1131,-2.0814,-2.0533,-2.0097,-2.0472,-2.0457,-1.9748,-1.9446,-1.9106,-1.8725,-1.8162,-1.7496,-1.6719,-1.66,-1.6618,-1.6797,-1.6934,-1.728,-1.78,-1.78,-1.78,-1.78,-1.78,-1.78,-1.7811,-1.7916,-1.8123,-1.8391,-1.866,-1.8913,-1.9143,-1.9251,-1.9297,-1.9297,-1.9297,-1.9425,-1.9696,-2.5298,-2.5298,-2.5338,-2.5475,-2.5501,-2.5501,-2.5501,-2.5393,-2.5298,-2.5298,-2.5298,-2.5298,-2.5298,-2.5856,-2.6438,-2.6909,-2.7525,-2.7727,-2.7313,-2.7082,-2.6957,-2.6957,-2.5885,-2.5712,-2.6582,-2.575,-2.5298,-2.5298,-2.5421,0.0,0.0,0.0,-2.5683,-2.5703,-2.5683,-2.5645,-2.5574,-2.5501,-2.5434,-2.5377,-2.545,-2.5486,-2.5531,-2.5602,-2.566,-2.5703,-2.5703,-2.5703,-2.5703,-2.5703,-2.5703,-2.5703,-2.5703,-2.5703,-2.582,-2.6465,-2.6608,-2.6712,-2.7337,-2.7473,-2.7262,-2.6632,-2.6457,-2.6232,-2.5401,-2.5214,-2.5166,-2.5017,-2.4496,0.0,0.0,0.0,-2.361,-2.3625,0.0,-2.3816,-2.3088,-2.3365,-2.3104,-2.165,-2.1279,-2.0967,-2.0525,-2.1019,-2.0955,-1.9947,-1.9856,-1.96,-1.9019,-1.8799,-1.8169,-1.7018,-1.6793,-1.6724,-1.6797,-1.6802,-1.7142,-1.78,-1.78,-1.78,-1.78,-1.78,-1.78,-1.78,-1.78,-1.7949,-1.8218,-1.8489,-1.8761,-1.9027,-1.9221,-1.9297,-1.9297,-1.9297,-1.9396,-1.9583,-2.5298,-2.5298,-2.5338,-2.5475,-2.5501,-2.5501,-2.5501,-2.5393,-2.5298,-2.5298,-2.5298,-2.5298,-2.5298,-2.5317,-2.6019,-2.7707,-2.7886,-2.8222,-2.8973,-2.829,-2.7866,-2.7866,-2.6221,-2.5712,-2.6582,-2.575,-2.5298,-2.5298,-2.5369,-2.5441,0.0,0.0,0.0,0.0,-2.5633,-2.5572,-2.5501,-2.5434,-2.5361,-2.5313,-2.5381,-2.5483,-2.5603,-2.5672,-2.5703,-2.5703,-2.5703,-2.5703,-2.5703,-2.5703,-2.5703,-2.5703,-2.5703,-2.5703,-2.5713,-2.5732,-2.5742,-2.5742,-2.5771,-2.5726,-2.5668,-2.5648,-2.559,-2.5527,-2.5496,-2.5496,-2.5493,-2.5479,-2.5459,-2.5418,-2.5349,-2.4535,-2.4125,-2.4822,-2.4144,0.0,0.0,-2.4296,-2.3335,-2.1614,-2.1452,-2.1348,-2.1015,-2.0999,-2.0804,-2.0314,-2.028,-2.0099,-1.9688,-1.9046,-1.8379,-1.7699,-1.7048,-1.6724,-1.6797,-1.6802,-1.7142,-1.78,-1.78,-1.78,-1.78,-1.78,-1.78,-1.78,-1.78,-1.7949,-1.8218,-1.8489,-1.8761,-1.9027,-1.9221,-1.9297,-1.9297,-1.9297,-1.9297,-1.9305,-2.5298,-2.5298,-2.5338,-2.5475,-2.5982,-2.6547,-2.7133,-2.6621,-2.6154,-2.6154,-2.5663,-2.5298,-2.5298,-2.5808,-2.663,-2.7799,-2.8396,-2.8809,-2.9078,-2.8848,-2.8694,-2.8694,-2.7621,-2.7409,-2.8242,-2.7438,-2.6746,-2.6154,-2.6231,-2.6003,0.0,0.0,0.0,0.0,-2.5682,-2.5633,-2.5561,-2.5486,-2.5428,-2.5364,-2.5444,-2.5519,-2.5615,-2.5672,-2.5703,-2.5703,-2.5703,-2.5703,-2.5703,-2.5703,-2.5703,-2.5703,-2.5703,-2.5703,-2.5703,-2.5703,-2.5703,-2.5703,0.0,-2.5683,-2.5671,-2.5671,-2.5648,-2.562,-2.5579,-2.5572,-2.5554,-2.551,-2.5501,-2.5493,-2.547,-2.5187,-2.5033,-2.5227,-2.498,-2.4432,0.0,-2.2499,-2.1782,-2.1496,-2.1962,-2.2158,-2.1753,-2.1977,-2.1617,-2.0388,-2.0297,-2.0116,-1.9718,-1.9473,-1.8852,-1.7743,-1.7473,-1.7174,-1.6797,-1.6802,-1.7142,-1.7791,-1.7304,-1.7069,-1.7061,-1.6568,-1.6339,-1.6339,-1.6339,-1.6672,-1.7187,-1.6975,-1.7611,-1.8708,-1.8418,-1.8703,-1.9297,-1.9297,-1.9297,-1.9297,-2.5298,-2.5548,-2.5806,-2.5937,-2.6683,-2.7439,-2.7974,-2.7235,-2.6601,-2.6601,-2.5837,-2.5298,-2.5298,-2.5798,-2.6611,-2.7799,-2.8367,-2.8934,-2.9515,-2.9271,-2.9242,-2.9544,-2.8486,-2.828,-2.9078,-2.8309,-2.7467,-2.6601,-2.6641,-2.6259,-2.5501,0.0,0.0,0.0,-2.5703,-2.5661,-2.5599,-2.5525,-2.5458,-2.5407,-2.5472,-2.5535,-2.5615,-2.5672,-2.5703,-2.5703,-2.5703,-2.5498,-2.5293,-2.5596,-2.5488,-2.5293,-2.5596,-2.5703,-2.5644,-2.5332,-2.5244,-2.5166,-2.4863,-2.4775,0.0,-2.4775,-2.4775,-2.4853,-2.511,-2.5166,-2.5249,-2.5523,-2.5566,-2.5561,-2.5535,-2.5541,-2.5512,-2.5447,-2.5421,-2.4841,0.0,-2.2107,-2.1524,-2.172,-2.2268,-2.2427,-2.1933,-2.2378,-2.2163,-2.0862,-2.0633,-2.0356,-1.9945,-1.9782,-1.9084,-1.7743,-1.7706,-1.7349,-1.6623,-1.6738,-1.6958,-1.723,-1.6872,-1.6553,-1.629,-1.5825,-1.5595,-1.5595,-1.5595,-1.5876,-1.6285,-1.609,-1.6869,-1.8181,-1.7904,-1.841,-1.9297,-1.9297,-1.9297,-1.9297,-2.5365,-2.6101,-2.6765,-2.6894,-2.7604,-2.8145,-2.813,-2.7287,-2.6659,-2.6659,-2.5865,-2.5298,-2.5298,-2.5298,-2.5981,-2.7688,-2.7886,-2.8592,-3.0231,-2.9602,-2.9525,-3.0365,-2.8871,-2.8386,-2.9155,-2.8415,-2.7582,-2.6659,-2.6674,-2.6268,-2.5501,0.0,0.0,0.0,-2.5703,-2.5661,-2.5602,-2.5527,-2.5455,-2.5409,-2.547,-2.5535,-2.5615,-2.5672,-2.5703,-2.5703,-2.5703,-2.5137,-2.4531,-2.541,-2.5088,-2.4492,-2.5361,-2.5605,-2.541,-2.458,-2.4336,-2.416,-2.333,-2.3096,-2.3096,-2.3096,-2.3096,-2.332,-2.415,-2.4336,-2.457,-2.54,-2.5605,-2.5624,-2.555,-2.5585,-2.5583,-2.5515,-2.5414,-2.4982,-2.3962,-2.3108,-2.2513,-2.2251,-2.2408,-2.2275,-2.1574,-2.2189,-2.2337,-2.1614,-2.1235,-2.0821,-2.0331,-1.9937,-1.9119,-1.7743,-1.7706,-1.725,-1.6309,-1.6633,-1.66,-1.62,-1.6498,-1.6257,-1.5536,-1.5502,-1.5485,-1.5485,-1.5485,-1.5511,-1.5556,-1.5779,-1.651,-1.7506,-1.767,-1.8375,-1.9297,-1.9297,-1.9297,-1.9297,-2.6269,-2.7484,-2.8525,-2.8512,-2.8744,-2.913,-2.9763,-2.855,-2.7573,-2.7573,-2.624,-2.5298,-2.5298,-2.5298,-2.574,-2.6842,-2.7525,-2.8338,-2.9371,-2.9833,-3.0173,-3.0394,-2.999,-2.9846,-3.0058,-2.9856,-2.9044,-2.7573,-2.7615,-2.6916,-2.5503,0.0,0.0,0.0,-2.5703,-2.5693,-2.5671,-2.5552,-2.5455,-2.5409,-2.547,-2.5535,-2.5615,-2.5672,-2.5703,-2.5703,-2.5703,-2.5137,-2.4531,-2.541,-2.4717,-2.3652,-2.4473,-2.4316,-2.3799,-2.3574,-2.3506,-2.3457,-2.3242,-2.3144,-2.3096,-2.3096,-2.3144,-2.3232,0.0,0.0,-2.3496,-2.3721,-2.4277,-2.4726,-2.4706,-2.5243,-2.5649,-2.5594,-2.4965,-2.4395,-2.4072,-2.3197,-2.2573,-2.2513,-2.2856,-2.2665,-2.1601,-2.1697,-2.1614,-2.1122,-2.1312,-2.1118,-2.034,-2.0202,-1.94,-1.7743,-1.7706,-1.725,-1.6309,-1.6633,-1.66,-1.62,-1.5976,-1.5494,-1.4757,-1.4217,-1.3955,-1.3955,-1.3955,-1.4285,-1.4749,-1.4271,-1.5305,-1.7166,-1.6884,-1.7793,-1.9297,-1.9297,-1.9297,-1.9297,-2.7621,-2.8796,-2.9834,-3.0177,-2.9643,-2.9318,-2.981,-2.8756,-2.7761,-2.738,-2.6144,-2.5298,-2.5298,-2.5298,-2.5654,-2.6524,-2.7053,-2.7688,-2.8521,-2.9034,-2.9313,-2.9313,-2.9313,-2.9477,-2.9823,-2.9833,-2.9198,-2.7905,-2.7975,-2.7141,-2.5503,0.0,0.0,0.0,-2.5703,-2.5703,-2.5693,-2.5586,-2.5519,-2.5488,-2.5535,-2.5583,0.0,-2.5693,-2.5703,-2.5703,-2.5703,-2.4912,-2.3945,-2.4414,-2.3701,-2.2773,-2.3584,-2.3516,-2.3086,-2.2734,-2.2627,-2.2549,-2.2168,-2.2041,-2.2012,-2.2012,-2.2041,-2.2158,-2.2539,-2.2598,-2.2676,0.0,-2.3506,-2.3945,-2.4326,-2.4805,-2.5233,-2.5548,-2.5125,-2.462,-2.4204,-2.363,-2.3107,-2.2728,-2.2795,-2.2464,-2.1434,-2.1595,-2.1605,-2.1195,-2.1136,-2.0965,-2.0617,-2.0416,-1.9641,-1.8186,-1.7855,-1.73,-1.6488,-1.669,-1.6353,-1.5499,-1.5568,-1.5037,-1.4005,-1.3591,-1.3405,-1.3405,-1.3405,-1.3642,-1.3988,-1.3566,-1.4487,-1.6159,-1.6394,-1.7165,-1.8167,-1.8481,-1.8838,-1.9174,-2.9444,-3.0208,-3.0971,-3.1718,-3.0419,-2.9232,-2.9117,-2.8319,-2.7457,-2.6697,-2.5837,-2.5298,-2.5298,-2.5298,-2.5596,-2.6356,-2.6534,-2.6919,-2.7678,-2.7838,-2.7905,-2.7905,-2.7905,-2.828,-2.9078,-2.9098,-2.8713,-2.7905,-2.7979,-2.7151,-2.5503,0.0,0.0,-2.5703,-2.5703,-2.5703,-2.5683,-2.5621,-2.5602,-2.5602,-2.5602,-2.5636,-2.5703,-2.5703,-2.5703,-2.5674,-2.5449,-2.4434,-2.3203,-2.3252,-2.2578,-2.1865,-2.2685,-2.2861,-2.2637,-2.1934,-2.1728,-2.1562,-2.081,-2.0596,-2.0596,-2.0596,-2.0508,-2.0635,-2.1387,-2.1475,-2.1602,-2.2363,-2.2646,-2.2998,-2.376,-2.4082,-2.4528,-2.5444,-2.5442,-2.5095,-2.4441,-2.4287,-2.398,-2.322,-2.2833,0.0,-2.1491,-2.1853,-2.1944,-2.146,-2.1017,-2.0862,-2.107,-2.0649,-1.9902,-1.8827,-1.8083,-1.7408,-1.6788,-1.6792,-1.6074,-1.4663,-1.5298,-1.4835,-1.3405,-1.3405,-1.3405,-1.3405,-1.3405,-1.3405,-1.3405,-1.3405,-1.3989,-1.5014,-1.6101,-1.6544,-1.6666,-1.7392,-1.8131,-1.877,-3.2083,-3.2362,-3.2506,-3.266,-3.1295,-2.9929,-2.9213,-2.7803,-2.6774,-2.6621,-2.5837,-2.5298,-2.5298,-2.5298,-2.5365,-2.551,-2.6192,-2.6659,-2.6822,-2.7496,-2.7905,-2.7905,-2.7905,-2.828,-2.9078,-2.9098,-2.8713,-2.7905,-2.8016,-2.7205,-2.5503,-2.5632,-2.5693,-2.5703,-2.5703,-2.5672,-2.5618,-2.5604,-2.5602,-2.5602,-2.5602,-2.5636,-2.5703,-2.5703,-2.5703,-2.5518,-2.4131,-2.3408,-2.3232,-2.3926,-2.2676,-2.0977,-2.1836,-2.1621,-2.1006,-2.0869,-2.083,-2.0791,-2.0644,-2.0596,-2.0596,-2.0596,-2.0059,-1.957,-1.9717,-1.9199,-1.873,-1.8877,-2.0049,-2.1084,-2.124,-2.2398,-2.3807,-2.5282,-2.4901,-2.4592,-2.5042,-2.5101,-2.5029,-2.4885,-2.4575,-2.4021,-2.3166,-2.2693,-2.2014,-2.1005,-2.1789,-2.2075,-2.1528,-2.1094,-2.039,-1.9312,-1.8256,-1.7543,0.0,0.0,-1.6201,-1.5021,-1.5411,-1.4835,-1.3405,-1.3405,-1.3405,-1.3405,-1.3405,-1.3405,-1.3405,-1.3405,-1.3989,-1.4981,-1.5792,-1.6244,-1.6521,-1.7255,-1.7498,-1.7553,-3.2824,-3.3256,-3.3295,-3.2429,-3.0862,-2.9294,-2.7996,-2.6736,-2.5938,-2.597,-2.5577,-2.5313,-2.5351,-2.5322,-2.5298,-2.5298,-2.5683,-2.5933,-2.5933,-2.6317,-2.6553,-2.6553,-2.6553,-2.7159,-2.8453,-2.8507,-2.8343,-2.7947,-2.809,-2.7262,-2.5544,-2.5649,-2.5703,-2.5703,-2.5703,-2.5683,-2.5649,-2.5649,-2.5649,-2.5648,-2.5607,-2.5619,-2.5637,-2.5605,-2.5619,-2.5541,-2.473,-2.3875,-2.3027,-2.2578,-2.1611,-2.0674,-2.1094,-2.0937,-2.0596,-2.0596,-2.0596,-2.0596,-2.0596,-2.0273,-1.9932,-1.9932,-1.9268,-1.8633,-1.8633,-1.8301,-1.7998,-1.7998,-1.8672,-1.9531,-2.043,-2.2342,-2.3877,-2.4198,-2.4246,-2.4358,-2.4681,-2.47,-2.4788,-2.5109,-2.4942,-2.4249,-2.2856,-2.2745,-2.2385,-2.1494,-2.1475,-2.1527,-2.1609,-2.1423,-2.0863,0.0,0.0,0.0,-1.7767,0.0,-1.5854,-1.5098,-1.5044,-1.4453,-1.3405,-1.3405,-1.3405,-1.3405,-1.3405,-1.3405,-1.3405,-1.3405,-1.3733,-1.4255,-1.4621,-1.4825,-1.5043,-1.5816,-1.6192,-1.6523,-3.3179,-3.3574,-3.3449,-3.1958,-3.0125,-2.8422,-2.7078,-2.5986,-2.5344,-2.5391,-2.5334,-2.5326,-2.5389,-2.5338,-2.5298,-2.5298,-2.5298,-2.5298,-2.5298,-2.5298,-2.5298,-2.5298,-2.5298,-2.6044,-2.7614,-2.7876,-2.8007,-2.802,-2.814,-2.7502,-2.6149,-2.6033,-2.5977,-2.5977,-2.5977,-2.5869,-2.5703,0.0,-2.5703,-2.5703,-2.5636,-2.5607,-2.5588,-2.5535,-2.5544,-2.5582,-2.5386,-2.4484,-2.3115,-2.1435,-2.0752,-2.0596,-2.0596,-2.0596,-2.0596,-2.0596,-2.0596,-2.0596,-2.0596,-1.9961,-1.9297,-1.9297,-1.8506,-1.7725,-1.7725,-1.7578,-1.7451,-1.7451,-1.7588,-1.8311,-2.0244,-2.2059,0.0,-2.3101,-2.3433,-2.3822,-2.4127,-2.4133,-2.4317,-2.4933,-2.4716,-2.4004,-2.2658,-2.2658,-2.2644,-2.2378,-2.135,-2.1032,-2.1711,-2.165,-2.1298,0.0,-1.9155,-1.8337,-1.8217,0.0,-1.5455,-1.4967,-1.4644,-1.4115,-1.3405,-1.3346,-1.3346,-1.3405,-1.3337,-1.3346,-1.3405,-1.3405,-1.3453,-1.3555,-1.3555,-1.3555,-1.365,-1.4443,-1.5102,-1.5821,-3.408,-3.3506,-3.2737,-3.1852,-2.9713,-2.8028,-2.7815,-2.6422,-2.5389,-2.54,-2.5338,-2.5326,-2.5387,-2.5344,-2.5298,-2.5298,-2.5298,-2.5298,-2.5298,-2.5298,-2.5298,-2.5298,-2.5298,-2.5774,-2.6792,-2.7594,-2.8031,-2.8092,-2.816,-2.8118,-2.7937,-2.7224,-2.6885,-2.6885,-2.6885,0.0,0.0,-2.5703,-2.5703,-2.5703,-2.5693,-2.5649,-2.5601,-2.5588,-2.5588,-2.5503,-2.4712,-2.4357,-2.4023,-2.2344,-2.125,-2.0596,-2.0596,-2.0596,-2.0596,-2.0596,-2.0596,-2.0596,-2.0596,-1.9961,-1.9297,-1.9297,-1.8047,-1.6816,-1.6816,-1.6211,-1.5644,-1.5644,-1.6269,-1.7598,-2.0127,-2.0048,-2.035,-2.2639,-2.2307,-2.2307,-2.3887,-2.4095,-2.4317,-2.4933,-2.4182,-2.379,-2.4221,-2.2842,-2.2374,-2.3465,-2.2494,-2.1953,-2.2215,-2.1823,-2.1567,-2.1483,-1.948,-1.8355,-1.8298,-1.657,-1.5314,-1.4568,-1.4519,-1.4115,-1.3388,-1.3147,-1.3165,-1.3396,-1.3138,-1.3182,-1.3405,-1.3405,-1.3405,-1.3413,-1.3413,-1.3413,-1.3506,-1.4252,-1.4979,-1.5723,-3.2025,-3.2064,-3.1602,-2.9737,-2.8596,-2.7586,-2.6557,-2.5834,-2.5431,-2.551,-2.5431,-2.5402,-2.5515,-2.5421,-2.5363,-2.5354,-2.5354,-2.5359,-2.5363,-2.5402,-2.5424,-2.5424,-2.5424,-2.5845,-2.6744,-2.7651,-2.8132,-2.8156,-2.8227,-2.7994,-2.7467,-2.7148,-2.7002,-2.6982,0.0,-2.6025,-2.5703,-2.5703,-2.5682,-2.5645,-2.5599,-2.5545,-2.5475,-2.5444,-2.5437,-2.5437,-2.5132,-2.442,-2.3517,-2.2854,-2.2068,-2.1289,-2.0762,-2.0596,-2.0596,-2.0596,-2.0596,-2.0488,-1.9961,-1.918,-1.8389,-1.7871,-1.6816,-1.5918,-1.5918,-1.5654,-1.54,-1.54,-1.6094,-1.7021,-1.8072,-1.9179,-2.0101,-2.0578,-2.1168,-2.1788,-2.245,-2.299,-2.3328,-2.3366,-2.3911,-2.3915,-2.2969,-2.2655,-2.2648,-2.2963,-2.2376,-2.2168,-2.252,-2.2215,-2.1899,-2.1605,0.0,-1.8824,-1.8293,-1.6331,-1.498,-1.4257,-1.3968,-1.3598,-1.3164,-1.3049,-1.3058,-1.3156,-1.3217,-1.3294,-1.3405,-1.3405,-1.3405,-1.3405,-1.3405,-1.3405,-1.3439,-1.3735,-1.4589,-1.5637,-3.0471,-3.05,-2.9929,-2.788,-2.734,-2.6791,-2.5575,-2.5431,-2.5493,-2.5586,-2.5524,-2.5491,-2.5586,-2.5498,-2.5428,-2.5434,-2.5434,-2.5425,-2.5431,-2.5475,-2.5501,-2.5501,-2.5501,-2.5797,-2.6432,-2.7355,-2.7832,-2.7846,-2.7889,-2.7734,-2.7383,-2.7383,-2.7246,-2.6973,-2.6357,-2.5937,-2.5703,-2.5703,-2.5661,-2.5599,-2.5551,-2.5478,-2.5389,-2.5351,-2.5363,-2.541,-2.545,-2.4603,-2.3408,-2.3159,-2.2521,-2.1693,-2.0837,-2.0574,-2.0565,-2.0586,-2.0596,-2.041,-1.9541,-1.8662,-1.7793,-1.6924,-1.6035,-1.54,-1.54,-1.54,-1.54,-1.5399,-1.5887,-1.6393,-1.6631,-1.812,-1.9273,-1.9121,-2.0079,-2.0991,-2.1439,-2.1998,-2.2344,-2.2303,-2.3076,-2.3244,-2.2242,-2.2446,-2.2703,-2.2835,-2.2536,-2.245,-2.2695,-2.2245,-2.1821,0.0,0.0,0.0,-1.7847,-1.6003,-1.4648,-1.3775,-1.3433,-1.3139,-1.2887,-1.2961,-1.296,-1.2897,-1.3251,-1.3405,-1.3405,-1.3405,-1.3405,-1.3405,-1.3405,-1.3405,-1.3405,-1.3405,-1.4327,-1.5595,-3.0231,-2.9083,-2.7659,-2.6774,-2.6007,-2.5504,-2.5413,-2.5508,-2.5601,-2.5602,-2.5601,-2.5601,-2.5602,-2.5545,-2.5501,-2.5501,-2.5501,-2.5501,-2.5501,-2.5501,-2.5501,-2.5501,-2.5501,-2.5537,-2.5609,-2.6471,-2.6953,-2.7012,-2.7021,-2.7451,-2.8281,-2.8281,-2.7822,-2.7002,-2.6992,-2.6514,-2.5703,-2.5703,-2.5661,-2.5602,-2.5601,-2.5524,-2.5398,-2.5396,-2.54,-2.54,-2.5402,-2.4923,-2.4147,-2.3294,-2.2421,-2.1556,-2.0762,-2.0498,-2.0513,-2.0575,-2.0596,-2.041,-1.9541,-1.8662,-1.7793,-1.6924,-1.6035,-1.54,-1.54,-1.54,-1.54,-1.5399,-1.5414,-1.5662,-1.6449,-1.6575,-1.7108,-1.8825,0.0,-1.9615,-2.1273,-2.1397,-2.156,-2.2218,-2.1432,-2.1406,-2.285,-2.2272,-2.2328,-2.3587,-2.3374,-2.304,-2.2721,-2.1754,-2.1207,-2.1216,-1.9393,0.0,-1.6731,-1.5637,-1.44,-1.3012,-1.3013,-1.2861,-1.261,-1.2879,-1.2861,-1.263,-1.3174,-1.3405,-1.3405,-1.3405,-1.3405,-1.3405,-1.3405,-1.3405,-1.3405,-1.3405,-1.4327,-1.5595,-2.7871,-2.738,-2.6752,-2.5924,-2.5593,-2.5462,-2.5531,-2.5566,-2.5618,-2.5661,-2.5671,-2.5671,-2.5671,-2.5605,-2.5574,-2.5574,-2.5574,-2.5574,-2.5574,-2.5606,-2.5645,-2.5645,-2.5645,-2.5648,-2.5671,-2.6521,-2.6981,-2.7002,-2.7002,0.0,-2.7402,-2.6807,-2.6699,-2.6973,-2.6377,-2.5957,-2.5703,-2.5649,-2.5588,-2.5525,-2.5483,-2.541,-2.5326,-2.533,-2.533,-2.5344,-2.5385,-2.4509,-2.3297,-2.3032,-2.1964,-2.0703,-2.0439,-2.0395,-2.0445,-2.0458,-2.0461,-2.0149,-1.8726,-1.8144,-1.7588,-1.6174,-1.5608,-1.5403,-1.5403,-1.5356,-1.5334,-1.5334,-1.5331,-1.5409,-1.567,-1.6633,-1.7547,-1.8056,-1.9118,-2.0067,-2.0606,-2.1039,-2.1332,-2.14,-2.2058,-2.2626,-2.2969,-2.3263,-2.3507,-2.3697,-2.3392,-2.3048,-2.2721,-2.1746,0.0,0.0,-1.9109,0.0,-1.6716,-1.5179,-1.3851,-1.2723,-1.2723,-1.259,-1.2334,-1.2786,-1.2851,-1.263,-1.3174,-1.3405,-1.3405,-1.3405,-1.3405,-1.3379,-1.3199,-1.3129,-1.3161,-1.3445,-1.4153,-1.5052,-2.664,-2.6357,-2.5988,-2.5494,-2.5441,-2.5503,-2.5586,-2.562,-2.5649,-2.5693,-2.5703,-2.5703,-2.5703,-2.5661,-2.5635,-2.5635,-2.5635,-2.5635,-2.5635,-2.5682,-2.5703,-2.5703,-2.5703,-2.5703,-2.5703,-2.623,0.0,-2.6514,-2.6514,-2.6514,-2.6504,-2.5947,-2.5986,-2.6494,-2.5937,-2.5703,-2.5703,-2.5633,-2.5559,-2.5486,-2.5425,-2.5363,-2.5298,-2.5298,-2.5298,-2.5308,-2.5352,-2.4499,-2.3354,-2.3346,-2.2192,-2.0752,-2.0752,-2.0569,-2.0368,-2.0386,-2.0399,-2.0097,-1.8722,-1.8127,-1.757,-1.6186,-1.5603,-1.5363,-1.5363,-1.533,-1.5301,-1.5305,-1.5302,-1.5286,-1.5265,-1.6388,-1.74,-1.7658,-1.8892,-1.9906,-2.0149,-2.0499,-2.0784,-2.0909,-2.1708,-2.2453,-2.2951,-2.3446,-2.3687,-2.3517,-2.3059,-2.2596,-2.216,0.0,-2.061,-2.0344,-1.8423,-1.6898,-1.5884,-1.469,-1.3593,-1.2601,-1.2406,-1.2205,-1.2055,-1.25,-1.2665,-1.262,-1.2953,-1.3156,-1.3251,-1.3251,-1.3191,-1.3095,-1.3032,-1.2933,-1.2882,-1.3127,-1.3853,-1.4756,-2.6346,-2.5906,-2.5402,-2.5409,-2.551,-2.5602,-2.5614,-2.566,-2.5703,-2.5703,-2.5703,-2.5703,-2.5703,-2.5703,-2.5703,-2.5703,0.0,-2.5703,-2.5703,-2.5703,-2.5703,-2.5703,-2.5703,-2.5703,-2.5703,-2.5703,-2.5703,-2.5703,-2.5703,-2.5703,-2.5703,-2.5703,-2.5703,-2.5703,-2.5703,-2.5703,-2.5693,-2.562,-2.5546,-2.5488,-2.5421,-2.536,-2.5298,-2.5298,-2.5298,-2.5298,-2.5298,-2.4784,-2.41,-2.41,-2.2942,-2.1504,-2.1504,-2.0952,-2.0307,-2.0374,-2.0388,-2.0202,-1.933,-1.8547,-1.7763,-1.6834,-1.5935,-1.5301,-1.5289,-1.5287,-1.5286,-1.5285,-1.5293,-1.5294,-1.5293,-1.6003,-1.6853,-1.7661,-1.8561,-1.9346,-1.9921,-1.9969,-2.0183,-2.0814,-2.0712,0.0,-2.2923,-2.3006,-2.3014,-2.3123,-2.2474,-2.1782,0.0,0.0,-1.9592,-1.8843,-1.7391,-1.5944,-1.4512,-1.4161,-1.3515,-1.2543,-1.2037,-1.1797,-1.1808,-1.2084,-1.2352,-1.2601,-1.2601,-1.2751,-1.2996,-1.2978,-1.2833,-1.262,-1.2851,-1.282,-1.2652,-1.267,-1.3537,-1.4715,-2.5567,-2.5495,-2.5421,-2.5464,-2.5537,-2.5618,-2.5672,-2.5693,-2.5703,-2.5703,-2.5703,-2.5703,-2.5703,-2.5703,-2.5703,-2.5703,-2.5703,-2.5703,-2.5703,-2.5703,-2.5703,-2.5703,-2.5703,-2.5703,-2.5703,-2.5703,-2.5703,-2.5703,-2.5703,-2.5703,-2.5703,-2.5703,-2.5703,-2.5703,-2.5703,-2.5672,-2.5619,-2.5554,-2.5476,-2.5415,-2.5351,-2.5313,-2.5298,-2.5298,-2.5298,-2.5298,-2.5298,-2.4784,-2.41,-2.41,-2.2942,-2.1504,-2.1504,-2.0952,-2.03,-2.0316,-2.032,-2.0127,-1.9262,-1.8919,-1.845,-1.6909,-1.5906,-1.5289,-1.5238,-1.5216,-1.5223,-1.5224,-1.5221,-1.5417,-1.6073,-1.6862,-1.7699,-1.8549,-1.9812,-2.0518,-2.006,-2.0853,-2.1539,-2.1699,-2.158,-2.2125,-2.3758,-2.3127,-2.2549,0.0,-2.1958,-2.1307,-2.0336,-1.9579,-1.8826,-1.8079,-1.6627,-1.5418,-1.4512,-1.3468,-1.2633,-1.1992,-1.1862,-1.1797,-1.1808,-1.2084,-1.2352,-1.2601,-1.2601,-1.2751,-1.2978,-1.2778,-1.2666,-1.2591,-1.2433,-1.2663,-1.3098,-1.3405,-1.4053,-1.484,-2.5339,-2.5396,-2.5467,-2.5531,-2.5602,-2.566,-2.5693,-2.5703,-2.5703,-2.5703,-2.5703,-2.5703,-2.5703,-2.5703,-2.5703,-2.5703,-2.5703,-2.5703,-2.5703,-2.5703,-2.5703,-2.5703,-2.5703,-2.5703,-2.5703,-2.5703,-2.5703,-2.5703,-2.5703,-2.5703,-2.5703,-2.5703,-2.5703,-2.5703,-2.5671,-2.5634,-2.5588,-2.5496,-2.5428,-2.5392,-2.5331,-2.5298,-2.5298,-2.5298,-2.5298,-2.5298,-2.5298,-2.5019,-2.4649,-2.4649,-2.3778,-2.2624,-2.2216,-2.1523,-2.0779,-2.0413,-2.0298,-2.0202,-1.9715,-1.9331,-1.8638,-1.693,-1.587,-1.5245,-1.5211,-1.5202,-1.5202,-1.5202,-1.5519,-1.5936,-1.6407,-1.7811,-1.9014,-1.9401,-2.0771,-2.1458,-2.0499,-2.1309,-2.1829,-2.1363,-2.1596,-2.2098,-2.2857,-2.2358,-2.1828,-2.14,-2.0886,0.0,-1.9046,-1.8302,-1.7712,-1.7304,-1.6187,-1.5032,-1.3835,-1.2887,-1.2213,-1.1797,-1.1797,-1.1797,-1.1797,-1.1947,-1.2151,-1.2414,-1.2286,-1.2394,-1.2617,-1.2481,-1.2336,-1.2235,-1.221,-1.2348,-1.2616,-1.3151,-1.3765,-1.4438,-2.5402,-2.5464,-2.5529,-2.5587,-2.5659,-2.5703,-2.5703,-2.5703,-2.5703,-2.5703,-2.5703,-2.5703,-2.5703,-2.5703,-2.5703,-2.5703,-2.5703,-2.5703,-2.5703,-2.5703,-2.5703,-2.5703,-2.5703,-2.5703,-2.5703,-2.5703,-2.5703,-2.5703,-2.5703,-2.5703,-2.5703,-2.5703,-2.5703,-2.5703,-2.5633,-2.5588,-2.5579,-2.545,-2.5392,-2.5379,-2.5322,-2.5298,-2.5298,-2.5298,-2.5298,-2.5298,-2.5298,-2.5298,-2.5298,-2.5298,-2.4774,-2.3946,-2.3067,-2.2197,-2.1341,-2.0538,-2.0298,-2.0298,-2.0298,-1.9567,-1.8462,-1.7042,-1.5926,-1.5202,-1.5202,-1.5202,-1.5202,-1.5202,-1.5888,-1.6529,-1.6628,-1.8628,-2.0233,-2.0167,-2.1531,-2.2228,-2.1133,0.0,-2.1786,-2.0803,-2.1226,-2.1551,-2.1405,-2.114,-2.0744,-2.021,-1.9434,-1.8551,-1.7518,-1.6874,-1.6477,-1.6367,-1.5718,-1.457,-1.2894,-1.2429,-1.2073,-1.1797,-1.1797,-1.1797,-1.1797,-1.1797,-1.1947,-1.2187,-1.1915,-1.1947,-1.2197,-1.2156,-1.201,-1.1819,-1.2052,-1.2061,-1.2029,-1.2699,-1.3381,-1.4057,-2.547,-2.5543,-2.5586,-2.5601,-2.5659,-2.5703,-2.5703,-2.5703,-2.5703,-2.5703,-2.5703,-2.5703,-2.5703,-2.5703,-2.5703,-2.5703,-2.5703,-2.5703,-2.5703,-2.5703,-2.5703,-2.5703,-2.5703,-2.5703,-2.5703,-2.5703,-2.5703,-2.5703,-2.5703,-2.5703,-2.5703,-2.5703,-2.5703,-2.5703,-2.5633,-2.5574,-2.551,-2.5428,-2.5369,-2.5308,-2.5293,-2.5298,-2.5298,-2.5298,-2.5298,-2.5298,-2.5298,-2.5298,-2.5298,-2.5298,-2.4774,-2.3946,-2.3067,-2.2197,-2.1341,-2.0538,-2.0298,-2.0298,-2.0298,-1.9129,-1.7843,-1.7584,-1.6349,-1.5202,-1.5202,-1.5202,-1.5202,-1.5202,-1.5888,-1.6669,-1.7239,-1.883,-2.0218,-2.0754,-2.2107,-2.2786,-2.1931,0.0,-2.2528,-2.1702,-2.107,-2.0893,-2.1351,-1.9971,-1.8928,-1.8659,-1.7707,-1.6768,-1.5976,-1.5824,-1.5485,-1.4858,-1.451,-1.3692,-1.2337,-1.2238,-1.2073,-1.1797,-1.1797,-1.1797,-1.1797,-1.1797,-1.1947,-1.2187,-1.1915,-1.1947,-1.2177,-1.1958,-1.184,-1.1797,-1.1851,-1.2178,-1.2729,-1.3398,-1.4072,-1.4743,-2.5535,-2.5584,-2.5609,-2.5647,-2.5683,-2.5703,-2.5703,-2.5703,-2.5703,-2.5703,-2.5703,-2.5703,-2.5703,-2.5703,-2.5703,-2.5703,-2.5703,-2.5703,-2.5703,-2.5703,-2.5703,-2.5703,-2.5703,-2.5703,-2.5703,-2.5703,-2.5703,-2.5703,-2.5703,-2.5703,-2.5703,-2.5661,-2.5648,-2.5636,-2.5541,-2.5479,-2.5441,-2.5368,-2.5335,-2.5298,-2.5298,-2.5298,-2.5298,-2.5298,-2.5298,-2.5298,-2.5298,-2.5298,-2.5298,-2.5298,-2.5048,-2.4524,-2.3211,-2.2518,-2.1947,-2.0673,-2.0298,-2.0298,-2.0298,-1.9369,-1.8289,-1.7815,-1.6792,-1.5782,-1.5308,-1.5202,-1.5299,-1.5662,-1.6429,-1.7239,-1.7923,-1.9792,-2.1164,-2.0926,-2.2577,-2.3274,-2.1456,-2.2242,-2.2373,-2.0656,-2.0032,-1.9627,-1.9327,-1.8029,-1.7101,-1.6858,-1.639,-1.5791,-1.5054,-1.5002,-1.46,-1.3725,-1.3426,-1.2939,-1.2215,-1.2063,-1.1926,-1.1797,-1.1797,-1.1797,-1.1797,-1.1797,-1.1873,-1.1979,-1.1851,-1.1873,-1.1971,-1.1851,-1.1797,-1.1797,-1.1797,-1.2212,-1.2883,-1.3555,-1.4221,-1.4901,-2.5606,-2.5625,-2.5639,-2.5693,-2.5703,-2.5703,-2.5703,-2.5703,-2.5703,-2.5703,-2.5703,-2.5703,-2.5703,-2.5703,-2.5703,-2.5703,-2.5703,-2.5703,-2.5703,-2.5703,-2.5703,-2.5703,-2.5703,-2.5703,-2.5703,-2.5683,-2.5682,-2.5682,-2.5661,-2.5649,-2.5649,-2.5602,-2.5579,-2.5566,-2.5447,-2.5402,-2.5404,-2.5331,-2.5298,-2.5298,-2.5298,-2.5298,-2.5298,-2.5298,-2.5298,-2.5298,-2.5298,-2.5298,-2.5298,-2.5298,-2.5298,-2.5038,-2.3576,-2.3095,-2.2768,-2.1081,-2.0407,-2.0241,-2.0294,-1.9661,-1.8838,-1.817,-1.7253,-1.6317,-1.5619,-1.5299,-1.5353,-1.6041,-1.6855,-1.7658,-1.8334,-2.0377,-2.1674,-2.0865,0.0,-2.3152,-2.1095,-2.174,-2.1631,-1.9507,-1.8976,-1.8362,-1.7267,-1.63,-1.5633,-1.5361,-1.5189,-1.4834,-1.4267,-1.4196,-1.3738,-1.2839,-1.2609,-1.2384,-1.2115,-1.1905,-1.1797,-1.1797,-1.1797,-1.1797,-1.1797,-1.1797,-1.1797,-1.1797,-1.1797,-1.1797,-1.1812,-1.1973,-1.2029,-1.2044,-1.2201,-1.2575,-1.3111,-1.3787,-1.4363,-1.4901,-2.5683,-2.5693,-2.5693,-2.5703,-2.5703,-2.5703,-2.5703,-2.5703,-2.5703,-2.5703,-2.5703,-2.5703,-2.5703,-2.5703,-2.5703,-2.5703,-2.5703,-2.5703,-2.5703,-2.5703,-2.5703,-2.5703,-2.5703,-2.5703,-2.5703,-2.5636,-2.5615,-2.5615,-2.5549,-2.5515,-2.5515,-2.551,-2.5508,-2.5496,-2.5434,-2.54,-2.5402,-2.5335,-2.5298,-2.5298,-2.5298,-2.5298,-2.5298,-2.5298,-2.5298,-2.5298,-2.5298,-2.5298,-2.5298,-2.5298,-2.5298,-2.5154,-2.4279,-2.4004,-2.3653,-2.1918,-2.075,-2.0055,-2.0255,-1.9661,-1.8982,-1.8923,-1.7692,-1.6445,-1.6262,-1.5594,-1.5217,-1.596,-1.6748,-1.7523,-1.8183,-1.9745,-2.083,-2.0558,0.0,0.0,-2.173,-2.1125,-2.0288,-1.9244,-1.8387,-1.7425,-1.6229,-1.5427,-1.4865,-1.4598,-1.3955,-1.354,-1.3481,-1.3256,-1.2843,-1.2279,-1.2238,-1.2097,-1.183,-1.1808,-1.1797,-1.1797,-1.1797,-1.1797,-1.1797,-1.1797,-1.1797,-1.1797,-1.1797,-1.1797,-1.185,-1.2467,-1.2733,-1.2789,-1.3413,-1.3677,-1.3817,-1.4476,-1.4766,-1.4901,-2.5693,-2.5703,-2.5703,-2.5703,-2.5703,-2.5703,-2.5703,-2.5703,-2.5703,-2.5703,-2.5703,-2.5703,-2.5703,-2.5703,-2.5703,-2.5703,-2.5703,-2.5703,-2.5703,-2.5661,-2.566,-2.5703,-2.566,-2.5636,-2.5636,-2.5567,-2.5543,-2.5543,-2.5512,-2.5501,-2.5501,-2.5462,-2.5438,-2.5438,-2.5365,-2.5344,-2.5339,-2.5308,-2.5298,-2.5298,-2.5298,-2.5298,-2.5298,-2.5298,-2.5298,-2.5298,-2.5298,-2.5298,-2.5298,-2.5298,-2.5298,-2.5163,-2.4346,-2.4015,-2.3558,-2.1725,-2.0572,-1.989,-1.9971,-1.9744,-1.9402,-1.8975,-1.8301,-1.7473,-1.6426,-1.592,-1.588,-1.6577,-1.6958,-1.7534,-1.8696,-1.9848,-2.0432,-1.9856,0.0,-2.1262,-1.9721,-1.9577,-1.9105,-1.7718,-1.6633,-1.582,-1.5357,-1.4494,-1.3931,-1.3828,-1.3557,-1.3329,-1.3156,-1.2739,-1.2402,-1.2208,-1.2042,-1.1905,-1.1797,-1.1797,-1.1797,-1.1797,-1.1797,-1.1797,-1.1797,-1.1797,-1.2033,-1.2422,-1.2422,-1.2422,-1.2467,-1.3136,-1.3186,-1.2876,-1.354,-1.4057,-1.4446,-1.4713,-1.4877,-1.5023,-2.5703,-2.5703,-2.5703,-2.5703,-2.5703,-2.5703,-2.5703,-2.5703,-2.5703,-2.5703,-2.5703,-2.5703,-2.5703,-2.5703,-2.5703,-2.5703,-2.5703,-2.5693,-2.5672,-2.5614,-2.5586,-2.5645,-2.5588,-2.5574,-2.5574,-2.5503,-2.547,-2.547,-2.5453,-2.5438,-2.5438,-2.5387,-2.5371,-2.5365,-2.5317,-2.5298,-2.5298,-2.5298,-2.5298,-2.5298,-2.5298,-2.5298,-2.5298,-2.5298,-2.5298,-2.5298,-2.5298,-2.5264,-2.5208,-2.5208,-2.5176,-2.5048,-2.4483,-2.3862,-2.3063,-2.1711,-2.0568,-1.9741,-1.9741,-1.9685,-1.9557,-1.9203,-1.8806,-1.8143,-1.6763,-1.6231,-1.6156,-1.6576,-1.6667,-1.7046,-1.8311,-1.8997,-1.919,-1.8638,-1.951,-1.965,-1.7877,-1.8024,-1.7761,-1.6253,-1.5379,-1.4783,-1.4458,-1.3803,-1.3405,-1.3405,-1.332,-1.3112,-1.2776,-1.24,-1.2156,-1.2084,-1.1894,-1.1797,-1.1797,-1.1797,-1.1797,-1.1797,-1.1797,-1.1797,-1.1805,-1.2025,-1.2362,-1.2816,-1.3021,-1.3111,-1.3171,-1.384,-1.384,-1.3485,-1.4174,-1.4611,-1.4893,-1.4893,-1.4899,-1.4914,-2.5703,-2.5703,-2.5703,-2.5703,-2.5703,-2.5703,-2.5703,-2.5703,-2.5703,-2.5703,-2.5703,-2.5703,-2.5703,-2.5703,-2.5703,-2.5703,-2.5703,-2.5672,-2.5603,-2.5541,-2.5501,-2.5498,-2.5501,-2.5501,-2.5501,-2.5428,-2.54,-2.54,-2.5335,-2.5298,-2.5298,-2.5298,-2.5298,-2.5298,-2.5298,-2.5298,-2.5298,-2.5298,-2.5298,-2.5298,-2.5298,-2.5298,-2.5298,-2.5293,-2.5303,-2.5303,-2.5303,-2.5172,-2.4995,-2.4995,-2.491,-2.4804,-2.4797,-2.3648,-2.2269,-2.206,-2.0858,-1.9608,-1.9598,-1.9447,-1.9385,-1.9713,-1.9145,-1.8281,-1.7401,-1.6532,-1.5874,-1.5729,-1.5698,-1.594,-1.6752,-1.6902,-1.6902,-1.6902,-1.6902,-1.6819,-1.6626,-1.6587,-1.6153,-1.503,-1.4886,-1.4501,-1.3498,-1.3405,-1.3405,-1.3405,-1.3147,-1.2758,-1.2228,-1.2197,-1.2066,-1.1808,-1.1797,-1.1797,-1.1797,-1.1797,-1.1797,-1.1797,-1.1797,-1.1797,-1.182,-1.249,-1.2801,-1.2853,-1.3518,-1.3805,-1.3857,-1.4528,-1.4803,-1.4871,-1.5544,-1.5514,-1.5119,-1.5104,-1.4845,-1.4501,-2.5703,-2.5703,-2.5703,-2.5703,-2.5703,-2.5703,-2.5703,-2.5703,-2.5703,-2.5703,-2.5703,-2.5703,-2.5703,-2.5703,-2.5683,-2.5634,-2.5633,-2.5582,-2.5467,-2.5437,-2.541,-2.5363,-2.5397,-2.5431,-2.5434,-2.5357,-2.5326,-2.5326,-2.5308,-2.5298,-2.5298,-2.5298,-2.5298,-2.5298,-2.5298,-2.5298,-2.5298,-2.5298,-2.5298,-2.5298,-2.5298,-2.5298,-2.5279,-2.5137,-2.5094,-2.5077,-2.4981,-2.491,-2.4853,-2.4853,-2.4828,-2.4775,-2.4631,-2.3863,-2.2852,-2.208,-2.1085,-2.0111,-1.9536,-1.9352,-1.9357,-1.9597,-1.9362,-1.8698,-1.7309,-1.6785,-1.6435,-1.5824,-1.5591,-1.5739,-1.6541,-1.6608,-1.6551,-1.6551,-1.6551,-1.6312,-1.5642,-1.5475,-1.5051,-1.4098,-1.3902,-1.3735,-1.343,-1.3405,-1.332,-1.3129,-1.2701,-1.237,-1.2208,-1.2021,-1.1883,-1.1797,-1.1797,-1.1797,-1.1797,-1.1797,-1.1797,-1.1797,-1.1797,-1.1797,-1.182,-1.249,-1.3059,-1.354,-1.4206,-1.4498,-1.4543,-1.5223,-1.5215,-1.4871,-1.5544,-1.5704,-1.5544,-1.521,-1.4845,-1.4454,-2.5703,-2.5703,-2.5703,-2.5703,-2.5703,-2.5703,-2.5703,-2.5703,-2.5703,-2.5703,-2.5703,-2.5693,-2.5661,-2.566,-2.5634,-2.5572,-2.5541,-2.5486,-2.5413,-2.5377,-2.5343,-2.5298,-2.5334,-2.5363,-2.5354,-2.5317,-2.5298,-2.5298,-2.5298,-2.5298,-2.5298,-2.5298,-2.5298,-2.5298,-2.5298,-2.5298,-2.5298,-2.5298,-2.5249,-2.5183,-2.5183,-2.515,-2.5097,-2.4971,-2.492,-2.4917,-2.483,-2.4753,-2.4678,-2.4678,-2.4632,-2.4536,-2.4418,-2.3828,-2.3061,-2.2444,-2.1428,-2.0392,-1.9913,-1.9537,-1.9327,-1.9447,-1.9389,-1.8967,-1.7667,-1.7128,-1.667,-1.5866,-1.5297,-1.5072,-1.5559,-1.5522,-1.541,-1.541,-1.541,-1.5202,-1.4589,-1.4446,-1.417,-1.3593,-1.3454,-1.3405,-1.3405,-1.3405,-1.3243,-1.287,-1.2441,-1.2156,-1.2052,-1.1894,-1.1797,-1.1797,-1.1797,-1.1797,-1.1797,-1.1797,-1.1797,-1.1797,-1.1797,-1.1797,-1.182,-1.249,-1.3171,-1.3834,-1.4315,-1.4667,-1.4947,-1.5352,-1.5286,-1.4976,-1.557,-1.5595,-1.5247,-1.4975,-1.4485,-1.3944,-2.5703,-2.5703,-2.5703,-2.5703,-2.5703,-2.5703,-2.5703,-2.5703,-2.5703,-2.5703,-2.5693,-2.5671,-2.5614,-2.559,-2.5561,-2.5498,-2.5431,-2.5395,-2.5387,-2.533,-2.5298,-2.5298,-2.5298,-2.5298,-2.5298,-2.5298,-2.5298,-2.5298,-2.5298,-2.5298,-2.5298,-2.5298,-2.5298,-2.5298,-2.5298,-2.5288,-2.5269,-2.5269,-2.5157,-2.4977,-2.4977,-2.491,-2.4797,-2.4782,-2.4775,-2.4775,-2.4753,-2.4623,-2.4469,-2.4469,-2.4357,-2.4199,-2.4199,-2.3703,-2.3088,-2.3024,-2.1924,-2.0686,-2.0539,-1.9968,-1.939,-1.9301,-1.9266,-1.9065,-1.8251,-1.7502,-1.6744,-1.5907,-1.4951,-1.425,-1.425,-1.4037,-1.3856,-1.3856,-1.3856,-1.3798,-1.3609,-1.3586,-1.3541,-1.3404,-1.3405,-1.3405,-1.3405,-1.3363,-1.3113,-1.2601,-1.2322,-1.2063,-1.1808,-1.1797,-1.1797,-1.1797,-1.1797,-1.1797,-1.1797,-1.1797,-1.1797,-1.1797,-1.1797,-1.1827,-1.191,-1.2579,-1.3261,-1.3904,-1.41,-1.4544,-1.5104,-1.5051,-1.5051,-1.5089,-1.5514,-1.5195,-1.4501,-1.4454,-1.3944,-1.326,-2.5703,-2.5703,-2.5703,-2.5703,-2.5703,-2.5703,-2.5703,-2.5703,-2.5703,-2.5703,-2.5649,-2.5618,-2.5602,-2.5554,-2.5493,-2.5431,-2.5359,-2.5322,-2.5317,-2.5313,-2.5298,-2.5298,-2.5298,-2.5298,-2.5298,-2.5298,-2.5298,-2.5298,-2.5298,-2.5298,-2.5298,-2.5298,-2.5298,-2.5298,-2.5298,-2.5214,-2.5077,-2.5077,-2.4981,-2.4842,-2.4842,-2.483,-2.4782,-2.4632,-2.4568,-2.4544,-2.4393,-2.4303,-2.4266,-2.4266,-2.4237,-2.4199,-2.4199,-2.408,-2.3823,-2.318,-2.274,-2.2171,-2.0859,-2.0373,-2.0049,-1.9256,-1.9069,-1.8842,-1.7975,-1.765,-1.7244,-1.6293,-1.533,-1.4668,-1.4668,-1.4028,-1.3511,-1.3511,-1.3511,-1.3487,-1.3454,-1.3446,-1.3429,-1.3396,-1.3405,-1.3405,-1.3405,-1.3025,-1.2647,-1.2312,-1.2034,-1.1862,-1.1797,-1.1797,-1.1797,-1.1797,-1.1797,-1.1797,-1.1797,-1.1797,-1.1797,-1.1797,-1.1797,-1.2085,-1.2609,-1.3279,-1.3952,-1.4597,-1.4805,-1.4975,-1.5089,-1.4752,-1.4627,-1.4643,-1.4737,-1.4674,-1.4454,-1.4149,-1.3917,-1.3692,-2.5703,-2.5703,-2.5703,-2.5703,-2.5703,-2.5703,-2.5703,-2.5703,-2.5693,-2.566,-2.562,-2.5579,-2.5512,-2.5475,-2.5434,-2.5364,-2.5317,-2.5298,-2.5298,-2.5298,-2.5298,-2.5298,-2.5298,-2.5298,-2.5298,-2.5298,-2.5298,-2.5298,-2.5298,-2.5298,-2.5298,-2.5298,-2.5298,-2.5303,-2.5203,-2.5099,-2.5004,-2.4933,-2.4811,-2.4654,-2.4654,-2.4601,-2.4503,-2.4401,-2.4357,-2.4348,-2.4237,-2.4199,-2.4199,-2.4199,-2.4199,-2.4199,-2.4199,-2.4199,-2.4116,-2.3703,-2.3299,-2.2813,-2.1933,-2.104,-2.0225,-1.9695,-1.9183,-1.8682,-1.8226,-1.7833,-1.7407,-1.6879,-1.6002,-1.5219,-1.4856,-1.4315,-1.3811,-1.3464,-1.3405,-1.3405,-1.3405,-1.3405,-1.3405,-1.3405,-1.3405,-1.3354,-1.3225,-1.2714,-1.2344,-1.2208,-1.1947,-1.1797,-1.1797,-1.1797,-1.1797,-1.1797,-1.1797,-1.1797,-1.1797,-1.1641,-1.1714,-1.1988,-1.1707,-1.1906,-1.2562,-1.2594,-1.3287,-1.4436,-1.4034,-1.4115,-1.4517,-1.4294,-1.4214,-1.423,-1.4438,-1.4374,-1.4181,-1.3977,-1.3759,-1.3537,-2.5703,-2.5703,-2.5703,-2.5703,-2.5703,-2.5703,-2.5703,-2.5693,-2.5661,-2.5615,-2.558,-2.5521,-2.5408,-2.5395,-2.5357,-2.5298,-2.5298,-2.5298,-2.5298,-2.5298,-2.5298,-2.5298,-2.5298,-2.5298,-2.5298,-2.5298,-2.5298,-2.5298,-2.5298,-2.5298,-2.5298,-2.5254,-2.5244,-2.5239,-2.5053,-2.4949,-2.4911,-2.4799,-2.4631,-2.4453,-2.4453,-2.4348,-2.4199,-2.4199,-2.4199,-2.4199,-2.4199,-2.4199,-2.4199,-2.4199,-2.4199,-2.4199,-2.4199,-2.4199,-2.4199,-2.4199,-2.3693,-2.3087,-2.295,-2.1742,-2.0433,-2.0117,-1.9374,-1.8667,-1.8496,-1.7978,-1.7521,-1.7475,-1.6704,-1.5812,-1.5072,-1.4707,-1.4258,-1.3523,-1.3405,-1.3405,-1.3405,-1.3405,-1.3405,-1.3405,-1.3363,-1.3217,-1.2887,-1.2461,-1.2177,-1.2136,-1.1926,-1.1797,-1.1797,-1.1797,-1.1797,-1.1797,-1.1797,-1.1797,-1.1797,-1.1573,-1.1677,-1.2106,-1.1648,-1.1797,-1.2476,-1.183,-1.2507,-1.4112,-1.3058,-1.308,-1.3885,-1.3802,-1.3785,-1.3802,-1.4149,-1.4075,-1.3785,-1.3785,-1.3537,-1.3198,-2.5703,-2.5703,-2.5703,-2.5703,-2.5703,-2.5703,-2.5703,-2.5649,-2.5606,-2.5602,-2.5496,-2.5417,-2.5402,-2.5347,-2.5308,-2.5298,-2.5298,-2.5298,-2.5298,-2.5298,-2.5298,-2.5298,-2.5298,-2.5298,-2.5298,-2.5298,-2.5298,-2.5298,-2.5298,-2.5298,-2.5303,-2.5126,-2.504,-2.5028,-2.4893,-2.4727,-2.4575,-2.4552,-2.4427,-2.4247,-2.4247,-2.4218,-2.4199,-2.4199,-2.4199,-2.4199,-2.4199,-2.4199,-2.4199,-2.4199,-2.4199,-2.4199,-2.4199,-2.4199,-2.4199,-2.4199,-2.3923,-2.3447,-2.2758,-2.2173,-2.1375,-1.9811,-1.9304,-1.8983,-1.8105,-1.7994,-1.803,-1.7795,-1.7125,-1.6375,-1.5627,-1.4954,-1.4258,-1.3523,-1.3405,-1.3405,-1.3405,-1.3405,-1.3405,-1.3405,-1.3199,-1.286,-1.236,-1.2238,-1.2105,-1.1873,-1.1819,-1.1797,-1.1797,-1.1797,-1.1797,-1.1797,-1.1797,-1.1797,-1.1797,-1.1984,-1.1971,-1.1769,-1.1864,-1.2409,-1.3313,-1.2768,-1.3226,-1.4398,-1.3374,-1.3307,-1.3868,-1.3452,-1.3295,-1.3295,-1.334,-1.3346,-1.3295,-1.3295,-1.325,-1.3198,-2.5703,-2.5703,-2.5703,-2.5703,-2.5703,-2.5693,-2.5648,-2.5619,-2.5567,-2.5498,-2.5438,-2.5393,-2.5347,-2.5322,-2.5298,-2.5298,-2.5298,-2.5298,-2.5298,-2.5298,-2.5298,-2.5298,-2.5298,-2.5298,-2.5298,-2.5298,-2.5298,-2.5298,-2.5298,-2.5298,-2.5303,-2.5094,-2.4995,-2.4989,-2.4739,-2.4575,-2.4495,-2.4384,-2.4275,-2.4199,-2.4199,-2.4199,-2.4199,-2.4199,-2.4199,-2.4199,-2.4199,-2.4199,-2.4199,-2.4199,-2.4074,-2.3917,-2.3917,-2.3795,-2.364,-2.364,-2.3533,-2.3343,-2.2992,-2.2349,-2.1581,-2.0781,-1.9823,-1.8956,-1.8522,-1.8189,-1.7938,-1.7814,-1.7538,-1.7084,-1.635,-1.5952,-1.535,-1.42,-1.4014,-1.3818,-1.3258,-1.3182,-1.3121,-1.2971,-1.2722,-1.2461,-1.2218,-1.2055,-1.1926,-1.1808,-1.1797,-1.1797,-1.1797,-1.1797,-1.1797,-1.1797,-1.1797,-1.1714,-1.1523,-1.1787,-1.1895,-1.1862,-1.2115,-1.2572,-1.3196,-1.2596,-1.2994,-1.4095,-1.294,-1.2839,-1.3461,-1.296,-1.2939,-1.3198,-1.3198,-1.3198,-1.3198,-1.3198,-1.3198,-1.3198]},{"header":{"parameterUnit":"m.s-1","parameterCategory":1,"la1":30.6,"la2":28.766,"lo1":-90.7593,"lo2":-88.6598,"dy":0.0162,"dx":0.0183,"nx":116,"ny":114,"refTime":"2024-07-01T18:00:00:Z","depth":0,"parameterNumber":3,"parameterNumberName":"V-component_of_WINDS"},"data":[0.0,0.0,0.0,0.0,0.0,0.0,0.0,0.0,0.0,0.0,0.0,0.0,0.0,0.0,0.0,0.0,0.0,0.0,0.0,0.0,0.0,0.0,0.0,0.0,0.0,0.0,0.0,0.0,0.0,0.0,0.0,0.0,0.0,0.0,0.0,0.0,0.0,0.0,0.0,0.0,0.0,0.0,0.0,0.0,0.0,0.0,0.0,0.0,0.0,0.0,0.0,0.0,0.0,0.0,0.0,0.0,0.0,0.0,0.0,0.0,0.0,0.0,0.0,0.0,0.0,0.0,0.0,0.0,0.0,0.0,0.0,0.0,0.0,0.0,0.0,0.0,0.0,0.0,0.0,0.0,0.0,0.0,0.0,0.0,0.0,0.0,0.0,0.0,0.0,0.0,0.0,0.0,0.0,0.0,0.0,0.0,0.0,0.0,0.0,0.0,0.0,0.0,0.0,0.0,0.0,0.0,0.0,0.0,0.0,0.0,0.0,0.0,0.0,0.0,0.0,0.0,0.0,0.0,0.0,0.0,0.0,0.0,0.0,0.0,0.0,0.0,0.0,0.0,0.0,0.0,0.0,0.0,0.0,0.0,0.0,0.0,0.0,0.0,0.0,0.0,0.0,0.0,0.0,0.0,0.0,0.0,0.0,0.0,0.0,0.0,0.0,0.0,0.0,0.0,0.0,0.0,0.0,0.0,0.0,0.0,0.0,0.0,0.0,0.0,0.0,0.0,0.0,0.0,0.0,0.0,0.0,0.0,0.0,0.0,0.0,0.0,0.0,0.0,0.0,0.0,0.0,0.0,0.0,0.0,0.0,0.0,0.0,0.0,0.0,0.0,0.0,0.0,0.0,0.0,0.0,0.0,0.0,0.0,0.0,0.0,0.0,0.0,0.0,0.0,0.0,0.0,0.0,0.0,0.0,0.0,0.0,0.0,0.0,0.0,0.0,0.0,0.0,0.0,0.0,0.0,0.0,0.0,0.0,0.0,0.0,0.0,0.0,0.0,0.0,0.0,0.0,0.0,0.0,0.0,0.0,0.0,0.0,0.0,0.0,0.0,0.0,0.0,0.0,0.0,0.0,0.0,0.0,0.0,0.0,0.0,0.0,0.0,0.0,0.0,0.0,0.0,0.0,0.0,0.0,0.0,0.0,0.0,0.0,0.0,0.0,0.0,0.0,0.0,0.0,0.0,0.0,0.0,0.0,0.0,0.0,0.0,0.0,0.0,0.0,0.0,0.0,0.0,0.0,0.0,0.0,0.0,0.0,0.0,0.0,0.0,0.0,0.0,0.0,0.0,0.0,0.0,0.0,0.0,0.0,0.0,0.0,0.0,0.0,0.0,0.0,0.0,0.0,0.0,0.0,0.0,0.0,0.0,0.0,0.0,0.0,0.0,0.0,0.0,0.0,0.0,0.0,0.0,0.0,0.0,0.0,0.0,0.0,0.0,0.0,0.0,0.0,0.0,0.0,0.0,0.0,0.0,0.0,0.0,0.0,0.0,0.0,0.0,0.0,0.0,0.0,0.0,0.0,0.0,0.0,0.0,0.0,0.0,0.0,0.0,0.0,0.0,0.0,0.0,0.0,0.0,0.0,0.0,0.0,0.0,0.0,0.0,0.0,0.0,0.0,0.0,0.0,0.0,0.0,0.0,0.0,0.0,0.0,0.0,0.0,0.0,0.0,0.0,0.0,0.0,0.0,0.0,0.0,0.0,0.0,0.0,0.0,0.0,0.0,0.0,0.0,0.0,0.0,0.0,0.0,0.0,0.0,0.0,0.0,0.0,0.0,0.0,0.0,0.0,0.0,0.0,0.0,0.0,0.0,0.0,0.0,0.0,0.0,0.0,0.0,0.0,0.0,0.0,0.0,0.0,0.0,0.0,0.0,0.0,0.0,0.0,0.0,0.0,0.0,0.0,0.0,0.0,0.0,0.0,0.0,0.0,0.0,0.0,0.0,0.0,0.0,0.0,0.0,0.0,0.0,0.0,0.0,0.0,0.0,0.0,0.0,0.0,0.0,0.0,0.0,0.0,0.0,0.0,0.0,0.0,0.0,0.0,0.0,0.0,0.0,0.0,0.0,0.0,0.0,0.0,0.0,0.0,0.0,0.0,0.0,0.0,0.0,0.0,0.0,0.0,0.0,0.0,0.0,0.0,0.0,0.0,0.0,0.0,0.0,0.0,0.0,0.0,0.0,0.0,0.0,0.0,0.0,0.0,0.0,0.0,0.0,0.0,0.0,0.0,0.0,0.0,0.0,0.0,0.0,0.0,0.0,0.0,0.0,0.0,0.0,0.0,0.0,0.0,0.0,0.0,0.0,0.0,0.0,0.0,0.0,0.0,0.0,0.0,0.0,0.0,0.0,0.0,0.0,0.0,0.0,0.0,0.0,0.0,0.0,0.0,0.0,0.0,0.0,0.0,0.0,0.0,0.0,0.0,0.0,0.0,0.0,0.0,0.0,0.0,0.0,0.0,0.0,0.0,0.0,0.0,0.0,0.0,0.0,0.0,0.0,0.0,0.0,0.0,0.0,0.0,0.0,0.0,0.0,0.0,0.0,0.0,0.0,0.0,0.0,0.0,0.0,0.0,0.0,0.0,0.0,0.0,0.0,0.0,0.0,0.0,0.0,0.0,0.0,0.0,0.0,0.0,0.0,0.0,0.0,0.0,0.0,0.0,0.0,0.0,0.0,0.0,0.0,0.0,0.0,0.0,0.0,0.0,0.0,0.0,0.0,0.0,0.0,0.0,0.0,0.0,0.0,0.0,0.0,0.0,0.0,0.0,0.0,0.0,0.0,0.0,0.0,0.0,0.0,0.0,0.0,0.0,0.0,0.0,0.0,0.0,0.0,0.0,0.0,0.0,0.0,0.0,0.0,0.0,0.0,0.0,0.0,0.0,0.0,0.0,0.0,0.0,0.0,0.0,0.0,0.0,0.0,0.0,0.0,0.0,0.0,0.0,0.0,0.0,0.0,0.0,0.0,0.0,0.0,0.0,0.0,0.0,0.0,0.0,0.0,0.0,0.0,0.0,0.0,0.0,0.0,0.0,0.0,0.0,0.0,0.0,0.0,0.0,0.0,0.0,0.0,0.0,0.0,0.0,0.0,0.0,0.0,0.0,0.0,0.0,0.0,0.0,0.0,0.0,0.0,0.0,0.0,0.0,0.0,0.0,0.0,0.0,0.0,0.0,0.0,0.0,0.0,0.0,0.0,0.0,0.0,0.0,0.0,0.0,0.0,0.0,0.0,0.0,0.0,0.0,0.0,0.0,0.0,0.0,0.0,0.0,0.0,0.0,0.0,0.0,0.0,0.0,0.0,0.0,0.0,0.0,0.0,0.0,0.0,0.0,0.0,0.0,0.0,0.0,0.0,0.0,0.0,0.0,0.0,0.0,0.0,0.0,0.0,0.0,0.0,0.0,0.0,0.0,0.0,0.0,0.0,0.0,0.0,0.0,0.0,0.0,0.0,0.0,0.0,0.0,0.0,0.0,0.0,0.0,0.0,0.0,0.0,0.0,0.0,0.0,0.0,0.0,0.0,0.0,0.0,0.0,0.0,0.0,0.0,0.0,0.0,0.0,0.0,0.0,0.0,0.0,0.0,0.0,0.0,0.0,0.0,0.0,0.0,0.0,0.0,0.0,0.0,0.0,0.0,0.0,0.0,0.0,0.0,0.0,0.0,0.0,0.0,0.0,0.0,0.0,0.0,0.0,0.0,0.0,0.0,0.0,0.0,0.0,0.0,0.0,0.0,0.0,0.0,0.0,0.0,0.0,0.0,0.0,0.0,0.0,0.0,0.0,0.0,0.0,0.0,0.0,0.0,0.0,0.0,0.0,0.0,0.0,0.0,0.0,0.0,0.0,0.0,0.0,0.0,0.0,0.0,0.0,0.0,0.0,0.0,0.0,0.0,0.0,0.0,0.0,0.0,0.0,0.0,0.0,0.0,0.0,0.0,0.0,0.0,0.0,0.0,0.0,0.0,0.0,0.0,0.0,0.0,0.0,0.0,0.0,0.0,0.0,0.0,0.0,0.0,0.0,0.0,0.0,0.0,0.0,0.0,0.0,0.0,0.0,0.0,0.0,0.0,0.0,0.0,0.0,0.0,0.0,0.0,0.0,0.0,0.0,0.0,0.0,0.0,0.0,0.0,0.0,0.0,0.0,0.0,0.0,0.0,0.0,0.0,0.0,0.0,0.0,0.0,0.0,0.0,0.0,0.0,0.0,0.0,0.0,0.0,0.0,0.0,0.0,0.0,0.0,0.0,0.0,0.0,0.0,0.0,0.0,0.0,0.0,0.0,0.0,0.0,0.0,0.0,0.0,0.0,0.0,0.0,0.0,0.0,0.0,0.0,0.0,0.0,0.0,0.0,0.0,0.0,0.0,0.0,0.0,0.0,0.0,0.0,0.0,0.0,0.0,0.0,0.0,0.0,0.0,0.0,0.0,0.0,0.0,0.0,0.0,0.0,0.0,0.0,0.0,0.0,0.0,0.0,0.0,0.0,0.0,0.0,0.0,0.0,0.0,0.0,0.0,0.0,0.0,0.0,0.0,0.0,0.0,0.0,0.0,0.0,0.0,0.0,0.0,0.0,0.0,0.0,0.0,0.0,0.0,0.0,0.0,0.0,0.0,0.0,0.0,0.0,0.0,0.0,0.0,0.0,0.0,0.0,0.0,0.0,0.0,0.0,0.0,0.0,0.0,0.0,0.0,0.0,0.0,0.0,0.0,0.0,0.0,0.0,0.0,0.0,0.0,0.0,0.0,0.0,0.0,0.0,0.0,0.0,0.0,0.0,0.0,0.0,0.0,0.0,0.0,0.0,0.0,0.0,0.0,0.0,0.0,0.0,0.0,0.0,0.0,0.0,0.0,0.0,0.0,0.0,0.0,0.0,0.0,0.0,0.0,0.0,0.0,0.0,0.0,0.0,0.0,0.0,0.0,0.0,0.0,0.0,0.0,0.0,0.0,0.0,0.0,0.0,0.0,0.0,0.0,0.0,0.0,0.0,0.0,0.0,0.0,0.0,0.0,0.0,0.0,0.0,0.0,0.0,0.0,0.0,0.0,0.0,0.0,0.0,0.0,0.0,0.0,0.0,0.0,0.0,0.0,0.0,0.0,0.0,0.0,0.0,0.0,0.0,0.0,0.0,0.0,0.0,0.0,0.0,0.0,0.0,0.0,0.0,0.0,0.0,0.0,0.0,0.0,0.0,0.0,0.0,0.0,0.0,0.0,0.0,0.0,0.0,0.0,0.0,0.0,0.0,0.0,0.0,0.0,0.0,0.0,0.0,0.0,0.0,0.0,0.0,0.0,0.0,0.0,0.0,0.0,0.0,0.0,0.0,0.0,0.0,0.0,0.0,0.0,0.0,0.0,0.0,0.0,0.0,0.0,0.0,0.0,0.0,0.0,0.0,0.0,0.0,0.0,0.0,0.0,0.0,0.0,0.0,0.0,0.0,0.0,0.0,0.0,0.0,0.0,0.0,0.0,0.0,0.0,0.0,0.0,0.0,0.0,0.0,0.0,0.0,0.0,0.0,0.0,0.0,0.0,0.0,0.0,0.0,0.0,0.0,0.0,0.0,0.0,0.0,0.0,0.0,0.0,0.0,0.0,0.0,0.0,0.0,0.0,0.0,0.0,0.0,0.0,0.0,0.0,0.0,0.0,0.0,0.0,0.0,0.0,0.0,0.0,0.0,0.0,0.0,0.0,0.0,0.0,0.0,0.0,0.0,0.0,0.0,0.0,0.0,0.0,0.0,0.0,0.0,0.0,0.0,0.0,0.0,0.0,0.0,0.0,0.0,0.0,0.0,0.0,0.0,0.0,0.0,0.0,0.0,0.0,0.0,0.0,0.0,0.0,0.0,0.0,0.0,0.0,0.0,0.0,0.0,0.0,0.0,0.0,0.0,0.0,0.0,0.0,0.0,0.0,0.0,0.0,0.0,0.0,0.0,0.0,0.0,0.0,0.0,0.0,0.0,0.0,0.0,0.0,0.0,0.0,0.0,0.0,0.0,0.0,0.0,0.0,0.0,0.0,0.0,0.0,0.0,0.0,0.0,0.0,0.0,0.0,0.0,0.0,0.0,0.0,0.0,0.0,-0.5774,-0.5725,0.0,0.0,0.0,0.0,0.0,0.0,0.0,0.0,0.0,0.0,0.0,0.0,0.0,0.0,0.0,0.0,0.0,0.0,0.0,0.0,0.0,0.0,0.0,-0.2506,-0.2123,-0.1535,-0.1538,-0.1454,-0.1172,0.0,0.0,0.0,0.0,0.0,-0.1359,-0.1669,-0.1982,-0.2274,-0.2592,-0.2566,-0.2295,-0.3438,-0.4622,-0.5787,0.0,0.0,0.0,0.0,0.0,0.0,0.0,0.0,0.0,0.0,0.0,0.0,0.0,0.0,0.0,0.0,0.0,0.0,0.0,0.0,0.0,0.0,0.0,0.0,0.0,0.0,0.0,0.0,0.0,0.0,0.0,0.0,0.0,0.0,0.0,0.0,0.0,0.0,0.0,0.0,0.0,0.0,0.0,0.0,0.0,0.0,0.0,0.0,0.0,0.0,0.0,0.0,0.0,0.0,0.0,0.0,0.0,0.0,0.0,0.0,0.0,0.0,0.0,0.0,0.0,0.0,0.0,0.0,0.0,0.0,-0.59,-0.5844,0.0,0.0,0.0,0.0,0.0,0.0,0.0,0.0,0.0,0.0,0.0,0.0,0.0,0.0,0.0,0.0,0.0,0.0,0.0,0.0,0.0,-0.2244,-0.2362,-0.2039,-0.146,-0.0615,-0.0684,-0.0417,0.0336,0.0244,0.0,0.0,0.0,-0.0243,-0.0722,-0.0855,-0.1149,-0.1638,-0.164,-0.1696,-0.1829,-0.2754,-0.3849,-0.5019,-0.5742,0.0,0.0,0.0,0.0,0.0,0.0,0.0,0.0,0.0,0.0,0.0,0.0,0.0,0.0,0.0,0.0,0.0,0.0,0.0,0.0,0.0,0.0,0.0,0.0,0.0,0.0,0.0,0.0,0.0,0.0,0.0,0.0,0.0,0.0,0.0,0.0,0.0,0.0,0.0,0.0,0.0,0.0,0.0,0.0,0.0,0.0,0.0,0.0,0.0,0.0,0.0,0.0,0.0,0.0,0.0,0.0,0.0,0.0,0.0,0.0,0.0,0.0,0.0,-0.6363,-0.641,-0.6472,-0.6352,-0.63,-0.6286,-0.5993,-0.5952,-0.6057,-0.5905,0.0,0.0,0.0,0.0,0.0,0.0,0.0,0.0,0.0,0.0,0.0,0.0,0.0,0.0,0.0,0.0,0.0,0.0,0.0,-0.1935,-0.122,-0.1084,-0.0544,0.0718,0.0706,0.1003,0.1865,0.1192,0.0,0.0,0.0342,-0.0026,-0.0126,-0.0627,-0.0947,-0.1023,-0.1027,-0.1296,-0.1807,-0.1961,-0.2643,-0.3792,-0.5031,-0.6168,-0.7158,0.0,0.0,0.0,0.0,0.0,0.0,0.0,0.0,0.0,0.0,0.0,0.0,0.0,0.0,0.0,0.0,0.0,0.0,0.0,0.0,0.0,0.0,0.0,0.0,0.0,0.0,0.0,0.0,0.0,0.0,0.0,0.0,0.0,0.0,0.0,0.0,0.0,0.0,0.0,0.0,0.0,0.0708,0.0064,0.0,0.0,0.0,0.0,0.0,0.0,0.0,0.0,0.0,0.0,0.0,0.0,0.0,-0.6308,-0.6451,-0.6676,-0.6688,-0.6486,-0.658,-0.6517,-0.6327,-0.6308,-0.63,-0.6298,-0.6257,0.0,-0.6257,-0.6064,0.0,0.0,0.0,0.0,0.0,0.0,0.0,0.0,0.0,0.0,0.0,0.0,0.0,0.0,0.0,0.0,0.0,0.0,0.0,0.0,0.0,-0.0097,0.0474,0.1418,0.1431,0.1557,0.1947,0.0,0.1554,0.1598,0.1365,0.1054,0.0624,0.0686,0.0516,0.0115,0.011,-0.0194,-0.0798,-0.1135,-0.1742,-0.2597,-0.3583,-0.5051,-0.6802,-0.7409,0.0,0.0,0.0,0.0,0.0,0.0,0.0,0.0,0.0,0.0,0.0,0.0,0.0,0.0,0.0,0.0,0.0,0.0,0.0,0.0,0.0,0.0,0.0,0.0,0.0,0.0,0.0,0.0,0.0,0.0,0.0,0.0,0.0,0.0,0.0,0.0,0.0,0.0,0.0,0.0487,0.035,0.0032,0.0,0.0,0.0,0.0,0.0,0.0,0.0,0.0,0.0,0.0,0.0,-0.4511,-0.5674,-0.633,-0.6392,-0.6564,-0.6605,-0.6513,-0.6499,-0.6468,-0.6417,-0.6337,-0.63,-0.63,-0.63,-0.63,-0.6294,-0.6188,-0.6159,-0.6152,0.0,0.0,0.0,0.0,-0.595,-0.5827,0.0,0.0,0.0,0.0,0.0,0.0,0.0,0.0,0.0,0.0,0.0,0.0,0.0415,0.1048,0.1735,0.2467,0.2411,0.243,0.0,0.0,0.2414,0.2296,0.224,0.1925,0.1353,0.1728,0.1669,0.1079,0.0959,0.0646,0.0165,-0.0557,-0.1194,-0.1772,-0.252,-0.4132,-0.6307,-0.6957,-0.7894,0.0,0.0,0.0,0.0,0.0,0.0,0.0,0.0,0.0,0.0,0.0,0.0,0.0,0.0,0.0,0.0,0.0,0.0,0.0,0.0,0.0,0.0,0.0,0.0,0.0,0.0,0.0,0.0,0.0,0.0,0.0,0.0,0.0,0.0,0.0,0.0,0.0,0.0,0.0157,0.0196,0.0033,0.0,0.0,0.0,0.0,0.0,0.0,0.0,0.0,-0.2,-0.3219,-0.3992,-0.4138,-0.5297,-0.6077,-0.6354,-0.6497,-0.655,-0.6511,-0.6404,-0.639,-0.6453,-0.6347,-0.63,-0.63,-0.63,-0.63,-0.63,-0.63,-0.63,-0.63,-0.63,-0.6228,-0.6103,-0.6257,-0.6153,-0.5952,0.0,0.0,0.0,0.0,0.0,0.0,0.0,0.0,0.0,0.0,0.0,0.1198,0.1662,0.0,0.3375,0.4383,0.4111,0.4125,0.0,0.0,0.3518,0.3066,0.2514,0.2111,0.1967,0.1852,0.1736,0.1559,0.1112,0.082,0.0647,-0.041,-0.1155,-0.1634,-0.237,-0.3708,-0.5435,-0.6423,-0.7425,-0.8471,0.0,0.0,0.0,0.0,0.0,0.0,0.0,0.0,0.0,0.0,0.0,0.0,0.0,0.0,0.0,0.0,0.0,0.0,0.0,0.0,0.0,0.0,0.0,0.0,0.0,0.0,0.0,0.0,0.0,0.0,0.0,0.0,0.0,0.0,0.0,0.0,0.0,0.0,0.0,0.0067,0.0,0.0,0.0,0.0,0.0,-0.0075,-0.1018,-0.1143,-0.0195,-0.2065,-0.3153,-0.3157,-0.435,-0.5455,-0.6461,-0.6612,-0.6615,-0.6513,-0.6504,-0.6434,-0.631,-0.6303,-0.63,-0.63,-0.63,-0.63,-0.63,-0.63,-0.63,-0.63,-0.63,-0.6294,-0.6289,-0.6296,-0.6289,-0.6277,0.0,0.0,0.0,-0.4723,-0.4202,-0.3712,-0.2838,-0.2048,-0.1265,-0.0436,0.0585,0.1578,0.0,0.3063,0.3657,0.4397,0.433,0.4356,0.4568,0.0,0.4573,0.4383,0.4468,0.4431,0.4252,0.335,0.2834,0.2704,0.2191,0.1507,0.0692,0.0307,-0.0325,-0.1177,-0.1823,-0.3084,-0.4791,-0.5708,-0.704,-0.8609,-0.9155,-0.976,0.0,0.0,0.0,0.0,0.0,0.0,0.0,0.0,0.0,0.0,0.0,0.0,0.0,0.0,0.0,0.0,0.0,0.0,0.0,0.0,0.0,0.0,0.0,0.0,0.0,0.0,0.0,0.0,0.0,0.0,0.0,0.0,0.0,0.0,0.0,0.0,0.0,0.106,0.0402,0.0,0.0,0.0,0.0,0.0,-0.0346,-0.0389,-0.0039,-0.1371,-0.2424,-0.3084,-0.4277,-0.5387,-0.6375,-0.6521,-0.6521,-0.6376,-0.6376,-0.6349,-0.63,-0.63,-0.63,-0.63,-0.63,-0.63,-0.63,-0.63,-0.63,-0.63,-0.63,-0.63,-0.63,-0.63,-0.63,-0.63,-0.6382,-0.6296,0.0,-0.4454,-0.4088,-0.3597,-0.2424,-0.1709,-0.0897,0.0189,0.1245,0.2331,0.3414,0.3953,0.4449,0.4955,0.503,0.4945,0.4719,0.0,0.5456,0.512,0.5477,0.5625,0.5508,0.449,0.3905,0.3743,0.3124,0.2335,0.1378,0.1208,0.0426,-0.0849,-0.1301,-0.2639,-0.4612,-0.5226,-0.6773,-0.8799,-0.9142,-0.9694,-1.0297,0.0,0.0,0.0,0.0,0.0,0.0,0.0,0.0,0.0,0.0,0.0,0.0,0.0,0.0,0.0,0.0,0.0,0.0,0.0,0.0,0.0,0.0,0.0,0.0,0.0,0.0,0.0,0.0,0.0,0.0,0.0,0.0,0.0,0.0,0.2264,0.1728,0.1631,0.093,0.0338,0.0037,0.0,0.0,0.0,0.0,0.0,0.0,-0.0667,-0.1527,-0.2579,-0.3689,-0.4765,-0.5749,-0.6193,-0.6393,-0.63,-0.63,-0.63,-0.63,-0.63,-0.6271,-0.6183,-0.6183,-0.619,-0.6148,-0.6161,-0.619,-0.6155,-0.6259,-0.6267,-0.6183,-0.6183,-0.6183,-0.619,-0.5983,-0.5896,-0.5618,-0.4743,-0.4248,-0.3677,-0.2796,-0.1866,-0.0823,0.0487,0.2078,0.343,0.4342,0.518,0.5819,0.6162,0.6256,0.6013,0.5387,0.6134,0.6177,0.5238,0.5445,0.5603,0.5575,0.5175,0.486,0.4642,0.3895,0.3253,0.2697,0.224,0.1061,-0.067,-0.0828,-0.2359,-0.4826,-0.5012,-0.6566,-0.897,-0.9914,-1.0077,-0.9817,0.0,0.0,0.0,0.0,0.0,0.0,0.0,0.0,0.0,0.0,0.0,0.0,0.0,0.0,0.0,0.0,0.0,0.0,0.0,0.0,0.0,0.0,0.0,0.0,0.0,0.0,0.0,0.0,0.0,0.0,0.0,0.0,0.0,0.3121,0.2819,0.2438,0.1743,0.1416,0.0946,0.0076,0.0,0.0,0.0,0.0,0.0,0.0,0.0,-0.051,-0.1568,-0.2579,-0.3631,-0.4687,-0.5747,-0.63,-0.63,-0.6294,-0.6294,-0.63,-0.6289,-0.6166,-0.5993,-0.5986,-0.5939,-0.5813,-0.5924,-0.5935,-0.5832,-0.6173,-0.6159,-0.5984,-0.5984,-0.5984,-0.6006,-0.592,-0.5896,-0.554,-0.4374,-0.3795,-0.3082,-0.1867,-0.1227,-0.023,0.1537,0.2325,0.3361,0.5024,0.5274,0.5507,0.5945,0.5999,0.6055,0.6166,0.6573,0.6926,0.7196,0.7603,0.7669,0.7311,0.6825,0.6179,0.5397,0.4764,0.3842,0.2697,0.256,0.1715,0.0286,-0.0529,-0.1721,-0.3177,-0.4523,-0.6377,-0.8381,-0.8316,-0.8997,-1.0054,0.0,0.0,0.0,0.0,0.0,0.0,0.0,0.0,0.0,0.0,0.0,0.0,0.0,0.0,0.0,0.0,0.0,0.0,0.0,0.0,0.0,0.0,0.0,0.0,0.0,0.0,0.0,0.0,0.0,0.0,0.0,0.4993,0.5179,0.5025,0.3739,0.2796,0.2712,0.1313,0.0272,0.0039,0.0,0.0,0.0,0.0,0.0,0.0,0.0,-0.051,-0.1568,-0.2579,-0.3631,-0.4687,-0.5747,-0.63,-0.6298,-0.6147,-0.6152,-0.6293,-0.6066,-0.5966,-0.5984,-0.5911,-0.584,-0.5805,-0.5847,-0.584,-0.582,-0.6017,-0.5998,-0.5864,-0.5864,-0.5864,-0.5869,-0.5854,-0.5762,-0.5295,-0.4199,-0.3767,-0.3067,-0.1537,-0.11,-0.0152,0.2071,0.251,0.3314,0.5174,0.5264,0.5393,0.5858,0.6205,0.6421,0.6502,0.7124,0.7817,0.8551,0.883,0.8825,0.8545,0.789,0.7174,0.6459,0.5958,0.5051,0.3743,0.3743,0.2856,0.1216,0.0394,-0.0877,-0.2505,-0.4066,-0.5848,-0.7598,-0.7386,-0.8309,-0.9799,-0.951,-0.869,-0.7696,-0.7897,-0.6833,-0.5251,-0.4706,0.0,0.0,0.0,0.0,0.0,0.0,0.0,0.0,0.0,0.0,0.0,0.0,0.0,0.0,0.0,0.0,0.0,0.0,0.0,0.0,0.0,0.0,0.0,0.0,0.5387,0.5618,0.5701,0.4738,0.376,0.3099,0.1898,0.084,0.0077,0.0,0.0,0.0,0.0,0.0,0.0,0.0,-0.0275,-0.0902,-0.1917,-0.2969,-0.4022,-0.5027,-0.5775,-0.6161,-0.6006,-0.5981,-0.61,-0.5883,-0.5817,-0.584,-0.5752,-0.5676,-0.5622,-0.5686,-0.5674,-0.5637,0.0,0.0,0.0,0.0,-0.5713,-0.5722,-0.5819,-0.558,-0.502,-0.4153,-0.3958,-0.3329,-0.1567,-0.127,-0.0301,0.2266,0.0,0.3299,0.515,0.5301,0.5459,0.5911,0.6707,0.708,0.0,0.8018,0.8945,0.9485,0.9486,0.9424,0.9327,0.8567,0.7967,0.7578,0.7245,0.6475,0.5337,0.5234,0.4103,0.2122,0.1549,0.0,-0.2287,-0.3549,-0.5077,-0.6689,-0.6827,-0.7772,-0.9096,-0.9082,-0.8052,-0.6643,-0.6999,-0.6154,-0.4746,-0.404,0.0,0.0,0.0,0.0,0.0,0.0,0.0,0.0,0.0,0.0,0.0,0.0,0.0,0.0,0.0,0.0,0.0,0.0,0.0,0.0,0.0,0.0,0.0,0.0,0.5401,0.5589,0.5589,0.5589,0.4972,0.3257,0.2758,0.1906,0.0301,0.0077,0.0,0.0,0.0,0.0,0.0,0.0,0.0,0.0,0.0,-0.2066,-0.3073,-0.4032,-0.4999,-0.5964,-0.585,-0.5786,-0.58,-0.5766,-0.5693,-0.5588,-0.5572,-0.552,-0.5405,-0.5542,-0.5518,-0.5421,-0.565,-0.5674,-0.5564,-0.5564,-0.5564,-0.5583,-0.5931,-0.558,-0.502,-0.4153,-0.3681,-0.2961,-0.1524,-0.1016,0.0,0.2297,0.2601,0.3535,0.5987,0.5952,0.5913,0.6266,0.7091,0.8013,0.0,0.0,1.0817,1.016,1.0419,1.0231,0.948,0.9296,0.8841,0.807,0.7729,0.7088,0.6161,0.551,0.4433,0.3004,0.1827,0.0432,-0.1136,-0.2656,-0.4357,-0.5999,-0.6081,-0.6776,-0.7727,-0.7302,-0.6442,-0.5381,-0.4983,-0.4187,-0.3239,-0.2711,-0.229,-0.1791,-0.07,0.0,0.0,0.0,0.0,0.0,0.0,0.0,0.0,0.0,0.0,0.0,0.0,0.0,0.0,0.0,0.0,0.0,0.0,0.0,0.0,0.5329,0.5471,0.5589,0.5589,0.5589,0.5184,0.409,0.2541,0.142,0.1098,0.0405,0.0,0.0,0.0,0.0,0.0,0.0,0.0,0.0,-0.1038,-0.2015,-0.2924,-0.3962,-0.4954,-0.5844,-0.57,0.0,-0.5793,-0.559,-0.5533,-0.5583,-0.5494,-0.5423,-0.5397,-0.5426,-0.5421,-0.54,-0.5458,-0.5463,-0.544,-0.544,-0.544,-0.5443,-0.6782,-0.6208,-0.5437,-0.447,-0.4106,-0.3385,-0.1706,-0.1278,-0.0298,0.2085,0.2656,0.3649,0.5724,0.6036,0.6278,0.671,0.7766,0.0,0.0,1.1738,1.1969,1.157,1.1703,1.1416,1.0619,1.0346,0.9887,0.9248,0.8906,0.834,0.7539,0.6969,0.6043,0.4791,0.3488,0.2047,0.0461,-0.1587,-0.3258,-0.4606,-0.5236,-0.5489,-0.5533,-0.6316,-0.5702,-0.4428,-0.4183,-0.3186,-0.1889,-0.1237,-0.0715,-0.0186,0.0783,0.114,0.1331,0.0,0.0,0.0,0.0,0.0,0.0,0.0,0.0,0.0,0.0,0.0,0.0,0.0,0.0,0.4994,0.4994,0.0,0.527,0.5382,0.546,0.551,0.551,0.5408,0.5043,0.4207,0.2858,0.1816,0.1354,0.0506,0.0,0.0,0.0,0.0,0.0,0.0,0.0,0.0,-0.0523,-0.126,-0.2222,-0.314,-0.407,-0.5013,-0.5338,-0.5547,-0.561,-0.5462,-0.5438,-0.5506,-0.5428,-0.5395,-0.5395,-0.5395,-0.5347,-0.5245,-0.5245,-0.5327,-0.5395,-0.5395,-0.5395,-0.5395,-0.7784,-0.703,-0.5974,-0.4802,-0.4595,-0.3917,-0.19,-0.1599,-0.0681,0.1858,0.2728,0.3704,0.5326,0.6134,0.6836,0.0,0.0,0.0,0.0,1.2595,1.2723,1.2644,1.2685,1.234,1.1566,1.1175,1.082,1.0496,1.0206,0.9723,0.9079,0.8596,0.7789,0.6676,0.5318,0.3839,0.2214,-0.0212,-0.1981,-0.3246,-0.4198,-0.4159,-0.3697,-0.5118,-0.4629,-0.3207,-0.3178,-0.2092,-0.0501,0.0282,0.0871,0.1409,0.2245,0.2551,0.2647,0.2891,0.3014,0.0,0.0,0.0,0.0,0.0,0.0,0.0,0.0,0.5258,0.4779,0.4899,0.5042,0.5142,0.5142,0.5277,0.5395,0.5395,0.537,0.5349,0.5349,0.5186,0.4845,0.4235,0.3393,0.2527,0.1615,0.0737,0.0142,0.0,0.0,0.0,0.0,0.0,0.0,0.0,0.0,-0.0506,-0.1515,-0.2117,-0.3026,-0.4153,-0.4806,-0.5226,-0.5395,-0.5395,-0.5395,-0.5395,-0.5395,-0.5376,-0.5349,-0.5349,-0.5226,-0.5058,-0.5058,-0.5165,-0.5308,-0.5308,-0.5308,-0.5308,-0.8432,-0.7678,-0.6429,-0.4873,-0.4595,-0.3923,-0.19,-0.1591,-0.0689,0.186,0.272,0.38,0.5648,0.6803,0.7956,0.0,0.0,0.0,1.1792,1.3039,1.324,1.2136,1.2482,1.2167,1.1016,1.1157,1.123,1.1189,1.1032,1.0784,1.0447,0.9465,0.8615,0.7832,0.6204,0.494,0.3894,0.1697,-0.0564,-0.2673,-0.2697,-0.3089,-0.3578,-0.2688,-0.1794,-0.0971,-0.0466,0.0281,0.111,0.1637,0.1831,0.2098,0.3251,0.3774,0.421,0.541,0.5911,0.5977,0.5318,0.5126,0.5318,0.6143,0.5787,0.5343,0.0,0.5319,0.4903,0.5046,0.5228,0.5368,0.5368,0.5382,0.5395,0.5395,0.5245,0.5125,0.5125,0.5002,0.4887,0.481,0.4014,0.3214,0.2428,0.1531,0.0693,0.0034,0.0,0.0,0.0,0.0,0.0,0.0,0.0,-0.0422,-0.1333,-0.1399,-0.2309,-0.4033,-0.4123,-0.4586,-0.5395,-0.5395,-0.5395,-0.5395,-0.5395,-0.5284,-0.5125,-0.5125,-0.5041,-0.4911,-0.4911,-0.4921,-0.4969,-0.4969,-0.4969,-0.4969,-0.8576,-0.779,-0.669,-0.5701,-0.5252,-0.4385,-0.2526,-0.1933,-0.0955,0.1172,0.2267,0.3455,0.4983,0.6826,0.8397,0.9498,1.0655,1.1664,1.2489,1.3912,1.4267,1.3274,1.3861,1.3786,1.2908,1.2767,1.2909,1.3333,1.2664,1.2478,1.2782,1.2185,1.1395,1.0429,0.8936,0.7554,0.6138,0.3213,0.1168,-0.0162,-0.0932,-0.1305,-0.1289,0.0117,0.1329,0.2127,0.1099,0.1754,0.0,0.0,0.3443,0.3944,0.471,0.5033,0.5266,0.5996,0.6284,0.6336,0.6193,0.6145,0.631,0.7047,0.6691,0.6308,0.688,0.652,0.5971,0.5672,0.5705,0.5755,0.5755,0.5755,0.5755,0.5755,0.5693,0.5464,0.5039,0.488,0.4785,0.4785,0.4455,0.3783,0.2624,0.1656,0.0809,0.0066,0.0,0.0,0.0,0.0,0.0,0.0,0.0,-0.0171,-0.0547,-0.1058,-0.1694,-0.2443,-0.2978,-0.3446,-0.3849,-0.4352,-0.4811,-0.5226,-0.5226,-0.5143,-0.4977,-0.4977,-0.4919,-0.4785,-0.4785,-0.4731,-0.4675,-0.4853,-0.4889,-0.4889,-0.8417,-0.7686,-0.6831,-0.6285,-0.5663,-0.4708,-0.3162,-0.2291,-0.1204,0.0447,0.1844,0.3357,0.5066,0.6815,0.8271,0.9259,1.0751,1.1925,1.2639,1.4195,1.4785,1.4134,1.487,1.5024,1.4424,1.4288,1.4521,1.5127,1.4429,1.4337,1.4822,1.449,1.3845,1.2911,1.1452,1.0053,0.8559,0.485,0.2771,0.1845,0.0544,0.0214,0.0672,0.2282,0.3885,0.5009,0.3017,0.3481,0.0,0.0,0.5083,0.5783,0.6041,0.6374,0.6723,0.7078,0.7154,0.7181,0.7207,0.72,0.7302,0.7854,0.7453,0.7063,0.7696,0.7367,0.678,0.6327,0.6282,0.6291,0.6291,0.6291,0.6291,0.6291,0.6096,0.5769,0.521,0.4869,0.4672,0.4685,0.4691,0.4214,0.2971,0.2038,0.1184,0.0423,0.0132,0.0,0.0,0.0,0.0,0.0,0.0,0.0,0.0,-0.0639,-0.1074,-0.1307,-0.1975,-0.2444,-0.271,-0.3352,-0.3941,-0.4436,-0.4436,-0.449,-0.4551,-0.4551,-0.4585,-0.4656,-0.4656,-0.4588,-0.4516,-0.4711,-0.4792,-0.4792,-0.7948,-0.747,-0.6831,-0.6285,-0.5586,-0.4731,-0.3651,-0.2512,-0.136,-0.0134,0.1596,0.3785,0.6626,0.6988,0.749,0.8634,1.0075,1.1132,1.1608,1.3456,1.4409,1.4106,1.487,1.5104,1.4694,1.5252,1.5681,1.5967,1.619,1.6252,1.6132,1.5662,1.5258,1.4839,1.3108,1.1954,1.1021,0.6806,0.4071,0.2476,0.1466,0.1144,0.147,0.342,0.5515,0.7219,0.585,0.0,0.0,0.0,0.6569,0.7284,0.7037,0.7807,0.8909,0.9439,0.9589,0.9478,0.8886,0.8689,0.8662,0.8742,0.8209,0.767,0.7705,0.7285,0.6907,0.6886,0.6973,0.7064,0.7064,0.7064,0.7064,0.7064,0.6361,0.5809,0.578,0.5039,0.4552,0.4674,0.4691,0.4453,0.383,0.2983,0.2111,0.1333,0.0491,0.0,0.0,0.0,0.0,0.0,0.0,0.0,0.0,-0.0034,-0.0471,-0.1307,-0.1341,-0.1808,-0.2708,-0.2731,-0.2751,-0.277,-0.277,-0.3114,-0.3639,-0.3639,-0.3972,-0.4498,-0.4498,-0.4493,-0.4491,-0.4501,-0.4505,-0.4505,-0.7486,-0.713,-0.6613,-0.6255,-0.5673,-0.4978,-0.422,-0.2713,-0.1388,-0.0575,0.1373,0.0,0.0,0.0,0.0,0.0,0.9885,1.1014,1.1129,1.3285,1.4618,1.4694,1.5897,1.6602,1.6686,1.6891,1.7282,1.7859,1.8127,1.8511,1.8997,1.9418,1.9295,1.8662,1.7364,1.6016,1.4485,1.0838,0.8578,0.7289,0.5419,0.4989,0.5538,0.6735,0.7913,0.8977,0.0,0.0,0.0,0.7914,0.8108,0.8491,0.8215,0.843,0.8829,0.9206,0.9653,0.9979,0.978,0.9909,1.0088,1.0111,0.995,0.9636,0.9183,0.8967,0.855,0.7623,0.7475,0.7505,0.7505,0.7505,0.7505,0.7505,0.7241,0.6886,0.6393,0.5671,0.523,0.541,0.507,0.4778,0.4667,0.3886,0.2805,0.1401,0.1021,0.0599,0.0034,0.0,0.0,0.0,0.0,0.0,0.0,0.0,-0.0133,-0.0425,-0.0449,-0.092,-0.1774,-0.2318,-0.2822,-0.3336,-0.3811,-0.4094,-0.4198,-0.4198,-0.4309,-0.4489,-0.4489,-0.4489,-0.4489,-0.4489,-0.4489,-0.4489,-0.7067,-0.6875,-0.6436,-0.5959,-0.5519,0.0,0.0,0.0,0.0,0.0,0.0,0.0,0.0,0.0,0.0,0.0,0.0,1.0474,1.0565,1.277,1.4212,1.4559,1.6275,1.7429,1.7829,1.8567,1.9282,1.9932,2.0208,2.064,2.1229,2.1648,2.1632,2.1191,2.0076,1.874,1.7105,1.3738,1.1567,1.0214,0.7793,0.7244,0.7941,0.8482,0.9267,0.0,0.0,0.0,0.0,0.9768,1.0,1.0392,0.994,0.9916,0.9995,0.9915,1.0387,1.083,1.0343,1.0456,1.0677,1.0405,1.0454,1.0478,1.0035,0.9877,0.9555,0.8636,0.8253,0.8099,0.8099,0.8099,0.8099,0.8099,0.7883,0.7536,0.7074,0.6364,0.5891,0.587,0.5536,0.527,0.5226,0.4688,0.3777,0.2382,0.1677,0.1063,0.0504,0.0168,0.0,0.0,0.0,0.0,0.0,0.0,0.0,0.0,0.0,-0.0307,-0.0848,-0.1633,-0.2258,-0.2736,-0.3484,-0.3897,-0.407,-0.4099,-0.4265,-0.4489,-0.4489,-0.4489,-0.4489,-0.4489,-0.4489,-0.4489,-0.6712,-0.6684,-0.6332,0.0,0.0,0.0,0.0,0.0,0.0,0.0,0.0,0.0,0.0,0.0,0.0,0.0,0.0,0.0,0.9854,1.1823,0.0,1.3763,1.5995,1.7487,1.81,2.0092,2.1379,2.1918,2.2257,2.2518,2.2686,2.237,2.2289,2.2355,2.1176,1.9957,1.8552,1.5253,1.2811,1.0976,0.8475,0.7917,0.8626,0.8798,0.0,0.0,0.0,0.0,0.0,1.1626,1.2108,1.2802,1.208,1.2091,1.2269,1.1543,1.18,1.2007,1.0642,1.0484,1.0517,0.9786,0.9953,1.0264,1.0257,1.0057,0.9869,0.9862,0.9338,0.891,0.891,0.8897,0.8881,0.8881,0.8257,0.7771,0.7771,0.7136,0.6497,0.6083,0.601,0.5817,0.5418,0.5382,0.5016,0.415,0.2384,0.1335,0.1302,0.0469,0.0,0.0,0.0,0.0,0.0,0.0,0.0,0.0,0.0,0.0,-0.0029,-0.0762,-0.1094,-0.1146,-0.1869,-0.262,-0.3316,-0.3372,-0.3846,-0.4489,-0.4489,-0.4489,-0.4489,-0.4489,-0.4489,-0.4489,0.0,0.0,0.0,0.0,0.0,0.0,0.0,0.0,0.0,0.0,0.0,0.0,0.0,0.0,0.0,0.0,0.0,0.0,0.8258,1.0234,0.0,0.0,0.0,0.0,1.8229,1.94,0.0,0.0,0.0,2.2769,2.2642,2.3438,2.3363,2.2523,2.176,1.9328,1.5672,1.3916,1.1289,0.8339,0.0,0.8423,0.8777,0.0,0.0,0.0,0.0,0.0,1.4563,1.3679,1.3336,1.3173,1.2582,1.2477,1.2432,1.1831,1.2015,1.2219,1.1508,1.1593,1.1745,1.1205,1.1162,1.1199,1.0982,1.088,1.0785,1.0587,1.0419,1.0287,1.0287,1.0095,0.9922,0.9922,0.9302,0.882,0.882,0.8009,0.7236,0.673,0.6189,0.5662,0.5224,0.5189,0.5138,0.505,0.3358,0.2029,0.1333,0.0479,0.0,0.0,0.0,0.0,0.0,0.0,0.0,0.0,0.0,0.0,-0.0028,-0.0765,-0.1099,-0.1146,-0.1869,-0.2648,-0.3372,-0.34,-0.3846,-0.4489,-0.4489,-0.4489,-0.4489,-0.4489,-0.4489,-0.4489,0.0,0.0,0.0,0.0,0.0,0.0,0.0,0.0,0.0,0.0,0.0,0.0,0.0,0.0,0.0,0.0,0.0,0.0,0.0,0.8748,0.0,0.0,0.0,1.5259,1.6907,1.8622,0.0,0.0,0.0,0.0,0.0,2.2238,2.2078,2.15,2.0495,1.8127,1.4835,0.0,0.0,0.0,0.0,0.0,0.0,0.0,0.0,0.0,0.0,0.0,1.5518,1.4961,1.4594,1.4268,1.3494,1.3262,1.314,1.2548,1.2414,1.2336,1.1838,1.1708,1.1628,1.1157,1.1327,1.1555,1.1418,1.1411,1.1427,1.1273,1.099,1.0788,1.0788,1.0525,1.0311,1.0311,0.9666,0.9211,0.9211,0.86,0.7979,0.7414,0.6989,0.6404,0.5564,0.5496,0.5413,0.5192,0.363,0.2469,0.1928,0.1002,0.0337,0.0,0.0306,0.0337,0.0,0.0,0.0,0.0,0.0,0.0,-0.0028,-0.0755,-0.109,-0.1146,-0.1869,-0.2453,-0.2899,-0.3233,-0.3623,-0.4042,-0.4377,-0.4489,-0.4489,-0.4489,-0.4489,-0.4489,0.0,0.0,0.0,0.0,0.0,0.0,0.0,0.0,0.0,-0.1528,-0.112,-0.0491,0.0538,0.1274,0.0,0.0,0.0,0.0,0.0,0.0,0.0,0.0,0.0,1.3368,1.4811,1.7366,1.9073,0.0,0.0,0.0,0.0,0.0,0.0,0.0,0.0,0.0,0.0,0.0,0.0,0.0,0.0,0.0,0.0,0.0,0.0,0.0,0.0,0.0,1.5604,1.5698,1.5761,1.5611,1.4544,1.4217,1.4069,1.3322,1.2865,1.2454,1.1859,1.1425,1.0981,1.0433,1.0904,1.1511,1.1591,1.1719,1.1883,1.1938,1.1471,1.1074,1.1074,1.0813,1.0593,1.0639,0.9946,0.9417,0.9457,0.9123,0.8622,0.8008,0.7891,0.7402,0.6232,0.6045,0.5729,0.5097,0.3662,0.282,0.282,0.1821,0.0901,0.0176,0.078,0.0751,0.0,0.0,0.0,0.0,0.0,0.0,-0.0028,-0.0671,-0.095,-0.0978,-0.1619,-0.1953,-0.2092,-0.2731,-0.3149,-0.3456,-0.4098,-0.4406,-0.4489,-0.4489,-0.4489,-0.4489,0.0,0.0,0.0,0.0,0.0,0.0,0.0,0.0,0.0,0.0,0.0,0.0,0.0,0.0,0.0,0.0,0.0,0.0,0.0,0.0,0.0,0.0,0.0,1.0974,1.2935,1.4256,1.5352,1.6211,1.7513,0.0,0.0,0.0,0.0,0.0,0.0,0.0,0.0,0.0,0.0,0.0,0.0,0.0,0.0,0.0,0.0,0.0,0.0,1.5426,1.5682,0.0,1.6361,1.6176,1.5097,1.4771,1.4551,1.3486,1.3128,1.2891,1.2022,1.1725,1.1436,1.053,1.0654,1.1113,1.1523,1.1867,1.2238,1.2619,1.2622,1.2544,1.2544,1.221,1.2047,1.2382,1.132,1.0551,1.0894,0.9883,0.8875,0.8214,0.7917,0.7472,0.6802,0.6194,0.5827,0.5804,0.4331,0.3453,0.3453,0.2542,0.1671,0.0931,0.1021,0.0738,0.0,0.0,0.0,0.0,0.0,0.0,0.0,-0.014,-0.0196,-0.0196,-0.0336,-0.0727,-0.1313,-0.1424,-0.2231,-0.34,-0.3483,-0.3903,-0.4489,-0.4489,-0.4489,-0.4489,0.0,0.0,0.0,0.0,0.0,0.0,0.0,0.0,0.0,0.0,0.0,0.0,0.0,0.0,0.0,0.0,0.0,0.0,0.0,0.0,0.0,0.0,0.0,0.8407,0.9961,1.148,1.2562,1.3262,0.0,1.4377,1.3544,1.308,1.2268,1.1168,1.0144,0.8181,0.0,0.0,0.0,0.0,0.0,0.0,0.0,0.0,0.0,0.0,0.0,1.4869,1.5214,1.5826,1.6238,1.6356,1.5575,1.5123,1.4733,1.3916,1.3441,1.3053,1.2342,1.2156,1.2056,1.1612,1.1566,1.1769,1.2258,1.2485,1.2627,1.2837,1.2905,1.2905,1.2905,1.2579,1.2356,1.2569,1.1542,1.0763,1.0973,1.0118,0.9268,0.8776,0.8585,0.8163,0.7403,0.699,0.6505,0.578,0.5021,0.4305,0.3629,0.2698,0.2036,0.1675,0.1313,0.0755,0.0,0.0,0.0,0.0,0.0,0.0,0.0,0.0,0.0,0.0,0.0,-0.0196,-0.056,-0.095,-0.1535,-0.2231,-0.2593,-0.3205,-0.3873,-0.3873,-0.4153,-0.4489,0.0,0.0,0.0,0.0,0.0,0.0,0.0,0.0,-0.3145,-0.3242,-0.2913,-0.2565,-0.227,-0.1584,0.0,0.0,0.0,0.0,0.0,0.0,0.0,0.0,0.0,0.5898,0.7006,0.0,0.0,1.0471,1.1129,0.0,0.0,0.0,0.0,0.0,0.7243,0.6033,0.4897,0.0,0.0,0.0,0.0,0.6401,0.0,0.0,0.0,0.0,0.0,1.4097,1.4629,1.5343,1.5914,1.6256,1.5965,1.5512,1.4979,1.4425,1.3853,1.3279,1.28,1.2591,1.2519,1.2577,1.2544,1.2589,1.3015,1.3093,1.3065,1.2929,1.2905,1.2905,1.2905,1.2635,1.2486,1.2659,1.1839,1.1183,1.1186,1.0523,0.9862,0.9369,0.9247,0.8875,0.802,0.7803,0.7149,0.5842,0.546,0.4862,0.385,0.3083,0.262,0.2453,0.1897,0.1146,0.0252,0.0224,0.0168,0.0,0.0,0.0,0.0,0.0,0.0,0.0,0.0,0.0,-0.0056,-0.0615,-0.095,-0.1145,-0.173,-0.2425,-0.3093,-0.3233,-0.3707,-0.4294,0.0,0.0,0.0,0.0,0.0,0.0,0.0,0.0,-0.3106,-0.3119,-0.318,-0.3328,-0.3599,-0.2579,0.0,0.0,0.0,0.0,0.0,0.0,0.0,0.0,0.0,0.0,0.0,0.0,0.0,0.7416,0.8073,0.0,0.0,0.0,0.0,0.0,0.0,0.463,0.4107,0.4036,0.0,0.0,0.0,0.0,0.0,0.0,0.0,0.0,0.0,1.3844,1.405,1.5197,1.5632,1.5764,1.6268,1.6063,1.5511,1.4972,1.4444,1.3894,1.3365,1.2865,1.2519,1.2577,1.2866,1.3118,1.3098,1.3415,1.3552,1.3017,1.2905,1.2905,1.2905,1.2866,1.3084,1.3818,1.3227,1.272,1.2781,1.184,1.0766,0.976,0.9374,0.907,0.8725,0.8099,0.7372,0.6559,0.5306,0.455,0.4425,0.433,0.3987,0.3317,0.3234,0.2482,0.1006,0.1006,0.0671,0.0,0.0,0.0,0.0,0.0,0.0,0.0,0.0,0.0,0.0,-0.0084,-0.0504,-0.1118,-0.1173,-0.1647,-0.237,-0.3065,-0.3372,-0.3595,0.0,0.0,0.0,0.0,0.0,0.0,0.0,0.0,-0.3005,-0.3091,-0.3254,-0.3463,-0.376,-0.3438,0.0,0.0,0.0,0.0,0.0,0.0,0.0,0.0,0.0,0.0,0.0,0.0,0.4222,0.4656,0.4998,0.0,0.0,0.0,0.0,0.0,0.0,0.409,0.3994,0.3994,0.0,0.0,0.0,0.0,0.0,0.0,0.0,0.0,0.0,0.0,1.3933,1.4778,1.5298,1.5632,1.5886,1.6062,1.6082,1.553,1.4997,1.4525,1.4323,1.4112,1.4037,1.4368,1.4034,1.3694,1.3998,1.3653,1.3195,1.2949,1.2905,1.2905,1.2905,1.2905,1.3071,1.3662,1.3264,1.3003,1.3316,1.2982,1.2188,1.0831,1.0628,1.0187,0.9139,0.8637,0.7883,0.6696,0.5658,0.4921,0.4517,0.4489,0.4155,0.3428,0.34,0.2872,0.1786,0.1758,0.1396,0.0671,0.0671,0.042,0.0,0.0,0.0,0.0,0.0,0.0,0.0,0.0,-0.0168,-0.0448,-0.0448,-0.0895,-0.1563,-0.1869,-0.2592,-0.3429,0.0,0.0,0.0,0.0,0.0,0.0,-0.2764,-0.2876,-0.3005,-0.315,-0.3343,-0.3535,-0.3765,-0.3944,-0.3947,-0.3648,0.0,0.0,0.0,0.0,0.0,0.0,0.0,0.0,0.0,0.0,0.2609,0.2838,0.2933,0.3204,0.0,0.0,0.3124,0.36,0.0,0.0,0.0,0.0,0.0,0.0,0.0,0.0,0.0,0.0,0.0,0.0,0.0,0.0,0.0,0.0,0.0,1.5135,1.5493,1.5776,1.5963,1.594,1.5569,1.5141,1.5141,1.5016,1.5022,1.5575,1.4923,1.4258,1.4614,1.3907,1.3128,1.2949,1.2905,1.2905,1.2905,1.2905,1.3042,1.3437,1.3348,1.3341,1.3573,1.3817,1.3337,1.1635,1.1567,1.1049,0.951,0.8808,0.7966,0.6694,0.5925,0.5218,0.4544,0.4489,0.4265,0.3735,0.3735,0.3343,0.2537,0.2537,0.2147,0.1424,0.1201,0.0839,0.0308,0.0112,0.0,0.0,0.0,0.0,0.0,0.0,0.0,0.0,0.0,-0.0308,-0.0811,-0.1006,-0.1786,-0.2788,0.0,0.0,0.0,0.0,0.0,0.0,0.0,0.0,-0.3153,-0.3284,-0.3481,-0.3655,-0.3775,-0.4038,-0.4194,-0.4195,0.0,0.0,0.0,0.0,0.0,0.0,0.0,0.0,0.0,0.0,0.0,0.2201,0.2202,0.2202,0.2229,0.2202,0.2202,0.2227,0.0,0.0,0.0,0.0,0.0,0.0,0.0,0.0,0.0,0.0,0.0,0.0,0.0,0.0,0.0,0.0,0.0,0.0,0.0,1.5192,1.4954,1.6145,1.6114,1.5687,1.5687,1.5311,1.5022,1.5575,1.5234,1.4767,1.4705,1.4236,1.3618,1.3012,1.2905,1.2905,1.2905,1.2905,1.3042,1.3437,1.3831,1.398,1.3663,1.4338,1.4122,1.205,1.1915,1.1389,0.9849,0.8502,0.7399,0.6667,0.5925,0.5218,0.4544,0.4489,0.4489,0.4489,0.4489,0.4098,0.3288,0.3288,0.2925,0.2175,0.1452,0.109,0.1062,0.0336,0.0,0.0,0.0,0.0,0.0,0.0,0.0,0.0,0.0,0.0,-0.0112,-0.0839,-0.1118,-0.1341,0.0,0.0,0.0,0.0,0.0,0.0,0.0,0.0,-0.3216,-0.318,-0.3928,-0.4513,-0.4545,-0.5248,-0.5714,-0.5714,0.0,0.0,0.0,0.0,0.0,0.0,0.0,0.0,0.0,0.0,0.0,0.0,0.0,0.095,0.1452,0.1452,0.173,0.22,0.2049,0.1993,0.0,0.0,0.0,0.0,0.0,0.0,0.7044,0.0,0.0,0.0,0.0,0.0,0.0,0.0,0.0,0.0,0.0,0.0,0.0,1.5158,1.5437,1.5545,1.5137,1.5188,1.5313,1.5074,1.4553,1.4121,1.4088,1.3629,1.3128,1.2949,1.2905,1.2905,1.2905,1.2905,1.3238,1.4219,1.4492,1.4852,1.5594,1.547,1.4666,1.2948,1.1182,0.9833,0.9149,0.8697,0.8156,0.7399,0.6664,0.5928,0.5218,0.4761,0.4489,0.4489,0.4489,0.4377,0.4125,0.4125,0.3735,0.2953,0.2703,0.2064,0.109,0.0867,0.0476,0.0,0.0,0.0,0.0,0.0,0.0,0.0,0.0,0.0,-0.0028,-0.0252,-0.0671,-0.1229,0.0,0.0,0.0,0.0,0.0,0.0,0.0,0.0,-0.3381,-0.3307,-0.403,-0.4534,-0.4489,-0.5211,-0.5665,-0.5565,0.0,0.0,0.0,0.0,0.0,0.0,0.0,0.0,0.0,0.0,0.0,0.0,0.0,0.0,0.0,0.0,0.0923,0.1367,0.1285,0.1247,0.0,0.0,0.0,0.0,0.0,0.0,0.6283,0.0,0.0,0.0,0.0,0.0,0.0,0.0,0.0,0.0,0.0,0.0,0.0,0.0,1.4618,1.4886,1.4744,1.4966,1.5163,1.4789,1.426,1.3797,1.3797,1.3329,1.2905,1.2905,1.2905,1.2905,1.2905,1.3013,1.3379,1.4175,1.4707,1.5303,1.6088,1.579,1.4834,1.296,1.0763,0.9264,0.8971,0.8871,0.8507,0.775,0.702,0.6285,0.554,0.4868,0.4489,0.4489,0.4489,0.4489,0.4489,0.4489,0.4237,0.3761,0.3456,0.2842,0.1953,0.1368,0.0839,0.0392,0.0112,0.0,0.0,0.0,0.0,0.0,0.0,0.0,0.0,0.0,-0.028,-0.0783,0.0,0.0,0.0,0.0,0.0,0.0,0.0,0.0,0.0,0.0,0.0,-0.4024,-0.3915,-0.4344,0.0,0.0,0.0,0.0,0.0,0.0,0.0,0.0,0.0,0.0,0.0,0.0,0.0,-0.1251,-0.1155,-0.0743,-0.008,0.0,0.0,0.0,0.0,0.0056,0.0,0.0,0.0,0.0,0.4882,0.5458,0.0,0.0,0.0,0.0,0.0,0.0,0.0,0.0,0.0,0.0,0.0,0.0,0.0,0.0,0.0,0.0,0.0,1.4612,1.4635,1.4589,1.4149,1.3732,1.3732,1.331,0.0,1.2905,1.2905,1.2915,1.2944,1.3247,1.3535,1.3628,1.4639,1.5435,1.5469,1.5389,1.4462,1.217,1.0551,0.9541,0.926,0.8961,0.851,0.783,0.7101,0.6367,0.5624,0.495,0.4544,0.4489,0.4489,0.4489,0.4489,0.4489,0.4489,0.4489,0.3734,0.34,0.3343,0.1925,0.1201,0.1062,0.0364,0.0056,0.0,0.0,0.0,0.0,0.0,0.0,0.0,0.0,0.0,-0.0112,0.0,0.0,0.0,0.0,0.0,0.0,0.0,0.0,0.0,0.0,0.0,0.0,0.0,0.0,0.0,0.0,0.0,0.0,0.0,0.0,0.0,0.0,0.0,0.0,0.0,0.0,0.0,-0.2781,-0.1641,-0.1002,-0.0829,-0.0251,0.0,0.0,0.0,0.0,0.0,0.0,0.0,0.0,0.4594,0.503,0.0,0.0,0.0,0.0,0.934,0.9878,0.0,0.0,0.0,0.0,0.0,0.0,0.0,0.0,1.3109,1.3152,1.3267,0.0,1.3897,1.3449,1.3224,1.3109,0.0,1.2992,1.2905,1.2905,1.2905,1.3003,1.3301,1.3442,1.3823,1.4805,1.5215,1.5615,1.6292,1.4693,1.2827,1.1186,0.9827,0.9193,0.9629,0.9125,0.8725,0.8563,0.786,0.7125,0.6394,0.5655,0.5029,0.4519,0.4489,0.4489,0.4489,0.4489,0.4489,0.4489,0.4294,0.393,0.34,0.3037,0.2203,0.109,0.0923,0.0532,0.0,0.0,0.0,0.0,0.0,0.0,0.0,0.0,0.0,-0.0112,0.0,0.0,0.0,0.0,0.0,0.0,0.0,0.0,0.0,0.0,0.0,0.0,0.0,0.0,0.0,0.0,0.0,0.0,0.0,0.0,0.0,0.0,0.0,0.0,0.0,0.0,0.0,0.0,0.0,-0.1772,0.0,0.0,0.0,0.0,0.0,0.0,0.0,0.0,0.0,0.0,0.4489,0.0,0.0,0.0,0.0,0.0,0.8654,0.9165,0.0,1.0111,1.0831,1.1462,0.0,0.0,0.0,0.0,1.2905,1.2905,1.2905,1.3272,1.3579,1.3263,1.3169,1.3169,1.3169,1.3042,1.2905,1.2905,1.2905,1.3013,1.3428,1.3641,1.406,1.498,1.5454,1.5681,1.5581,1.4243,1.2699,1.1174,0.9967,0.9413,0.9766,0.9185,0.8808,0.8808,0.8129,0.7533,0.713,0.6088,0.5326,0.4976,0.4651,0.4489,0.4489,0.4489,0.4489,0.4489,0.4489,0.4294,0.3903,0.3512,0.2899,0.2064,0.1396,0.0867,0.0476,0.014,0.0,0.0,0.0,0.0,0.0,0.0,0.0,-0.0056,0.0,0.0,0.0,0.0,0.0,0.0,0.0,0.0,0.0,0.0,0.0,0.0,0.0,0.0,0.0,0.0,0.0,0.0,0.0,0.0,0.0,0.0,0.0,0.0,0.0,0.0,0.0,0.0,0.0,0.0,0.0,0.0,-0.07,0.0,0.0,0.0,0.0,0.0,0.0,0.4322,0.4322,0.0,0.0,0.0,0.0,0.0,0.0,0.0,0.0,0.9238,1.0217,1.1291,1.162,0.0,0.0,0.0,0.0,0.0,1.2959,1.3286,1.3569,1.3447,1.3462,1.3491,1.3428,1.3135,1.2905,1.2905,1.2959,1.3101,1.3525,1.3924,1.4348,1.481,1.5522,1.5536,1.4296,1.3871,1.315,1.1636,1.0555,0.9965,0.9965,0.9338,0.8906,0.8808,0.8212,0.7833,0.7696,0.6522,0.5787,0.5678,0.5113,0.4761,0.4651,0.4543,0.4489,0.4489,0.4489,0.4489,0.4489,0.379,0.3427,0.3233,0.198,0.1313,0.1062,0.042,0.0112,0.0,0.0,0.0,0.0,0.0,0.0,0.0,0.0,0.0,0.0,0.0,0.0,0.0,0.0,0.0,0.0,0.0,0.0,0.0,0.0,0.0,0.0,0.0,0.0,0.0,0.0,0.0,0.0,0.0,0.0,0.0,0.0,0.0,0.0,0.0,0.0,0.0,-0.2021,-0.1393,-0.07,0.0,0.0,0.0,0.0,0.0,0.212,0.3482,0.3482,0.0,0.0,0.0,0.0,0.0,0.0,0.0,0.0,0.9053,0.9809,1.0629,1.1139,0.0,0.0,0.0,0.0,0.0,1.3315,1.369,1.3841,1.3154,1.3247,1.3418,1.3057,1.2949,1.2905,1.2905,1.3164,1.354,1.3934,1.439,1.4824,1.5244,1.5425,1.509,1.3862,1.3407,1.2955,1.2237,1.1259,1.064,1.064,1.0038,0.9409,0.8831,0.8699,0.8345,0.7723,0.7477,0.7069,0.645,0.6342,0.5984,0.5351,0.4787,0.4489,0.4489,0.4489,0.4489,0.4489,0.4377,0.393,0.3288,0.3065,0.2259,0.109,0.0978,0.056,0.0,0.0,0.0,0.0,0.0,0.0,0.0,0.0,0.0,0.0,0.0,0.0,0.0,0.0,0.0,0.0,0.0,0.0,0.0,0.0,0.0,0.0,0.0,0.0,0.0,0.0,0.0,0.0,0.0,0.0,0.0,0.0,0.0,0.0,0.0,0.0,-0.3144,-0.2065,-0.0998,-0.0336,0.0,0.0,0.0,0.0,0.0,0.198,0.3343,0.0,0.0,0.0,0.0,0.0,0.0,0.0,0.0,0.0,0.0,0.9262,0.9934,1.0319,0.0,0.0,0.0,0.0,0.0,1.314,1.3472,1.3701,1.3315,1.3716,1.4145,1.3981,1.3726,1.356,1.356,1.369,1.3953,1.4409,1.4648,1.4922,1.5342,1.5225,1.4776,1.3982,1.3545,1.3131,1.2681,1.187,1.1191,1.0838,1.0188,0.9514,0.8857,0.8808,0.8646,0.8318,0.7778,0.7393,0.7206,0.6678,0.6296,0.6091,0.5384,0.4868,0.4489,0.4489,0.4489,0.4489,0.4489,0.4294,0.393,0.0,0.2925,0.2287,0.1452,0.0895,0.056,0.0168,0.0,0.0,0.0,0.0,0.0,0.0,0.0,0.0,0.0,0.0,0.0,0.0,0.0,0.0,0.0,0.0,0.0,0.0,0.0,0.0,0.0,0.0,0.0,0.0,0.0,0.0,0.0,0.0,0.0,0.0,0.0,-0.4141,-0.3979,-0.3862,-0.3097,-0.1754,-0.0551,0.0,0.0,0.0,0.0,0.0,0.0839,0.173,0.3121,0.0,0.0,0.0,0.0,0.0,0.0,0.0,0.0,0.0,0.0,0.0,0.0,0.0,0.0,0.0,1.2001,1.2452,1.293,1.2998,1.3262,1.353,1.3628,1.4072,1.4512,1.4609,1.4297,1.3987,1.4085,1.4192,1.4362,1.4727,1.4896,1.4971,1.5093,1.4932,1.4595,1.4036,1.3685,1.3354,1.2959,1.2398,1.1798,1.1091,1.044,0.9762,0.9087,0.8883,0.8778,0.8711,0.8033,0.7704,0.7872,0.7118,0.6774,0.6856,0.623,0.5529,0.4734,0.4572,0.4489,0.4489,0.4489,0.4489,0.4462,0.3846,0.3512,0.3317,0.212,0.1424,0.1034,0.0476,0.014,0.0,0.0,0.0,0.0,0.0,0.0,0.0,0.0,0.0,0.0,0.0,0.0,0.0,0.0,0.0,0.0,0.0,0.0,0.0,0.0,0.0,0.0,0.0,0.0,0.0,0.0,0.0,0.0,0.0,-0.4294,-0.3924,-0.3361,-0.3222,-0.2484,-0.1142,-0.0358,0.0,0.0,0.0,0.0,0.0,0.0,0.0923,0.2286,0.2286,0.0,0.0,0.0,0.0,0.0,0.0,0.0,0.0,0.0,0.0,0.0,0.0,0.0,1.1918,1.2613,1.2856,1.2988,1.3354,1.3486,1.3599,1.3963,1.3817,1.3701,1.4065,1.3831,1.3662,1.4026,1.4453,1.4751,1.478,1.5107,1.5089,1.4323,1.4541,1.4524,1.3667,1.3525,1.3354,1.2959,1.2852,1.2535,1.1794,1.1116,1.0436,0.9788,0.9159,0.8687,0.8445,0.8586,0.8583,0.836,0.828,0.8037,0.761,0.733,0.6587,0.5431,0.4787,0.4489,0.4489,0.4489,0.4489,0.4489,0.4434,0.4041,0.34,0.3289,0.2399,0.109,0.1034,0.0616,0.0,0.0,0.0,0.0,0.0,0.0,0.0,0.0,0.0,0.0,0.0,0.0,0.0,0.0,0.0,0.0,0.0,0.0,0.0,0.0,0.0,0.0,0.0,0.0,0.0,0.0,0.0,-0.4489,-0.4489,-0.4228,-0.377,-0.3178,-0.2201,-0.1462,-0.0958,-0.0303,0.0,0.0,0.0,0.0,0.0,0.0,0.0588,0.1563,0.2008,0.2842,0.0,0.0,0.0,0.0,0.0,0.0,0.0,0.0,0.8577,0.9211,0.9488,1.0291,1.1241,1.1509,1.2201,1.2939,1.3101,1.3311,1.355,1.368,1.3602,1.3686,1.438,1.4177,1.3992,1.4448,1.4673,1.4813,1.4813,1.4917,1.4824,1.4206,1.4026,1.3882,1.3555,1.3281,1.3057,1.2925,1.2905,1.2613,1.1864,1.1562,1.0898,0.9651,0.9475,0.9042,0.8147,0.8179,0.8189,0.81,0.7936,0.7833,0.7825,0.7464,0.7078,0.6613,0.5599,0.4895,0.4489,0.4489,0.4489,0.4489,0.4489,0.4349,0.4042,0.3595,0.3037,0.2369,0.1452,0.0643,0.0,0.0,0.0,0.0,0.0,0.0,0.0,0.0,0.0,0.0,0.0,0.0,0.0,0.0,0.0,0.0,0.0,0.0,0.0,0.0,0.0,0.0,0.0,0.0,0.0,0.0,0.0,-0.4489,-0.4489,-0.3981,-0.3424,-0.281,-0.1331,-0.0624,-0.0613,0.0,0.0,0.0,0.0,0.0,0.0,0.0,0.0,0.1173,0.1898,0.2676,0.0,0.0,0.0,0.0,0.0,0.0,0.0,0.0,0.8185,0.8831,0.9061,0.974,1.0568,1.0986,1.1902,1.2824,1.3027,1.3291,1.354,1.3646,1.3578,1.3696,1.4414,1.4216,1.4031,1.4492,1.458,1.4536,1.4404,1.4492,1.4394,1.3802,1.3608,1.3462,1.333,1.3061,1.2905,1.2905,1.2905,1.2691,1.2187,1.1947,1.1284,1.0052,0.978,0.9186,0.8096,0.795,0.7862,0.7789,0.7598,0.7685,0.8042,0.7675,0.748,0.7413,0.6586,0.5708,0.4814,0.4598,0.4489,0.4489,0.4489,0.4489,0.4462,0.3958,0.3595,0.3176,0.1675,0.0783,0.0308,0.0084,0.0,0.0,0.0,0.0,0.0,0.0,0.0,0.0,0.0,0.0,0.0,0.0,0.0,0.0,0.0,0.0,0.0,0.0,0.0,0.0,0.0,0.0,0.0,0.0,0.0,-0.4489,-0.4489,-0.3565,-0.2786,-0.2197,-0.0717,0.0,0.0,0.0,0.0,0.0,0.0,0.0,0.0,0.0,0.0,0.0,0.1898,0.2675,0.3483,0.0,0.0,0.0,0.0,0.0,0.0,0.0,0.8182,0.8906,0.9588,0.0,0.0,1.1387,1.2142,1.2637,1.3317,1.3501,1.3578,1.3992,1.3787,1.3588,1.4002,1.3778,1.3602,1.4016,1.4099,1.3977,1.3579,1.3821,1.3826,1.3042,1.3228,1.3354,1.2964,1.2905,1.2905,1.2905,1.2905,1.2905,1.2905,1.2236,1.1623,1.1236,1.0088,0.9088,0.8346,0.8057,0.7786,0.7516,0.7506,0.7775,0.8382,0.8076,0.7843,0.7714,0.7694,0.6929,0.5485,0.4814,0.4519,0.4519,0.4489,0.4489,0.4489,0.4489,0.407,0.326,0.173,0.1118,0.1006,0.028,0.0,0.0,0.0,0.0,0.0,0.0,0.0,0.0,0.0,0.0,0.0,0.0,0.0,0.0,0.0,0.0,0.0,0.0,0.0,0.0,0.0,0.0,0.0,0.0,0.0,0.0,0.0,0.0,-0.2066,-0.1276,-0.0426,0.0,0.0,0.0,0.0,0.0,0.0,0.0,0.0,0.0,0.0,0.0,0.1703,0.2342,0.2704,0.0,0.0,0.0,0.0,0.0,0.0,0.0,0.0,0.0,0.8873,0.0,1.0276,1.0917,1.1708,1.2469,1.2941,1.3281,1.3467,1.3296,1.3384,1.3462,1.3291,1.3384,1.354,1.3641,1.367,1.3631,1.353,1.3608,1.3516,1.2969,1.3008,1.3047,1.2925,1.2905,1.2905,1.2905,1.2905,1.2905,1.2905,1.2392,1.1766,1.0972,1.0508,0.9752,0.8648,0.8323,0.8047,0.7791,0.7368,0.7238,0.7422,0.7736,0.7872,0.7842,0.7736,0.7208,0.6256,0.5519,0.5191,0.5164,0.4706,0.4489,0.4489,0.4489,0.407,0.3343,0.2842,0.2008,0.1062,0.0867,0.0448,0.0,0.0,0.0,0.0,0.0,0.0,0.0,0.0,0.0,0.0,0.0,0.0,-0.4489,0.0,0.0,0.0,0.0,0.0,0.0,0.0,0.0,0.0,0.0,0.0,0.0,0.0,-0.2675,-0.1659,0.0,0.0,0.0,0.0,0.0,0.0,0.0,0.0,0.0,0.0,0.0,0.0,0.0,0.1285,0.1953,0.2342,0.0,0.0,0.0,0.0,0.0,0.0,0.0,0.0,0.0,0.8212,0.8991,0.9892,1.0801,1.1621,1.2427,1.3389,1.3696,1.3709,1.3657,1.3569,1.3442,1.3188,1.3193,1.3257,1.3257,1.3257,1.3257,1.3257,1.3257,1.3179,1.2944,1.2905,1.2905,1.2905,1.2905,1.2905,1.2905,1.2905,1.2837,1.2637,1.2359,1.1832,1.0902,1.0573,0.9992,0.9073,0.8451,0.8157,0.8225,0.7419,0.7166,0.752,0.7675,0.7869,0.8085,0.8021,0.7814,0.7453,0.6416,0.5787,0.5458,0.4787,0.4489,0.4489,0.4489,0.4237,0.379,0.3483,0.2788,0.1898,0.1313,0.0811,0.0392,0.0,0.0,-0.3904,-0.4145,0.0,0.0,0.0,0.0,0.0,0.0,-0.4489,-0.4489,0.0,0.0,0.0,-0.4479,0.0,0.0,0.0,0.0,0.0,0.0,0.0,0.0,0.0,0.0,0.0,0.0,0.0,0.0,0.0,0.0,0.0,0.0,0.0,0.0,0.0,0.0,0.0,0.0056,0.0811,0.1507,0.2203,0.3066,0.0,0.0,0.0,0.0,0.0,0.0,0.0,0.0,0.767,0.8243,0.9218,1.0913,1.1737,1.2492,1.4175,1.435,1.4143,1.457,1.4053,1.3452,1.3452,1.3154,1.2905,1.2905,1.2905,1.2905,1.2905,1.2905,1.2905,1.2905,1.2905,1.2929,1.2968,1.2973,1.2973,1.2973,1.2973,1.2777,1.2247,1.2169,1.1794,1.0951,1.0405,0.9956,0.96,0.8598,0.8279,0.8756,0.7724,0.7514,0.8246,0.7808,0.7815,0.8315,0.8345,0.847,0.8675,0.7323,0.6256,0.5458,0.4868,0.4543,0.4489,0.4489,0.4489,0.4434,0.3763,0.3427,0.3148,0.1786,0.1201,0.1006,0.0,0.0,-0.4004,-0.4164,0.0,0.0,0.0,0.0,-0.4274,-0.447,-0.4489,-0.4489,-0.4489,-0.4464,0.0,-0.4486,-0.4462,0.0,0.0,0.0,0.0,0.0,0.0,0.0,0.0,0.0,0.0,0.0,0.0,0.0,0.0,0.0,0.0,0.0,0.0,0.0,0.0,0.0,0.0,0.0056,0.0811,0.1201,0.148,0.2815,0.3427,0.0,0.0,0.0,0.0,0.0,0.0,0.0,0.7506,0.8533,0.9654,1.034,1.14,1.2488,1.3138,1.3478,1.3662,1.3755,1.3394,1.3042,1.3042,1.2969,1.2905,1.2905,1.2905,1.2905,1.2905,1.2905,1.2905,1.2905,1.2905,1.306,1.3552,1.3618,1.3618,1.3618,1.3618,1.3241,1.2294,1.1909,1.1506,1.0947,1.05,1.0214,1.0123,0.9503,0.9199,0.9319,0.8691,0.8224,0.7996,0.8077,0.7981,0.7688,0.7909,0.8035,0.8084,0.7645,0.674,0.5485,0.5353,0.4974,0.4489,0.4489,0.4489,0.4489,0.4322,0.3901,0.3343,0.2954,0.2092,0.109,0.0,0.0,0.0,0.0,0.0,0.0,0.0,0.0,-0.4274,-0.447,-0.4489,-0.4489,-0.4489,-0.4489,0.0,0.0,-0.4489,-0.4489,0.0,0.0,0.0,0.0,0.0,0.0,0.0,0.0,0.0,0.0,0.0,0.0,0.0,0.0,0.0,0.0,0.0,0.0,0.0,0.0,0.0,0.0028,0.042,0.0783,0.1173,0.1953,0.2453,0.2871,0.3651,0.0,0.0,0.0,0.0,0.0,0.0,0.0,0.92,1.0268,1.1209,1.2105,1.3224,1.3364,1.3202,1.3205,1.3067,1.2905,1.2905,1.2905,1.2905,1.2905,1.2905,1.2997,1.3286,1.3084,1.3089,1.3663,1.3515,1.3534,1.4149,1.4236,1.4236,1.4236,1.398,1.3479,1.2719,1.2012,1.1398,1.0947,1.0522,1.0303,1.0303,0.9799,0.9617,0.9878,0.9119,0.8679,0.8659,0.8553,0.8278,0.7892,0.8019,0.8018,0.7898,0.7622,0.7088,0.632,0.5745,0.5298,0.4948,0.4625,0.4489,0.4489,0.4489,0.4265,0.3875,0.3456,0.2814,0.2064,0.0,0.0,0.0,0.0,0.0,0.0,0.0,0.0,0.0,-0.4275,-0.4406,-0.4489,-0.4489,-0.4489,-0.4489,0.0,0.0,0.0,-0.4489,0.0,0.0,0.0,0.0,0.0,0.0,0.0,0.0,0.0,0.0,0.0,0.0,0.0,0.0,0.0,0.0,0.0,0.0,0.0,0.0,0.0,0.0,0.0364,0.0923,0.1062,0.148,0.212,0.2982,0.3343,0.3483,0.4237,0.0,0.0,0.0,0.0,0.8487,1.0006,1.0857,1.1643,1.3215,1.3252,1.2859,1.298,1.2959,1.2905,1.2905,1.2905,1.2929,1.3041,1.3065,1.3219,1.3708,1.3491,1.3544,1.4548,1.4283,1.4167,1.4766,1.4858,1.4858,1.4858,1.4324,1.3724,1.3163,1.2196,1.1398,1.0947,1.0522,1.0303,1.0303,0.9878,0.9839,1.0283,0.9439,0.9139,0.9498,0.9059,0.8642,0.823,0.8118,0.7952,0.7736,0.7459,0.7332,0.7251,0.6161,0.5624,0.546,0.4787,0.4489,0.4489,0.4489,0.4489,0.4406,0.3761,0.3427,0.3122,0.0,0.0,0.0,0.0,0.0,0.0,0.0,0.0,0.0,0.0,-0.407,-0.4489,-0.4489,-0.4489,-0.4489,-0.4489,-0.4489,-0.4489,0.0,0.0,0.0,0.0,0.0,0.0,0.0,0.0,0.0,0.0,0.0,0.0,0.0,0.0,0.0,0.0,0.0,0.0,0.0,0.0,0.0,0.0,0.0,0.0056,0.0224,0.0867,0.1173,0.1424,0.2814,0.3316,0.3428,0.4237,0.495,0.0,0.0,0.0,0.826,0.8484,0.9852,1.1307,1.1326,1.1923,1.2692,1.3269,1.3149,1.2905,1.2905,1.2905,1.306,1.3576,1.3684,1.3703,1.3797,1.4149,1.4502,1.4681,1.4635,1.4789,1.5387,1.5471,1.5471,1.5471,1.4943,1.4184,1.3207,1.2196,1.1398,1.0947,1.0522,1.0303,1.0303,1.0239,1.0225,1.0303,1.0162,0.9898,0.9498,0.9423,0.8903,0.7938,0.7423,0.7147,0.713,0.7359,0.7413,0.728,0.6703,0.6091,0.546,0.4787,0.4489,0.4489,0.4489,0.4489,0.4489,0.4377,0.3901,0.3288,0.0,0.0,0.0,0.0,0.0,0.0,0.0,0.0,0.0,0.0,0.0,-0.4489,-0.4489,-0.4489,-0.4489,-0.4489,-0.4489,0.0,0.0,0.0,0.0,0.0,0.0,0.0,0.0,0.0,0.0,0.0,0.0,0.0,0.0,0.0,0.0,0.0,0.0,0.0,0.0,0.0,0.0,0.0,0.0,0.0,0.0029,0.0367,0.0482,0.0632,0.1686,0.2342,0.2815,0.3623,0.4343,0.5003,0.538,0.0,0.0,0.0,0.8969,1.0034,1.1156,1.2278,1.3172,1.3442,1.3369,1.3174,1.2959,1.3152,1.3486,1.375,1.4342,1.4818,1.4818,1.4761,1.4932,1.5611,1.5416,1.5416,1.603,1.6095,1.6095,1.6095,1.5571,1.5026,1.4552,1.3048,1.2023,1.1818,1.087,1.0303,1.0303,1.0303,1.0303,1.0303,1.0303,1.0186,0.9957,0.9942,0.9558,0.8781,0.7921,0.751,0.7499,0.7507,0.7472,0.7396,0.6914,0.6401,0.5833,0.5126,0.4707,0.4489,0.4489,0.4489,0.4489,0.4489,0.4265,0.3903,0.0,0.0,0.0,0.0,0.0,0.0,0.0,0.0,0.0,0.0,0.0,-0.4489,-0.4489,0.0,0.0,0.0,-0.4489,0.0,0.0,0.0,0.0,0.0,0.0,0.0,0.0,0.0,0.0,0.0,0.0,0.0,0.0,0.0,0.0,0.0,0.0,0.0,0.0,0.0,0.0,0.0,0.0,0.0,0.0,0.0,0.0,0.0089,0.0839,0.1453,0.2062,0.3077,0.3761,0.4319,0.5027,0.5526,0.0,0.0,0.0,0.8874,1.1135,1.2392,1.3147,1.3445,1.3507,1.3469,1.3313,1.3544,1.3891,1.4185,1.4971,1.5654,1.5798,1.5466,1.545,1.6358,1.6117,1.598,1.6451,1.6494,1.6494,1.6494,1.5964,1.561,1.561,1.3839,1.2631,1.2505,1.1236,1.0433,1.0303,1.0303,1.0303,1.0303,1.0303,1.0303,1.0303,1.0162,0.9898,0.9483,0.8415,0.7895,0.7882,0.7536,0.7377,0.7349,0.6974,0.6618,0.6283,0.545,0.4932,0.4651,0.4529,0.4489,0.4489,0.4489,0.4489,0.4406,0.0,0.0,0.0,0.0,0.0,0.0,0.0,0.0,0.0,0.0,0.0,-0.4489,-0.4489,-0.4489,-0.4489,-0.4489,-0.4489,0.0,0.0,0.0,0.0,0.0,0.0,0.0,0.0,0.0,0.0,0.0,0.0,0.0,0.0,0.0,0.0,0.0,0.0,0.0,0.0,0.0,0.0,0.0,0.0,0.0,0.0,0.0,0.0,0.0092,0.0828,0.1112,0.1376,0.2892,0.3376,0.3511,0.4293,0.5009,0.5527,0.0,0.0,0.0,1.0672,1.1475,1.1932,1.3276,1.3561,1.3639,1.4206,1.4054,1.4115,1.527,1.5565,1.577,1.6352,1.6429,1.6429,1.65,1.6472,1.6466,1.6494,1.6494,1.6494,1.6494,1.5964,1.561,1.561,1.4117,1.2976,1.2526,1.1544,1.0778,1.0317,1.0303,1.0303,1.0303,1.0303,1.0303,1.0303,0.9799,0.9523,0.9483,0.8415,0.7895,0.7874,0.7293,0.7023,0.7011,0.6872,0.6789,0.6673,0.5571,0.5092,0.504,0.4649,0.4489,0.4489,0.4489,0.4489,0.4489,0.0,0.0,0.0,0.0,0.0,0.0,0.0,0.0,0.0,0.0,0.0,0.0,0.0,-0.4489,-0.4489,-0.4489,-0.4489,0.0,0.0,0.0,0.0,0.0,0.0,0.0,0.0,0.0,-0.1702,-0.07,-0.0224,0.0,0.0,0.0,0.0,0.0,0.0,0.0,0.0,0.0,0.0,0.0,0.0,0.0,0.0,0.0,0.0,0.0032,0.0311,0.0704,0.118,0.1723,0.2218,0.2735,0.3482,0.3937,0.4417,0.5789,0.7067,0.8417,1.0275,1.0939,1.1471,1.2918,1.3254,1.3442,1.4214,1.4588,1.4921,1.5468,1.5908,1.6238,1.6451,1.6494,1.6494,1.6494,1.6494,1.6494,1.6494,1.6494,1.6494,1.6494,1.6309,1.6188,1.6188,1.507,1.4125,1.3578,1.2603,1.1662,1.0793,1.0739,1.0616,1.0322,1.0303,1.0303,1.0303,1.0103,1.002,1.0,0.9279,0.874,0.8398,0.7821,0.7363,0.6992,0.6955,0.6779,0.6478,0.5674,0.5209,0.4918,0.4474,0.4297,0.4336,0.4455,0.4489,0.4489,0.0,0.0,0.0,-0.2342,0.0,-0.1703,-0.0224,-0.1897,-0.3065,-0.2286,0.0,0.0,0.0,0.0,-0.4489,-0.4489,-0.4489,0.0,0.0,0.0,0.0,0.0,0.0,0.0,0.0,0.0,-0.1841,-0.109,-0.0364,0.0,0.0,0.0,0.0,0.0,0.0,0.0,0.0,0.0,0.0,0.0,0.0,0.0,0.0,0.0,0.0,0.0,0.0,0.0316,0.0782,0.1032,0.1438,0.1992,0.2996,0.3522,0.4091,0.5737,0.6908,0.7963,0.9347,1.0239,1.1014,1.2104,1.2625,1.314,1.4057,1.4639,1.5158,1.5728,1.6154,1.6451,1.6482,1.6494,1.6494,1.6494,1.6494,1.6494,1.6494,1.6494,1.6494,1.6494,1.6494,1.6494,1.6494,1.5729,1.4922,1.4159,1.3303,1.2303,1.1078,1.0995,1.0772,1.0322,1.0303,1.0303,1.0303,1.0303,1.0303,1.0298,0.976,0.9219,0.8679,0.8139,0.7576,0.7,0.7,0.6849,0.6555,0.6013,0.5517,0.505,0.4614,0.4299,0.4163,0.4336,0.439,0.4397,-0.4655,-0.402,-0.3177,-0.2342,-0.2203,-0.1703,-0.0224,-0.1925,-0.3094,-0.2314,0.0,0.0,0.0,0.0,0.0,-0.4489,-0.4489,-0.4489,-0.4489,0.0,0.0,0.0,0.0,0.0,0.0,0.0,0.0,0.0,0.0,0.0,0.0,0.0,0.0,0.0,0.0,0.0,0.0,0.0,0.0,0.0,0.0,0.0,0.0,0.0,0.0,0.0,0.0,0.0,0.0097,0.0839,0.1075,0.1317,0.2811,0.3808,0.4596,0.5298,0.6009,0.6797,0.0,0.0,0.0,1.0808,1.1666,1.2719,1.3741,1.4169,1.4735,1.5991,1.6256,1.6311,1.6458,1.65,1.6494,1.6494,1.6494,1.6494,1.6494,1.6494,1.6494,1.6494,1.6494,1.6494,1.6494,1.6032,1.5279,1.4199,1.363,1.2662,1.1134,1.1019,1.0797,1.0337,1.0322,1.0303,1.0303,1.0303,1.0303,1.0298,0.978,0.9239,0.87,0.816,0.7597,0.7021,0.7003,0.7,0.696,0.6564,0.6037,0.5449,0.5042,0.4529,0.4008,0.4133,0.4189,0.4233,-0.4544,-0.435,-0.3761,-0.2425,-0.2203,-0.1703,-0.0224,-0.1452,-0.2453,0.0,0.0,0.0,-0.4489,-0.4489,-0.4489,-0.4489,-0.4489,-0.4489,-0.4489,-0.4489,0.0,0.0,0.0,0.0,0.0,0.0,0.0,0.0,0.0,0.0,0.0,0.0,0.0,0.0,0.0,0.0,0.0,0.0,0.0,0.0,0.0,0.0,0.0,0.0,0.0,0.0,0.0,0.0,0.0033,0.0233,0.0294,0.0568,0.2028,0.3064,0.3953,0.5158,0.5649,0.61,0.7478,0.0,0.0,0.0,0.0,0.0,1.318,1.3609,1.395,1.4949,1.548,1.5794,1.585,1.6216,1.6494,1.6494,1.6494,1.6494,1.6494,1.6494,1.6494,1.6494,1.6494,1.6494,1.6494,1.6377,1.5826,1.4765,1.4541,1.3757,1.2178,1.1407,1.0938,1.0816,1.0486,1.0303,1.0303,1.0303,1.0303,1.0303,1.0142,0.9799,0.9259,0.872,0.8172,0.7617,0.7192,0.7,0.6964,0.6468,0.5905,0.5311,0.491,0.4398,0.3873,0.4003,0.4058,0.4063,-0.4489,-0.3987,-0.326,-0.237,-0.1703,-0.1006,-0.014,-0.1257,-0.2203,0.0,0.0,0.0,-0.4489,-0.4489,-0.4489,-0.4489,-0.4489,-0.4489,-0.4489,-0.4489,-0.4489,-0.4489,-0.4489,-0.4489,0.0,0.0,0.0,0.0,0.0,0.0,0.0,0.0,0.0,0.0,0.0,0.0,0.0,0.0,0.0,0.0,0.0,0.0,0.0,0.0,0.0,0.0,0.0,0.0,0.0,0.0,0.0193,0.0597,0.1484,0.2538,0.3639,0.4399,0.51,0.5782,0.6574,0.7015,0.7589,0.8978,0.0,0.0,1.1817,1.262,1.3249,1.4,1.4662,1.513,1.5204,1.5511,1.5744,1.5744,1.597,1.621,1.6466,1.6494,1.6494,1.6494,1.6494,1.6494,1.6494,1.6494,1.6158,1.5305,1.5022,1.4193,1.2597,1.1763,1.1226,1.1019,1.072,1.0505,1.0303,1.0303,1.0303,1.0303,1.0303,1.002,0.9483,0.9179,0.874,0.8197,0.7635,0.7381,0.7342,0.6771,0.6194,0.5626,0.5138,0.4735,0.4418,0.4318,0.4284,0.4304,0.0,-0.3343,-0.2314,-0.2203,-0.1062,-0.0084,0.0,-0.1257,-0.2203,0.0,-0.3539,-0.4489,-0.4489,-0.4489,-0.4489,-0.4489,-0.4489,-0.4489,-0.4489,-0.4489,-0.4489,-0.4489,-0.4489,-0.4489,-0.4489,0.0,0.0,0.0,0.0,0.0,0.0,0.0,0.0,0.0,0.0,0.0,0.0,0.0,0.0056,0.0112,0.0029,0.0,0.0,0.0,0.0,0.0,0.0,0.0,0.0,0.0,0.0432,0.0985,0.1077,0.2121,0.3341,0.3413,0.4422,0.5563,0.5566,0.6021,0.6708,0.7417,0.8058,0.0,1.0019,1.1233,1.2278,1.2981,1.3641,1.4181,1.4447,1.4532,1.4601,1.4681,1.5214,1.5798,1.6309,1.6451,1.6494,1.6494,1.6494,1.6494,1.6494,1.6494,1.6289,1.5737,1.5148,1.4194,1.2746,1.2173,1.1658,1.1183,1.1051,1.0797,1.0375,1.0322,1.0303,1.0303,1.0303,1.0059,0.9582,0.9523,0.9239,0.8756,0.8156,0.7895,0.7853,0.7255,0.6686,0.6136,0.561,0.5348,0.5265,0.4897,0.4734,0.4716,-0.4489,-0.379,-0.2955,-0.2314,-0.148,-0.0671,-0.0084,-0.1257,-0.2203,-0.2203,-0.3539,-0.4489,-0.4489,-0.4489,-0.4489,-0.4489,-0.4489,-0.4489,-0.4489,-0.4489,-0.4489,-0.4489,-0.4489,-0.4489,-0.4489,-0.3707,0.0,0.0,0.0,0.0,0.0,0.0,0.0,0.0,0.0,0.0,0.0,0.0,0.0336,0.0839,0.0226,0.0,0.0,0.0,0.0,0.0,0.0,0.0,0.0,0.0,0.0093,0.0308,0.0924,0.1323,0.184,0.3177,0.3785,0.4306,0.5565,0.6001,0.6258,0.6889,0.7147,0.0,0.8781,0.9243,0.9807,1.1057,1.1791,1.2422,1.3048,1.3575,1.4072,1.4601,1.5214,1.5632,1.577,1.6188,1.6494,1.6494,1.6494,1.6494,1.6494,1.6494,1.6289,1.5737,1.4789,1.4117,1.3801,1.2878,1.2324,1.2204,1.1425,1.0962,1.0867,1.0486,1.0303,1.0303,1.0303,1.0244,1.0123,0.9701,0.9439,0.9279,0.8316,0.7895,0.7853,0.7255,0.6686,0.6181,0.6072,0.572,0.5289,0.5201,0.4886,0.4499,-0.4489,-0.3901,-0.3149,-0.2342,-0.1591,-0.0978,-0.0615,-0.148,-0.2342,-0.2703,-0.3761,-0.4489,-0.4489,-0.4489,-0.4489,-0.4489,-0.4489,-0.4489,-0.4489,-0.4489,-0.4489,-0.4489,-0.4489,-0.4489,-0.4489,-0.4098,0.0,0.0,0.0,0.0,0.0,0.0,0.0,0.0,0.0,0.0,0.0028,0.0392,0.0755,0.1062,0.07,0.0542,0.0558,0.0549,0.0319,0.0,0.0,0.0,0.0,0.0,0.0,0.006,0.0422,0.0852,0.135,0.2112,0.3004,0.3868,0.4597,0.5118,0.5594,0.6191,0.634,0.0,0.0,0.8452,0.8995,1.0078,1.071,1.1156,1.1527,1.1854,1.2272,1.2957,1.3708,1.4326,1.4653,1.5738,1.6494,1.6494,1.6494,1.6494,1.6494,1.6494,1.6289,1.5737,1.5204,1.467,1.4135,1.3592,1.3046,1.2514,1.2006,1.1518,1.0995,1.0764,1.0539,1.0303,1.0303,1.0303,1.0298,1.002,0.9902,0.9858,0.9039,0.8541,0.8255,0.7673,0.7108,0.658,0.6307,0.6173,0.6121,0.5846,0.5373,0.4933,-0.4489,-0.3901,-0.3122,-0.2342,-0.1591,-0.109,-0.109,-0.173,-0.2509,-0.3427,-0.4098,-0.4489,-0.4489,-0.4489,-0.4503,-0.4532,-0.4534,-0.4534,-0.4534,-0.4534,-0.4522,-0.4491,-0.4489,-0.4489,-0.4489,-0.4349,0.0,0.0,0.0,0.0,0.0,-0.0336,0.0,0.0,0.014,0.0224,0.0252,0.1006,0.1396,0.1507,0.1368,0.1229,0.109,0.095,0.0532,0.0,0.0,0.0,0.0,0.0,0.0,0.0,0.0,0.0481,0.1072,0.1135,0.217,0.332,0.3409,0.4055,0.4787,0.5269,0.5485,0.5895,0.0,0.0,0.0,0.9042,0.9452,0.9704,0.9848,0.9946,1.0221,1.0957,1.1877,1.2719,1.3301,1.4886,1.6045,1.6309,1.6337,1.638,1.65,1.6494,1.6312,1.5888,1.5756,1.5324,1.445,1.4217,1.3709,1.283,1.2615,1.2078,1.1169,1.1051,1.0759,1.0303,1.0303,1.0303,1.0303,1.0303,1.0303,1.0278,0.974,0.9199,0.8659,0.8118,0.7555,0.6961,0.652,0.6623,0.6937,0.6517,0.598,0.5603,-0.4489,-0.3846,-0.3065,-0.2342,-0.1591,-0.109,-0.109,-0.173,-0.2731,-0.4182,-0.4432,-0.4489,-0.4489,-0.4489,-0.4544,-0.468,-0.4663,-0.4663,-0.4663,-0.4663,-0.4633,-0.4494,-0.4489,-0.4489,-0.4489,0.0,0.0,0.0,0.0,0.0,0.0,0.0,0.0,0.0028,0.0671,0.0978,0.1034,0.1758,0.2453,0.2982,0.2342,0.1675,0.1034,0.0364,0.0084,0.0,0.0,0.0,0.0,0.0,0.0,0.0,0.0,0.006,0.0308,0.1043,0.1412,0.1753,0.2582,0.335,0.3903,0.3868,0.4334,0.4989,0.5614,0.0,0.6081,0.6821,0.0,0.7222,0.7799,0.0,0.0,0.9736,1.0771,1.1577,1.1902,1.3131,1.4448,1.5559,1.5698,1.5908,1.6445,1.6494,1.6469,1.6406,1.5975,1.5657,1.5511,1.462,1.4035,1.3918,1.3004,1.2252,1.1713,1.1244,1.0759,1.0303,1.0303,1.0303,1.0303,1.0303,1.0303,1.0278,0.974,0.9199,0.8659,0.8118,0.7555,0.7,0.694,0.6937,0.7,0.694,0.6559,0.6134,-0.4489,-0.4237,-0.3623,-0.2398,-0.1953,-0.173,-0.173,-0.2759,-0.3761,-0.4406,-0.4489,-0.4489,-0.4489,-0.4569,-0.465,-0.4685,-0.4772,-0.4785,-0.4696,-0.4691,-0.4662,-0.4626,-0.4537,-0.4532,-0.4621,-0.4225,0.0,0.0,-0.2482,0.0,0.0,0.0,0.0,0.0,0.0336,0.07,0.1146,0.1897,0.2648,0.3289,0.2509,0.2008,0.1647,0.0923,0.0364,0.0,0.0,0.0,0.0,0.0,0.0,0.0,0.0,0.0,0.0059,0.0448,0.0899,0.1384,0.1776,0.2521,0.3142,0.2985,0.3195,0.3683,0.4634,0.4871,0.5202,0.6367,0.0,0.0,0.0,0.0,0.0,0.0,0.8746,0.9414,1.0193,1.094,1.2145,1.4253,1.4846,1.5298,1.5914,1.6211,1.6418,1.6497,1.6281,1.6032,1.5712,1.5273,1.4746,1.4122,1.3654,1.2896,1.1816,1.1584,1.1062,1.0303,1.0303,1.0303,1.0303,1.0303,1.0303,1.0283,1.0059,0.9661,0.9119,0.8578,0.8028,0.7492,0.7126,0.7,0.7,0.7,0.6665,0.6281,-0.4489,-0.4489,-0.4013,-0.2481,-0.2203,-0.2203,-0.2203,-0.3512,-0.4489,-0.4489,-0.4489,-0.4489,-0.4489,-0.4588,-0.4662,-0.4745,-0.4853,-0.4889,-0.4816,-0.4775,-0.4753,-0.4753,-0.4593,-0.4563,-0.4687,-0.4569,-0.4489,-0.4489,-0.3149,0.0,0.0,0.0,-0.0196,0.0,0.0224,0.07,0.1452,0.2203,0.2954,0.3623,0.2815,0.2258,0.1813,0.109,0.0476,0.0,0.0,0.0,0.0,0.0,0.0,0.0,0.0,0.0,0.0,0.0,0.0435,0.0933,0.0955,0.159,0.2235,0.2154,0.2257,0.267,0.3598,0.3796,0.4099,0.5175,0.5235,0.0,0.0,0.0,0.5859,0.6607,0.0,0.7538,0.8432,0.9057,1.0317,1.2753,1.3852,1.4681,1.5292,1.566,1.5971,1.6225,1.6259,1.6157,1.5923,1.5775,1.528,1.4343,1.4185,1.3362,1.1816,1.1792,1.1292,1.0303,1.0303,1.0303,1.0303,1.0303,1.0303,1.0303,1.0303,1.0,0.9459,0.8918,0.8378,0.7833,0.7234,0.7,0.7,0.7,0.675,0.6505,-0.4489,-0.4489,-0.4013,-0.2481,-0.2203,-0.2203,-0.2203,-0.3512,-0.4489,-0.4489,-0.4489,-0.4489,-0.4489,-0.4493,-0.4617,-0.4886,-0.4886,-0.4945,-0.5076,-0.4956,-0.4882,-0.4882,-0.4653,-0.4563,-0.4687,-0.4569,-0.4489,-0.4489,-0.3678,-0.2899,0.0,0.0,0.0,0.0,0.0755,0.148,0.2203,0.2954,0.3734,0.4406,0.3595,0.2398,0.1062,0.0308,0.0028,0.0,0.0,0.0,0.0,0.0,0.0,0.0,0.0,0.0,0.0,0.0,0.0028,0.0028,0.0028,0.0589,0.1149,0.1148,0.1677,0.2233,0.2259,0.2259,0.2286,0.2341,0.2339,0.2559,0.3253,0.3776,0.439,0.5389,0.5936,0.0,0.0,0.7865,0.9398,1.1162,1.2762,1.3996,1.4646,1.4738,1.5011,1.5588,1.5632,1.588,1.6447,1.5982,1.5456,1.4884,1.4368,1.3362,1.1816,1.1792,1.1292,1.0303,1.0303,1.0303,1.0303,1.0303,1.0303,1.0303,1.0303,1.0,0.9459,0.8918,0.8378,0.7833,0.7234,0.7,0.7,0.7,0.7,0.6979,-0.4489,-0.4489,-0.4013,-0.2481,-0.2187,-0.2235,-0.2374,-0.3682,-0.4641,-0.4641,-0.4554,-0.4489,-0.4489,-0.458,-0.4696,-0.487,-0.4975,-0.5047,-0.5095,-0.5054,-0.5027,-0.5027,-0.487,-0.4833,-0.4948,-0.4838,-0.4716,-0.4641,-0.3862,-0.3049,0.0,0.0,0.0,0.0,0.0252,0.0783,0.1507,0.2258,0.301,0.3649,0.2871,0.198,0.1006,0.028,0.0,0.0,0.0,0.0,0.0,0.0,0.0,0.0,0.0,0.0,0.0,0.0,0.0,0.0,0.0,0.0196,0.0364,0.0364,0.056,0.0867,0.1368,0.148,0.1619,0.2092,0.2203,0.2286,0.2537,0.2703,0.3101,0.3967,0.4208,0.4556,0.0,0.6531,0.7767,0.9042,1.119,1.2793,1.3396,1.4068,1.4822,1.5539,1.561,1.5858,1.6472,1.634,1.5819,1.4921,1.4727,1.3722,1.1816,1.1792,1.1292,1.0298,0.999,0.983,0.9825,0.9565,0.9434,0.9434,0.9434,0.9481,0.9502,0.8696,0.84,0.8354,0.7465,0.7086,0.7,0.7,0.7,0.7,-0.4489,-0.4534,-0.4058,-0.2469,-0.2246,-0.2461,-0.2909,-0.3949,-0.4691,-0.4691,-0.4585,-0.4489,-0.4489,-0.4578,-0.4692,-0.487,-0.497,-0.5069,-0.5204,-0.5128,-0.5123,-0.5209,-0.5023,-0.4955,-0.5095,-0.496,-0.4843,-0.4691,-0.4219,-0.337,-0.2203,0.0,0.0,0.0,0.0,0.042,0.1146,0.1897,0.2648,0.326,0.2509,0.1758,0.1006,0.028,0.0,0.0,0.0,0.0,0.0,0.0,0.0,0.0,0.0,0.0,0.0,0.0,0.0,0.0,0.0,0.0,0.0,0.0,0.0,0.0136,0.0603,0.0714,0.0854,0.131,0.1424,0.1507,0.1758,0.1814,0.2064,0.2843,0.3149,0.3713,0.0,0.5589,0.635,0.732,0.9596,1.1396,1.222,1.3018,1.3883,1.488,1.5163,1.5549,1.6151,1.638,1.6013,1.4921,1.489,1.3987,1.2077,1.1884,1.1304,1.0327,0.9839,0.9533,0.9382,0.9114,0.9004,0.9004,0.9004,0.9143,0.9331,0.8533,0.8296,0.8357,0.7531,0.7113,0.7,0.7,0.7,0.7,-0.4501,-0.4602,-0.4179,-0.2619,-0.2476,-0.2865,-0.3672,-0.4322,-0.4701,-0.4701,-0.459,-0.4489,-0.4489,-0.4489,-0.461,-0.4882,-0.4886,-0.5042,-0.5365,-0.522,-0.5206,-0.5388,-0.5091,-0.4973,-0.5108,-0.4978,-0.4863,-0.4701,-0.4673,-0.3809,-0.2203,0.0,0.0,0.0,0.0,0.0392,0.109,0.1869,0.2675,0.3317,0.2537,0.1758,0.1006,0.028,0.0,0.0,0.0,0.0,0.0,0.0,0.0,0.0,0.0,0.0,0.0,0.0,0.0,0.0,0.0,0.0,0.0,0.0,0.0,0.0,0.0,0.0,0.0,0.0,0.0,0.0224,0.092,0.1033,0.1285,0.2036,0.2783,0.3761,0.5066,0.5044,0.5198,0.604,0.8018,0.9801,1.1111,1.1581,1.2318,1.3637,1.429,1.492,1.5565,1.6145,1.5971,1.4921,1.489,1.4125,1.2514,1.2029,1.1329,1.0395,0.9839,0.9362,0.897,0.895,0.894,0.894,0.894,0.8955,0.8936,0.839,0.8119,0.7978,0.7432,0.7123,0.7,0.7,0.7,0.7,-0.4662,-0.4322,-0.4104,-0.4325,-0.3944,-0.3706,-0.3918,-0.4458,-0.4862,-0.4862,-0.4656,-0.4489,-0.4489,-0.4489,-0.4568,-0.4733,-0.4853,-0.4965,-0.5179,-0.526,-0.5354,-0.5394,-0.5322,-0.5296,-0.5334,-0.5298,-0.5121,-0.4862,-0.4312,-0.3394,-0.2175,0.0,0.0,0.0,0.0,0.0112,0.0364,0.1647,0.2675,0.3317,0.2537,0.1758,0.1006,0.028,0.0,0.0,0.0,0.0,0.0,0.0,0.0,0.0,0.0,0.0,0.0,0.0,0.0,0.0,0.0,0.0,0.0,0.0,0.0,0.0,0.0,0.0,0.0,0.0,0.0,0.0054,0.0243,0.0275,0.0532,0.1257,0.2376,0.3456,0.4353,0.4719,0.4978,0.5198,0.677,0.8138,0.8865,1.0494,1.1827,1.2629,1.3512,1.448,1.5537,1.5748,1.5535,1.4921,1.489,1.4125,1.2514,1.2029,1.1329,1.0395,0.9552,0.8945,0.8541,0.8188,0.8037,0.8037,0.8037,0.8227,0.8516,0.8033,0.8138,0.8512,0.7672,0.7212,0.7,0.7,0.7,0.7,-0.487,-0.4657,-0.4659,-0.5219,-0.4861,-0.448,-0.4488,-0.4715,-0.4864,-0.4828,-0.4639,-0.4489,-0.4489,-0.4489,-0.4552,-0.4677,-0.477,-0.4882,-0.4997,-0.512,-0.5169,-0.5169,-0.5169,-0.5198,-0.5259,-0.526,-0.5148,-0.4889,-0.415,-0.3242,-0.2175,0.0,0.0,0.0,0.0,0.0,0.0084,0.1229,0.198,0.2342,0.1898,0.1285,0.0,0.0168,0.0,0.0,0.0,0.0,0.0,0.0,0.0,0.0,0.0,0.0,0.0,0.0,0.0,0.0,0.0,0.0,0.0,0.0,0.0,0.0,0.0,0.0,0.0,0.0,0.0,0.0,0.0,0.0,0.0248,0.0976,0.2005,0.2941,0.3617,0.422,0.457,0.4521,0.5816,0.6788,0.6939,0.9334,1.1157,1.1839,1.2889,1.4009,1.5152,1.5454,1.5483,1.526,1.5016,1.4356,1.3203,1.2266,1.1344,1.043,0.947,0.8682,0.8086,0.7827,0.77,0.77,0.77,0.7856,0.8076,0.7812,0.7907,0.8167,0.7428,0.7044,0.6928,0.7118,0.7278,0.7384,-0.5159,-0.5326,-0.5496,-0.5593,-0.5364,-0.5122,-0.5101,-0.4961,-0.4841,-0.4707,-0.4585,-0.4489,-0.4489,-0.4489,-0.4542,-0.4677,-0.4679,-0.4746,-0.488,-0.4877,-0.4889,-0.4889,-0.4889,-0.4955,-0.5095,-0.5098,-0.5031,-0.4889,-0.4057,-0.3154,-0.2175,0.0,0.0,0.0,0.0,0.0056,0.0196,0.0839,0.109,0.109,0.109,0.0671,0.0,0.0,0.0,0.0,0.0,0.0,0.0,0.0,0.0,0.0,0.0,0.0,0.0,0.0,0.0,0.0,0.0,0.0,0.0,0.0,0.0,0.0,0.0,0.0,0.0,0.0,0.0,0.0,0.0,0.0053,0.0375,0.1111,0.1835,0.2555,0.3191,0.3847,0.4201,0.4068,0.5245,0.0,0.5633,0.8334,1.0408,1.1142,1.2288,1.3419,1.4515,1.5141,1.5514,1.5589,1.514,1.4607,1.3994,1.2539,1.1334,1.0387,0.9444,0.8543,0.77,0.77,0.77,0.77,0.77,0.77,0.77,0.77,0.7615,0.7465,0.7126,0.6937,0.6924,0.7338,0.7696,0.8016,-0.5657,-0.5706,-0.5732,-0.5759,-0.5518,-0.5277,-0.5118,-0.4902,-0.4721,-0.4694,-0.4585,-0.4489,-0.4489,-0.4489,-0.4501,-0.4527,-0.4648,-0.4701,-0.473,-0.4848,-0.4889,-0.4889,-0.4889,-0.4955,-0.5095,-0.5098,-0.5031,-0.4889,-0.3564,-0.265,-0.2175,-0.0811,-0.0112,0.0,0.0,0.0336,0.0923,0.1034,0.109,0.109,0.109,0.0671,0.0,0.0,0.0,0.0,0.0,0.0,0.0,0.0,0.0,0.0,0.0,0.0,0.0,0.0,0.0,0.0,0.0,0.0,0.0,0.0,0.0,0.0,0.0,0.0,0.0,0.0,0.0,0.0,0.0,0.0415,0.1013,0.1879,0.2535,0.3238,0.4134,0.437,0.4441,0.4416,0.5645,0.638,0.6099,0.8176,0.9715,1.0131,1.1313,1.2585,1.3881,1.4532,1.4883,1.4953,1.4915,1.4429,0.0,0.0,1.1135,0.9825,0.926,0.8543,0.77,0.77,0.77,0.77,0.77,0.77,0.77,0.77,0.7615,0.7531,0.7831,0.7683,0.7334,0.775,0.8206,0.8632,-0.5788,-0.5864,-0.5871,-0.5718,-0.5442,-0.5165,-0.4936,-0.4714,-0.4457,-0.4084,-0.4309,-0.4349,-0.393,-0.4237,-0.4489,-0.4489,-0.4557,-0.4602,-0.4602,-0.467,-0.4682,-0.4682,-0.4682,-0.4789,-0.4985,-0.4547,-0.4331,-0.4333,-0.2736,-0.1847,-0.1618,-0.0504,0.0,0.0,0.0,0.0196,0.0532,0.0532,0.0532,0.056,0.095,0.0895,0.0615,0.1006,0.0895,0.0557,0.0567,0.0313,0.0,0.0,0.0,0.0,0.0,0.0,0.0,0.0,0.0,0.0,0.0,0.0,0.0,0.0,0.0,0.0,0.0,0.0,0.0,0.0,0.0,0.0,0.0,0.0244,0.0677,0.1401,0.2095,0.2829,0.3661,0.4106,0.451,0.4966,0.5959,0.6583,0.6527,0.7943,0.9244,1.008,1.0854,1.2025,1.37,1.4079,1.454,0.0,0.0,0.0,1.3726,0.0,1.0845,0.9688,0.9017,0.8345,0.77,0.77,0.77,0.77,0.77,0.77,0.77,0.77,0.7534,0.7322,0.755,0.7472,0.7296,0.7693,0.8295,0.8925,-0.585,-0.592,-0.5898,-0.5635,-0.5176,-0.482,-0.4744,-0.4465,-0.4042,-0.3456,-0.4041,-0.421,-0.3399,-0.4013,-0.4489,-0.4489,-0.4489,-0.4489,-0.4489,-0.4489,-0.4489,-0.4489,-0.4489,-0.4534,-0.4621,-0.3949,-0.3563,-0.3534,-0.2029,-0.1231,-0.1085,-0.0341,0.0,0.0,0.0,0.0,0.0,0.0,0.0,0.0056,0.0643,0.095,0.1173,0.1758,0.1618,0.1089,0.1108,0.0614,0.0,0.0,0.0,0.0,0.0,0.0,0.0,0.0,0.0,0.0,0.0,0.0,0.0,0.0,0.0,0.0,0.0,0.0,0.0,0.0,0.0,0.0,0.0,0.0217,0.0,0.1059,0.1844,0.2609,0.3257,0.3822,0.4534,0.5385,0.6105,0.6629,0.6954,0.7774,0.8834,1.0169,1.0558,1.1569,1.3501,1.3726,1.4231,0.0,1.4434,1.3881,1.3634,0.0,1.0547,0.9421,0.8734,0.8149,0.77,0.7783,0.7783,0.77,0.7797,0.7783,0.77,0.77,0.7515,0.7226,0.7226,0.7226,0.7277,0.77,0.8328,0.9042,-0.5971,-0.5908,-0.5772,-0.5616,-0.4673,-0.4126,-0.4779,-0.4037,-0.3399,-0.3316,-0.4013,-0.421,-0.3483,-0.4042,-0.4489,-0.4489,-0.4489,-0.4489,-0.4489,-0.4489,-0.4489,-0.4489,-0.4489,-0.4255,-0.3736,-0.3633,-0.3287,-0.2612,-0.1722,-0.1228,-0.1098,-0.0356,0.0,0.0,0.0,0.0,0.0,0.0,0.0,0.0,0.0084,0.0504,0.1118,0.1173,0.1173,0.1113,0.1106,0.0638,0.0,0.0,0.0,0.0,0.0,0.0,0.0,0.0,0.0,0.0,0.0,0.0,0.0,0.0,0.0,0.0,0.0,0.0,0.0,0.0,0.0,0.0,0.0,0.0897,0.1691,0.1856,0.2863,0.3733,0.4051,0.4167,0.4534,0.5385,0.5945,0.6597,0.7521,0.781,0.8477,0.975,1.0221,1.1186,1.289,1.3505,1.3839,1.3951,1.3992,1.3397,1.2111,1.1442,1.0232,0.8517,0.8446,0.8149,0.771,0.8076,0.8048,0.7715,0.8091,0.8038,0.77,0.77,0.7681,0.7647,0.7647,0.7647,0.77,0.8166,0.8626,0.9055,-0.5647,-0.5654,-0.5572,-0.5243,-0.4785,-0.4369,-0.4058,-0.3602,-0.2982,-0.2092,-0.3066,-0.3372,-0.2148,-0.3065,-0.379,-0.3846,-0.3846,-0.3818,-0.379,-0.3372,-0.3122,-0.3122,-0.3122,-0.3059,-0.2929,-0.2389,-0.1998,-0.1784,-0.0924,-0.0489,-0.042,-0.0148,0.0,0.0,0.0,0.0,0.0,0.0,0.0252,0.07,0.1146,0.1758,0.2481,0.2955,0.2842,0.2365,0.1923,0.128,0.0641,0.0574,0.0289,0.0,0.0,0.0,0.0,0.0,0.0,0.0,0.0,0.0,0.0,0.0,0.0,0.0,0.0,0.0,0.0,0.0,0.0,0.0093,0.0375,0.0879,0.1494,0.2185,0.2763,0.3329,0.3883,0.4028,0.4508,0.5664,0.6184,0.6801,0.7741,0.805,0.858,0.9482,1.0079,1.0932,1.2164,1.289,1.342,1.3797,0.0,1.2608,1.1851,1.0784,0.9728,0.8694,0.8207,0.801,0.8067,0.8233,0.8219,0.8062,0.7981,0.7851,0.77,0.77,0.77,0.77,0.77,0.77,0.772,0.791,0.8423,0.9028,-0.5407,-0.5412,-0.5277,-0.4916,-0.4422,-0.3944,-0.3481,-0.2982,-0.2286,-0.1229,-0.2037,-0.2314,-0.1229,-0.2231,-0.301,-0.3038,-0.3038,-0.3037,-0.2982,-0.2481,-0.2203,-0.2203,-0.2203,-0.2172,-0.208,-0.1434,-0.1033,-0.0912,-0.0304,0.0,0.0,0.0,0.0,0.0,0.0,0.0,0.0,0.0,0.042,0.1146,0.1675,0.2453,0.3399,0.393,0.379,0.3233,0.2731,0.2044,0.1355,0.1264,0.0909,0.0497,0.0318,0.0269,0.0224,0.0045,0.0,0.0,0.0,0.0,0.0,0.0,0.0,0.0,0.0,0.0,0.0034,0.0185,0.0208,0.034,0.0799,0.1108,0.1559,0.2369,0.2733,0.3114,0.3708,0.4027,0.4648,0.5846,0.6318,0.694,0.7958,0.817,0.8601,0.9459,1.0152,1.0889,1.1751,1.2362,1.2886,0.0,0.0,0.0,1.1152,1.0195,0.9377,0.8712,0.8151,0.8071,0.8449,0.8336,0.8356,0.8416,0.7923,0.77,0.77,0.77,0.77,0.77,0.77,0.77,0.77,0.77,0.8251,0.9004,-0.5365,-0.5128,-0.4877,-0.4721,-0.3337,-0.2484,-0.3289,-0.212,-0.1118,-0.109,-0.1118,-0.1118,-0.109,-0.1758,-0.2203,-0.2203,-0.2203,-0.2203,-0.2203,-0.2203,-0.2203,-0.2203,-0.2203,-0.187,-0.1146,-0.1098,-0.0735,-0.0029,0.0,0.0,0.0,0.0,0.0,0.0,0.0,0.0,0.0,0.0,0.042,0.109,0.1118,0.2037,0.34,0.3343,0.3316,0.3316,0.3372,0.2785,0.198,0.1987,0.1888,0.1673,0.1088,0.0895,0.0761,0.018,0.0,0.0,0.0,0.0,0.0,0.0,0.0,0.0,0.0,0.0,0.0134,0.0588,0.069,0.0821,0.1222,0.1779,0.2252,0.2457,0.0,0.3481,0.3751,0.4305,0.5027,0.5901,0.6247,0.693,0.826,0.8106,0.8432,0.971,1.0407,1.1082,1.1765,1.2059,1.2213,1.2218,1.1884,0.0,0.9635,0.9676,0.924,0.831,0.829,0.8472,0.8789,0.8444,0.8472,0.8761,0.8014,0.77,0.77,0.77,0.77,0.77,0.77,0.77,0.77,0.77,0.8251,0.9004,-0.4914,-0.4828,-0.4567,-0.3932,-0.3341,-0.2704,-0.1953,-0.1424,-0.0923,-0.042,-0.0364,-0.0364,-0.0364,-0.1006,-0.1452,-0.1452,-0.1452,-0.1452,-0.1452,-0.0978,-0.07,-0.07,-0.07,-0.0588,-0.0364,-0.0347,-0.0235,0.0,0.0,0.0,0.0,0.0,0.0,0.0,0.0,0.0,0.0028,0.0532,0.1173,0.1897,0.2398,0.3233,0.4153,0.4125,0.4125,0.4042,0.3568,0.3118,0.2732,0.265,0.2527,0.2382,0.2193,0.1852,0.1474,0.1274,0.1229,0.121,0.1125,0.0852,0.0595,0.0494,0.0477,0.0471,0.0471,0.0687,0.0921,0.1072,0.1106,0.1247,0.1699,0.2116,0.2505,0.286,0.3264,0.3561,0.3657,0.4256,0.4974,0.5709,0.6508,0.7379,0.8303,0.8467,0.8877,0.9725,1.0415,1.1086,1.1765,1.2054,0.0,0.0,1.1256,0.0,0.9602,0.9302,0.8974,0.8643,0.8643,0.8836,0.9189,0.8584,0.8486,0.8761,0.8014,0.77,0.77,0.77,0.77,0.7725,0.801,0.8105,0.8184,0.8773,0.9368,0.9939,-0.4697,-0.444,-0.4029,-0.3498,-0.2899,-0.2175,-0.1229,-0.0867,-0.0532,-0.0056,0.0,0.0,0.0,-0.042,-0.0699,-0.0699,-0.0699,-0.0699,-0.0699,-0.0252,0.0,0.0,0.0,0.0,0.0,0.0,0.0,0.0,0.0,0.0,0.0,0.0,0.0,0.0,0.0,0.0,0.0056,0.0783,0.1535,0.2258,0.3037,0.379,0.4489,0.4489,0.4489,0.4434,0.3987,0.3689,0.349,0.3411,0.3267,0.3125,0.3125,0.2822,0.2388,0.1941,0.1807,0.178,0.17,0.1427,0.1152,0.1061,0.0989,0.0923,0.0923,0.1122,0.1356,0.1524,0.1558,0.1708,0.2179,0.2467,0.2756,0.3054,0.331,0.3577,0.3871,0.4498,0.5206,0.5946,0.6819,0.7649,0.8325,0.8563,0.9063,1.0104,1.0417,1.099,1.1907,0.0,1.1899,1.1716,1.061,0.9756,0.9148,0.898,0.8869,0.8803,0.9076,0.9344,0.9568,0.8978,0.8745,0.8775,0.8312,0.8043,0.7923,0.7923,0.8004,0.8123,0.8242,0.8379,0.8546,0.9107,0.9722,1.0356,-0.4675,-0.3987,-0.3372,-0.3317,-0.2092,-0.109,-0.1034,-0.0448,0.0,0.0,0.0,0.0,0.0,0.0,0.0,0.0,0.0,0.0,0.0,0.0,0.0,0.0,0.0,0.0,0.0,0.0,0.0,0.0,0.0,0.0,0.0,0.0,0.0,0.0,0.0,0.0028,0.0112,0.0867,0.159,0.2342,0.3149,0.3875,0.4489,0.4489,0.4489,0.4489,0.4489,0.437,0.4195,0.4195,0.4019,0.3792,0.3792,0.3718,0.3376,0.2254,0.1918,0.1923,0.1904,0.1786,0.1671,0.164,0.1499,0.1356,0.1388,0.1405,0.1522,0.1961,0.2047,0.2183,0.2628,0.2822,0.2953,0.3094,0.3273,0.3651,0.4303,0.5002,0.5716,0.6538,0.7157,0.0,0.8372,0.8459,0.9095,1.0629,1.045,1.0831,0.0,0.0,1.134,1.0879,1.0015,0.9182,0.84,0.872,0.8882,0.8885,0.9575,0.9899,0.9886,0.9547,0.9182,0.8803,0.8803,0.8601,0.8299,0.8328,0.8514,0.8775,0.8486,0.8586,0.89,0.8975,0.9611,1.0448,-0.4537,-0.3896,-0.3149,-0.2592,-0.173,-0.0923,-0.0336,-0.0112,0.0,0.0,0.0,0.0,0.0,0.0,0.0,0.0,0.0,0.0,0.0,0.0,0.0,0.0,0.0,0.0,0.0,0.0,0.0,0.0,0.0,0.0,0.0,0.0,0.0,0.0,0.0,0.0308,0.0895,0.1619,0.2369,0.3121,0.393,0.4349,0.4489,0.4489,0.4489,0.4489,0.4489,0.437,0.4195,0.4195,0.4019,0.3792,0.3792,0.3718,0.3534,0.3263,0.3173,0.3143,0.2986,0.2701,0.2388,0.2114,0.1953,0.1928,0.2294,0.2376,0.2394,0.2513,0.253,0.2597,0.2816,0.2954,0.3101,0.3229,0.3963,0.4502,0.4401,0.571,0.6739,0.6946,0.7457,0.8053,0.8647,0.8994,0.9485,0.0,1.0739,1.1181,1.1711,1.1304,1.0869,1.0464,0.96,0.8901,0.84,0.8684,0.9095,0.9646,0.9822,0.9899,0.9886,0.9547,0.9182,0.8803,0.8803,0.8601,0.8328,0.8578,0.8726,0.8816,0.9054,0.9434,0.996,1.0663,1.1354,1.1964,-0.407,-0.3343,-0.2564,-0.1813,-0.109,-0.0476,-0.0056,0.0,0.0,0.0,0.0,0.0,0.0,0.0,0.0,0.0,0.0,0.0,0.0,0.0,0.0,0.0,0.0,0.0,0.0,0.0,0.0,0.0,0.0,0.0,0.0,0.0,0.0,0.0028,0.0364,0.0727,0.1173,0.2259,0.2925,0.3371,0.4182,0.4489,0.4489,0.4489,0.4489,0.4489,0.4489,0.444,0.4346,0.4346,0.4166,0.3964,0.3917,0.3795,0.3687,0.3622,0.3602,0.3585,0.3476,0.3235,0.2931,0.2606,0.2425,0.238,0.2648,0.2698,0.2698,0.2698,0.2754,0.281,0.2893,0.3141,0.346,0.3881,0.4533,0.5077,0.5373,0.6388,0.7145,0.7278,0.7648,0.8125,0.8688,0.8948,0.9434,1.0322,1.0527,0.0,1.0996,1.0566,1.02,0.999,0.9346,0.8788,0.8354,0.8836,0.935,0.9899,0.9899,0.9899,0.9899,0.9718,0.943,0.9081,0.9237,0.9108,0.8814,0.9006,0.917,0.9304,0.9369,0.9669,1.0148,1.0914,1.155,1.2115,-0.3372,-0.2592,-0.1841,-0.1201,-0.0504,0.0,0.0,0.0,0.0,0.0,0.0,0.0,0.0,0.0,0.0,0.0,0.0,0.0,0.0,0.0,0.0,0.0,0.0,0.0,0.0,0.0,0.0,0.0,0.0,0.0,0.0,0.0,0.0,0.0028,0.0783,0.1173,0.1368,0.2731,0.3371,0.3539,0.4237,0.4489,0.4489,0.4489,0.4489,0.4489,0.4489,0.4489,0.4489,0.4489,0.4368,0.4169,0.4041,0.3914,0.3763,0.3645,0.3602,0.3602,0.3602,0.3472,0.3276,0.3005,0.2808,0.2698,0.2698,0.2698,0.2698,0.2698,0.2801,0.2933,0.3044,0.3453,0.4002,0.4725,0.5194,0.5748,0.6562,0.0,0.7369,0.7546,0.7725,0.8057,0.8648,0.8703,0.9182,1.0325,1.0063,0.9916,1.0088,0.9718,0.9489,0.9425,0.9143,0.8819,0.8474,0.9093,0.9561,0.9899,0.9899,0.9899,0.9899,0.9899,0.9718,0.9415,0.9757,0.9718,0.9402,0.9455,0.9639,0.9873,0.9587,0.9702,1.0094,1.0632,1.1203,1.1795,-0.2537,-0.1786,-0.1229,-0.1118,-0.0504,0.0,0.0,0.0,0.0,0.0,0.0,0.0,0.0,0.0,0.0,0.0,0.0,0.0,0.0,0.0,0.0,0.0,0.0,0.0,0.0,0.0,0.0,0.0,0.0,0.0,0.0,0.0,0.0,0.0028,0.0783,0.1452,0.2092,0.2925,0.3678,0.432,0.446,0.4489,0.4489,0.4489,0.4489,0.4489,0.4489,0.4489,0.4489,0.4489,0.4368,0.4169,0.4041,0.3914,0.3763,0.3645,0.3602,0.3602,0.3602,0.3373,0.3126,0.3081,0.2883,0.2698,0.2698,0.2698,0.2698,0.2698,0.2801,0.3089,0.3723,0.4218,0.4761,0.544,0.6444,0.7102,0.702,0.0,0.8116,0.7872,0.7669,0.7864,0.8626,0.8709,0.8927,0.9456,0.9589,0.9511,0.9224,0.9136,0.894,0.86,0.8805,0.902,0.9234,0.9348,0.9561,0.9899,0.9899,0.9899,0.9899,0.9899,0.9718,0.9415,0.9757,0.9718,0.9428,0.9705,0.9848,0.9899,0.9835,1.0129,1.0657,1.1242,1.1807,1.2344,-0.1758,-0.1453,-0.1146,-0.0616,-0.0224,0.0,0.0,0.0,0.0,0.0,0.0,0.0,0.0,0.0,0.0,0.0,0.0,0.0,0.0,0.0,0.0,0.0,0.0,0.0,0.0,0.0,0.0,0.0,0.0,0.0,0.0,0.042,0.0588,0.0643,0.1814,0.2538,0.2899,0.3622,0.4155,0.4489,0.4489,0.4489,0.4489,0.4489,0.4489,0.4489,0.4489,0.4489,0.4489,0.4489,0.4445,0.4324,0.4067,0.3945,0.387,0.3668,0.3602,0.3602,0.3602,0.3415,0.3184,0.3121,0.2961,0.2783,0.2716,0.2698,0.2818,0.3204,0.3399,0.3723,0.4448,0.5026,0.5572,0.6099,0.6983,0.7534,0.7336,0.7931,0.8143,0.7493,0.749,0.7756,0.8279,0.8383,0.862,0.9106,0.9226,0.9094,0.8691,0.8683,0.8579,0.8349,0.8677,0.9018,0.9394,0.9574,0.9744,0.9899,0.9899,0.9899,0.9899,0.9899,0.9809,0.9679,0.9835,0.9809,0.9673,0.9835,0.9899,0.9899,0.9899,1.0225,1.0762,1.1374,1.1933,1.2475,-0.0978,-0.1007,-0.0895,-0.014,0.0,0.0,0.0,0.0,0.0,0.0,0.0,0.0,0.0,0.0,0.0,0.0,0.0,0.0,0.0,0.0,0.0,0.0,0.0,0.0,0.0,0.0168,0.0252,0.0252,0.042,0.0504,0.0532,0.109,0.1368,0.1424,0.2759,0.3372,0.3429,0.4182,0.4489,0.4489,0.4489,0.4489,0.4489,0.4489,0.4489,0.4489,0.4489,0.4489,0.4489,0.4489,0.4489,0.4443,0.4131,0.4046,0.3989,0.3717,0.3713,0.3751,0.3624,0.3445,0.3279,0.3184,0.3042,0.2896,0.2913,0.287,0.3054,0.3796,0.4047,0.4382,0.5149,0.5747,0.6292,0.6729,0.0,0.7718,0.76,0.794,0.7926,0.7221,0.7355,0.7653,0.8006,0.8038,0.8269,0.8824,0.877,0.8564,0.8258,0.8321,0.8439,0.8558,0.8808,0.9122,0.9508,0.977,0.9899,0.9899,0.9899,0.9899,0.9899,0.9899,0.9899,0.9899,0.9899,0.9899,0.9912,1.0024,1.0094,1.0106,1.0238,1.0552,1.0977,1.1569,1.2052,1.2475,-0.0224,-0.0084,-0.0084,0.0,0.0,0.0,0.0,0.0,0.0,0.0,0.0,0.0,0.0,0.0,0.0,0.0,0.0,0.0,0.0,0.0,0.0,0.0,0.0,0.0,0.0,0.0671,0.1006,0.1006,0.1703,0.2036,0.2036,0.2092,0.212,0.2147,0.2954,0.3316,0.3372,0.4155,0.4489,0.4489,0.4489,0.4489,0.4489,0.4489,0.4489,0.4489,0.4489,0.4489,0.4489,0.4489,0.4489,0.4464,0.4254,0.4179,0.4144,0.3865,0.4057,0.424,0.3731,0.3445,0.3304,0.3358,0.314,0.3011,0.3438,0.3386,0.3461,0.4202,0.4468,0.4819,0.569,0.6226,0.6743,0.7331,0.0,0.0,0.7882,0.7689,0.756,0.7556,0.7359,0.7486,0.8114,0.7797,0.78,0.8407,0.8037,0.7778,0.7744,0.8104,0.8622,0.9295,0.9348,0.9515,0.986,0.9886,0.9899,0.9899,0.9899,0.9899,0.9899,0.9899,0.9899,0.9899,0.9899,0.9899,0.9943,1.0438,1.0637,1.0708,1.1255,1.1502,1.1594,1.2146,1.2363,1.2475,-0.0056,0.0,0.0,0.0,0.0,0.0,0.0,0.0,0.0,0.0,0.0,0.0,0.0,0.0,0.0,0.0,0.0,0.0,0.0,0.042,0.0476,0.0028,0.0448,0.0671,0.0671,0.1396,0.1786,0.1786,0.2064,0.2203,0.2203,0.2704,0.2926,0.2926,0.3706,0.4042,0.407,0.4377,0.4489,0.4489,0.4489,0.4489,0.4489,0.4489,0.4489,0.4489,0.4489,0.4489,0.4489,0.4489,0.4489,0.4465,0.4265,0.4505,0.49,0.4966,0.4963,0.4913,0.4703,0.4604,0.4435,0.4012,0.4078,0.4235,0.4115,0.4043,0.4199,0.493,0.5124,0.5444,0.6415,0.6907,0.716,0.7178,0.0,0.7712,0.7178,0.7368,0.7454,0.7136,0.7275,0.7482,0.774,0.7686,0.7722,0.7943,0.7807,0.7812,0.8062,0.8654,0.9114,0.9388,0.96,0.977,0.9899,0.9899,0.9899,0.9899,0.9899,0.9899,0.9899,0.9899,1.0074,1.04,1.04,1.04,1.0438,1.1023,1.104,1.0756,1.1362,1.1795,1.2121,1.2319,1.279,1.335,0.0,0.0,0.0,0.0,0.0,0.0,0.0,0.0,0.0,0.0,0.0,0.0,0.0,0.0,0.0,0.0,0.0,0.0112,0.0336,0.1034,0.1229,0.07,0.1173,0.1452,0.1452,0.2175,0.2537,0.2537,0.2788,0.2926,0.2926,0.3483,0.3735,0.3706,0.4265,0.4489,0.4489,0.4489,0.4489,0.4489,0.4489,0.4489,0.4489,0.4489,0.4489,0.4489,0.4489,0.4625,0.4814,0.4814,0.4979,0.5124,0.5009,0.5208,0.559,0.5944,0.5825,0.5591,0.5591,0.5714,0.5631,0.4766,0.482,0.5032,0.4747,0.4654,0.4805,0.5426,0.5556,0.5807,0.6597,0.6938,0.7008,0.6784,0.7101,0.7201,0.6729,0.7054,0.7266,0.7046,0.7294,0.7512,0.7567,0.7651,0.77,0.77,0.7827,0.8114,0.8617,0.9133,0.9455,0.9547,0.9783,0.9899,0.9899,0.9899,0.9899,0.9899,0.9899,0.9899,0.9905,1.0068,1.035,1.0706,1.0902,1.0977,1.1027,1.1613,1.1613,1.1291,1.1867,1.2424,1.2861,1.2861,1.3386,1.4091,0.0,0.0,0.0,0.0,0.0,0.0,0.0,0.0,0.0,0.0,0.0,0.0,0.0,0.0,0.0,0.0,0.0,0.0336,0.1062,0.1814,0.2203,0.2231,0.2203,0.2203,0.2203,0.2925,0.3316,0.3316,0.4098,0.4489,0.4489,0.4489,0.4489,0.4489,0.4489,0.4489,0.4489,0.4489,0.4489,0.4489,0.4489,0.4489,0.4489,0.4517,0.4519,0.4519,0.4519,0.495,0.5513,0.5513,0.6009,0.6588,0.6615,0.6337,0.6123,0.6639,0.6527,0.6206,0.6203,0.6601,0.6722,0.5583,0.522,0.5156,0.5278,0.5212,0.5215,0.5609,0.5694,0.5802,0.6139,0.6214,0.6214,0.6214,0.6214,0.6351,0.6738,0.6807,0.6982,0.7432,0.7503,0.7548,0.7695,0.77,0.77,0.77,0.8076,0.8626,0.9362,0.9402,0.9555,0.9886,0.9899,0.9899,0.9899,0.9899,0.9899,0.9899,0.9899,0.9899,0.9918,1.0457,1.0694,1.0737,1.1343,1.1609,1.1653,1.219,1.2394,1.245,1.2985,1.3486,1.3885,1.3901,1.4149,1.4501,0.0,0.0,0.0,0.0,0.0,0.0,0.0,0.0,0.0,0.0,0.0,0.0,0.0,0.0,0.0196,0.0727,0.0783,0.1313,0.2564,0.2842,0.3233,0.379,0.3259,0.2982,0.3038,0.3761,0.4153,0.4153,0.4377,0.4489,0.4489,0.4489,0.4489,0.4489,0.4489,0.4489,0.4489,0.4489,0.4489,0.4489,0.4489,0.4489,0.4543,0.5029,0.5191,0.5273,0.5796,0.6095,0.6283,0.6283,0.6421,0.6696,0.7208,0.7154,0.6987,0.7442,0.7363,0.7072,0.6822,0.6877,0.6831,0.6109,0.6174,0.6347,0.6002,0.5903,0.584,0.572,0.5926,0.622,0.6557,0.6858,0.7047,0.7047,0.7047,0.7008,0.6883,0.7113,0.728,0.7222,0.747,0.7652,0.7695,0.77,0.7827,0.8105,0.8709,0.9174,0.9388,0.9626,0.9796,0.9899,0.9899,0.9899,0.9899,0.9899,0.9899,0.9899,0.9899,0.9899,0.9918,1.0457,1.0933,1.1362,1.192,1.2165,1.2203,1.2745,1.2739,1.245,1.2985,1.3295,1.3452,1.3785,1.4149,1.4549,0.0,0.0,0.0,0.0,0.0,0.0,0.0,0.0,0.0,0.0,0.0,0.0112,0.0392,0.0448,0.0727,0.148,0.1814,0.237,0.3289,0.3623,0.3986,0.4489,0.4041,0.379,0.3846,0.4265,0.4489,0.4489,0.4489,0.4489,0.4489,0.4489,0.4489,0.4489,0.4489,0.4489,0.4489,0.4489,0.4651,0.4895,0.4895,0.506,0.5363,0.5794,0.5925,0.5982,0.645,0.6777,0.7047,0.7047,0.7238,0.756,0.7993,0.7944,0.7772,0.8031,0.7826,0.7447,0.7248,0.7111,0.6915,0.6601,0.6771,0.688,0.6452,0.6277,0.6109,0.5775,0.593,0.6204,0.6405,0.6769,0.7043,0.7043,0.7043,0.7028,0.6978,0.7183,0.7337,0.7342,0.7554,0.77,0.77,0.77,0.7918,0.8458,0.906,0.9455,0.9587,0.9783,0.9899,0.9899,0.9899,0.9899,0.9899,0.9899,0.9899,0.9899,0.9899,0.9899,0.9918,1.0457,1.1027,1.1634,1.2335,1.2778,1.3022,1.3345,1.3288,1.3019,1.3152,1.3408,1.3759,1.4026,1.4517,1.5051,0.0,0.0,0.0,0.0,0.0,0.0,0.0,0.0,0.0,0.0,0.0056,0.0364,0.1034,0.1145,0.1507,0.2231,0.2982,0.3428,0.3483,0.4125,0.4489,0.4489,0.4489,0.4489,0.4489,0.4489,0.4489,0.4489,0.4489,0.4489,0.4489,0.4489,0.4489,0.4489,0.4489,0.4544,0.4598,0.4598,0.4976,0.5594,0.5594,0.6009,0.6615,0.6669,0.6696,0.6696,0.6777,0.7235,0.7803,0.7803,0.8239,0.8808,0.8808,0.8627,0.8432,0.8409,0.8007,0.758,0.7527,0.7268,0.7057,0.7073,0.7084,0.701,0.6733,0.6478,0.6219,0.5947,0.5984,0.6067,0.6067,0.636,0.6609,0.6609,0.6609,0.673,0.7103,0.7148,0.7295,0.7661,0.77,0.77,0.77,0.7754,0.8095,0.8803,0.9222,0.9574,0.9886,0.9899,0.9899,0.9899,0.9899,0.9899,0.9899,0.9899,0.9899,0.9899,0.9899,0.9924,0.9993,1.0532,1.1102,1.1719,1.2668,1.3385,1.3901,1.3944,1.3944,1.3917,1.3486,1.3802,1.4501,1.4549,1.5051,1.5733,0.0,0.0,0.0,0.0,0.0,0.0,0.0,0.0,0.0,0.0,0.0504,0.0923,0.109,0.1619,0.2286,0.3066,0.3818,0.4237,0.4265,0.4406,0.4489,0.4489,0.4489,0.4489,0.4489,0.4489,0.4489,0.4489,0.4489,0.4489,0.4489,0.4489,0.4489,0.4489,0.4489,0.4787,0.5273,0.5273,0.571,0.6367,0.6367,0.645,0.6669,0.7238,0.7453,0.7533,0.8103,0.8427,0.8563,0.8563,0.8672,0.8808,0.8808,0.8764,0.8671,0.8466,0.8305,0.8097,0.7618,0.744,0.7446,0.7658,0.7704,0.7613,0.7308,0.7176,0.7187,0.7318,0.7374,0.7393,0.7393,0.742,0.7432,0.7432,0.7432,0.7476,0.7554,0.7569,0.7598,0.7695,0.77,0.77,0.77,0.8218,0.8753,0.9235,0.9594,0.9822,0.9899,0.9899,0.9899,0.9899,0.9899,0.9899,0.9899,0.9899,0.9899,0.9899,0.9899,1.0118,1.0557,1.1142,1.1707,1.2275,1.3272,1.3782,1.3917,1.4246,1.4374,1.4358,1.4262,1.4326,1.4549,1.4845,1.5089,1.5307,0.0,0.0,0.0,0.0,0.0,0.0,0.0,0.0,0.014,0.0476,0.0867,0.1368,0.2064,0.2481,0.3038,0.3847,0.4265,0.4489,0.4489,0.4489,0.4489,0.4489,0.4489,0.4489,0.4489,0.4489,0.4489,0.4489,0.4489,0.4489,0.4489,0.4489,0.4489,0.4519,0.4842,0.5164,0.5515,0.5871,0.6445,0.7128,0.7128,0.7345,0.7696,0.8076,0.8239,0.8265,0.8672,0.8808,0.8808,0.8808,0.8808,0.8808,0.8808,0.8808,0.8778,0.8627,0.8509,0.8332,0.801,0.7919,0.7916,0.8057,0.8192,0.8244,0.8067,0.7893,0.7818,0.7961,0.8044,0.8028,0.7837,0.7935,0.7954,0.7734,0.77,0.77,0.77,0.77,0.77,0.77,0.77,0.7768,0.7966,0.8656,0.9176,0.9388,0.9718,0.9899,0.9899,0.9899,0.9899,0.9899,0.9899,0.9899,0.9899,1.0053,1.0296,1.0606,1.0289,1.0418,1.0944,1.0996,1.1627,1.2716,1.3173,1.378,1.4485,1.4705,1.4783,1.4768,1.4564,1.4627,1.4814,1.5021,1.5247,1.547,0.0,0.0,0.0,0.0,0.0,0.0,0.0,0.0112,0.042,0.1006,0.1341,0.1953,0.3176,0.3428,0.3761,0.4432,0.4489,0.4489,0.4489,0.4489,0.4489,0.4489,0.4489,0.4489,0.4489,0.4489,0.4489,0.4489,0.4489,0.4489,0.4489,0.4624,0.4679,0.4706,0.5382,0.576,0.5923,0.6529,0.7208,0.7886,0.7886,0.8265,0.8808,0.8808,0.8808,0.8808,0.8808,0.8808,0.8808,0.8808,0.8808,0.8808,0.8808,0.8808,0.8808,0.8808,0.8712,0.8632,0.8581,0.8619,0.8647,0.8617,0.8778,0.8954,0.8971,0.8696,0.8451,0.8547,0.858,0.8474,0.8077,0.8215,0.8253,0.7768,0.77,0.77,0.77,0.77,0.77,0.77,0.7754,0.7981,0.8449,0.9033,0.9428,0.9481,0.9744,0.9899,0.9899,0.9899,0.9899,0.9899,0.9899,0.9899,0.9899,1.0352,1.0889,1.1488,1.1077,1.1147,1.1608,1.1055,1.1689,1.3247,1.3086,1.3813,1.5119,1.5195,1.521,1.5195,1.4845,1.4929,1.521,1.521,1.547,1.5799,0.0,0.0,0.0,0.0,0.0,0.0,0.0,0.0532,0.0978,0.109,0.2259,0.3177,0.3372,0.3958,0.4377,0.4489,0.4489,0.4489,0.4489,0.4489,0.4489,0.4489,0.4489,0.4489,0.4489,0.4489,0.4489,0.4489,0.4489,0.4489,0.4519,0.5083,0.5351,0.5406,0.612,0.6799,0.7396,0.7506,0.7966,0.8646,0.8646,0.8725,0.8808,0.8808,0.8808,0.8808,0.8808,0.8808,0.8808,0.8808,0.8808,0.8808,0.8808,0.8808,0.8808,0.8808,0.9183,0.9563,0.9339,0.967,1.0081,0.9904,0.9889,0.9935,1.0062,0.9694,0.9461,0.9915,0.9713,0.9312,0.8909,0.859,0.8253,0.7768,0.77,0.77,0.77,0.77,0.77,0.77,0.801,0.8491,0.9187,0.9348,0.9521,0.9809,0.9873,0.9899,0.9899,0.9899,0.9899,0.9899,0.9899,0.9899,0.9899,1.0815,1.146,1.1847,1.2557,1.3077,1.3342,1.2685,1.3083,1.4273,1.4032,1.4364,1.5134,1.5544,1.5704,1.5704,1.5653,1.5661,1.5704,1.5704,1.5755,1.5799,0.0,0.0,0.0,0.0,0.0,0.014,0.056,0.0895,0.1396,0.2231,0.2926,0.3512,0.3958,0.4294,0.4489,0.4489,0.4489,0.4489,0.4489,0.4489,0.4489,0.4489,0.4489,0.4489,0.4489,0.4489,0.4489,0.4489,0.4489,0.4489,0.4519,0.5191,0.5513,0.554,0.6716,0.7396,0.7723,0.8129,0.8507,0.8808,0.8808,0.8808,0.8808,0.8808,0.8808,0.8808,0.8808,0.8808,0.8808,0.8808,0.9061,0.9361,0.9361,0.9614,0.9913,0.9913,1.0141,1.0332,1.0207,1.0511,1.0819,1.0732,1.0623,1.0561,1.0613,1.0291,1.002,1.0259,1.0151,0.9863,0.9416,0.9187,0.8862,0.8198,0.8091,0.8078,0.8045,0.8038,0.81,0.8284,0.8662,0.9033,0.9375,0.9568,0.9744,0.9886,0.9899,0.9899,0.9899,0.9899,0.9899,0.9899,0.9899,0.9983,1.0173,1.1186,1.2025,1.2693,1.3664,1.4055,1.3905,1.3303,1.3693,1.4788,1.3998,1.4353,1.5485,1.5309,1.5455,1.5799,1.5799,1.5799,1.5799,1.5799,1.5799,1.5799]}]]